     2.11           OBSERVATION DATA    G (GPS)             RINEX VERSION / TYPE
teqc 2010Oct21 OPUS Account 20111027 14:13:27UTC            PGM / RUN BY / DATE
Y 1523                                                      MARKER NAME
1203                                                        MARKER NUMBER
CSMIDDLETON NGS                                             OBSERVER / AGENCY
4624K01615 TRIMBLE NETR5 4.41                               REC # / TYPE / VERS
12338145 TRM41249.00 NONE                                   ANT # / TYPE
  -752462.8806 -5522251.5575  3091260.0264                  APPROX POSITION XYZ
        2.0000        0.0000        0.0000                  ANTENNA: DELTA H/E/N
     1     1                                                WAVELENGTH FACT L1/2
     5    L1    L2    C1    P1    P2                        # / TYPES OF OBSERV
    15                                                      LEAP SECONDS
  2011     8    13     0     0    0.0000000     GPS         TIME OF FIRST OBS
                                                            END OF HEADER
 11  8 13  0  0  0.0000000  0  8G09G28G17G10G02G04G12G05
 118040358.619 7  91979572.58544  22462337.008                    22462346.230
 123709256.881 6  96396896.14143  23541097.969                    23541107.395
 117066190.819 7  91220470.522 7  22276947.398                    22276954.688
 112885812.795 7  87963092.93445  21481443.430                    21481451.730
 109905535.901 8  85640802.67746  20914312.313                    20914317.773
 107375260.353 8  83669201.68546  20432820.430                    20432828.141
 119985744.324 7  93495454.635 7  22832530.953                    22832538.457
 125679234.391 7  97931925.911 6  23915959.797                    23915970.078
 11  8 13  0  0 30.0000000  0  8G09G28G17G10G02G04G12G05
 118087814.283 7  92016550.97945  22471367.828                    22471377.000
 123801928.528 6  96469107.71243  23558732.320                    23558741.855
 117107134.582 7  91252374.748 7  22284738.727                    22284746.289
 112827761.186 7  87917857.96145  21470396.656                    21470404.746
 109871498.464 8  85614280.01746  20907834.992                    20907840.766
 107426787.164 8  83709352.44346  20442625.789                    20442633.359
 119896380.242 7  93425820.341 7  22815525.375                    22815532.965
 125573453.840 7  97849499.715 6  23895829.984                    23895840.613
 11  8 13  0  1  0.0000000  0  8G09G28G17G10G02G04G12G05
 118135748.965 7  92053902.65844  22480489.336                    22480498.625
 123894867.426 6  96541527.56143  23576418.320                    23576427.945
 117148180.412 7  91284358.507 7  22292549.695                    22292557.344
 112770179.492 7  87872989.15645  21459438.961                    21459447.125
 109837827.780 8  85588043.13946  20901427.852                    20901433.211
 107478681.250 8  83749789.38646  20452500.633                    20452508.465
 119807204.507 7  93356332.799 7  22798555.281                    22798562.898
 125467684.579 7  97767082.301 6  23875702.242                    23875712.996
 11  8 13  0  1 30.0000000  0  8G09G28G17G10G02G04G12G05
 118184159.802 7  92091625.36244  22489701.930                    22489710.652
 123988071.432 6  96614153.97443  23594154.539                    23594163.313
 117189328.193 7  91316421.696 7  22300380.055                    22300387.652
 112713070.086 7  87828488.37345  21448571.547                    21448579.590
 109804522.894 8  85562091.30846  20895090.297                    20895095.781
 107530940.090 8  83790510.55746  20462445.391                    20462452.992
 119718219.391 7  93286993.759 7  22781622.258                    22781629.352
 125361929.265 7  97684675.768 6  23855578.047                    23855588.203
 11  8 13  0  2  0.0000000  0  8G09G28G17G10G02G04G12G05
 118233043.730 7  92129716.70545  22499004.586                    22499012.758
 124081539.057 6  96686985.81543  23611940.906                    23611950.207
 117230578.665 7  91348564.921 7  22308229.328                    22308236.828
 112656435.879 7  87784357.86645  21437794.398                    21437802.309
 109771583.596 8  85536424.34446  20888821.688                    20888827.164
 107583561.187 8  83831514.00246  20472458.805                    20472466.676
 119629427.414 7  93217805.208 7  22764725.430                    22764732.586
 125256190.394 7  97602282.057 6  23835455.898                    23835466.672
 11  8 13  0  2 30.0000000  0  8G09G28G17G10G02G04G12G05
 118282398.694 7  92168175.08444  22508396.258                    22508404.766
 124175268.617 6  96760021.76343  23629777.953                    23629786.262
 117271932.405 7  91380788.578 7  22316098.977                    22316106.176
 112600279.809 7  87740599.93145  21427107.773                    21427116.629
 109739009.868 8  85511042.24746  20882623.445                    20882628.941
 107636542.512 8  83872798.13346  20482540.867                    20482549.141
 119540830.948 7  93148769.024 7  22747866.180                    22747873.777
 125150471.002 7  97519903.462 6  23815338.211                    23815349.238
 11  8 13  0  3  0.0000000  0  8G09G28G17G10G02G04G12G05
 118332221.500 7  92206997.99644  22517877.148                    22517886.102
 124269258.367 6  96833260.41343  23647663.234                    23647672.750
 117313390.071 7  91413093.244 7  22323988.023                    22323995.863
 112544604.592 7  87697216.70145  21416513.367                    21416521.688
 109706801.471 8  85485944.81946  20876494.250                    20876499.613
 107689881.731 8  83914361.15046  20492690.867                    20492698.652
 119452432.636 7  93079887.233 7  22731044.023                    22731052.113
 125044773.794 7  97437542.173 6  23795224.859                    23795235.500
 11  8 13  0  3 30.0000000  0  8G09G28G17G10G02G04G12G05
 118382509.573 7  92246183.47844  22527446.867                    22527455.738
 124363506.468 6  96906700.40143  23665598.211                    23665607.020
 117354952.000 7  91445479.162 7  22331896.672                    22331904.305
 112489412.942 8  87654210.26845  21406011.016                    21406019.082
 109674958.262 8  85461131.94546  20870434.539                    20870440.660
 107743576.541 8  83956201.25046  20502908.945                    20502916.441
 119364235.297 7  93011162.047 7  22714261.344                    22714269.070
 124939101.927 7  97355200.635 6  23775116.102                    23775126.727
 11  8 13  0  4  0.0000000  0  8G09G28G17G10G02G04G12G05
 118433259.729 7  92285728.99745  22537104.172                    22537113.438
 124458011.381 7  96980340.49143  23683582.047                    23683590.949
 117396618.826 7  91477946.798 7  22339825.648                    22339833.598
 112434706.977 8  87611582.27245  21395600.867                    21395608.590
 109643479.428 8  85436603.01246  20864444.195                    20864449.863
 107797624.593 8  83998316.60846  20513193.703                    20513201.750
 119276240.970 7  92942595.058 7  22697516.500                    22697523.676
 124833457.874 7  97272880.764 6  23755012.492                    23755022.996
 11  8 13  0  4 30.0000000  0  8G09G28G17G10G02G04G12G05
 118484468.588 7  92325631.95144  22546849.031                    22546858.027
 124552770.408 6  97054178.60443  23701613.398                    23701622.285
 117438390.413 8  91510496.068 7  22347774.203                    22347782.090
 112380489.091 8  87569334.62145  21385283.242                    21385291.480
 109612364.061 8  85412357.29746  20858523.125                    20858528.754
 107852022.552 8  84040704.61246  20523545.500                    20523553.012
 119188452.520 7  92874188.486 7  22680810.445                    22680818.453
 124727843.865 7  97190584.302 6  23734914.531                    23734924.582
 11  8 13  0  5  0.0000000  0  8G09G28G17G10G02G04G12G05
 118536134.261 7  92365890.85744  22556680.820                    22556689.598
 124647782.863 6  97128214.22543  23719694.617                    23719703.555
 117480268.086 7  91543127.991 7  22355743.477                    22355750.875
 112326762.548 8  87527469.83545  21375059.555                    21375067.559
 109581612.848 8  85388395.34046  20852671.813                    20852677.078
 107906769.220 8  84083364.34146  20533963.500                    20533971.063
 119100871.732 7  92805943.742 7  22664144.922                    22664152.531
 124622263.787 7  97108314.286 6  23714822.469                    23714833.723
 11  8 13  0  5 30.0000000  0  8G09G28G17G10G02G04G12G05
 118588253.344 7  92406503.06944  22566598.633                    22566607.625
 124743046.655 6  97202445.67343  23737821.945                    23737831.531
 117522252.327 7  91575842.966 7  22363733.211                    22363740.656
 112273529.734 8  87485989.76145  21364929.586                    21364937.219
 109551225.098 8  85364716.60346  20846889.094                    20846894.523
 107961861.743 8  84126293.56646  20544447.297                    20544454.836
 119013501.571 7  92737863.125 7  22647518.945                    22647526.559
 124516720.294 7  97026072.783 6  23694738.539                    23694748.793
 11  8 13  0  6  0.0000000  0  8G09G28G17G10G02G04G12G05
 118640823.218 7  92447466.55344  22576602.922                    22576611.785
 124838560.240 6  97276871.77743  23755997.914                    23756006.418
 117564343.651 7  91608641.356 7  22371742.883                    22371750.520
 112220793.733 8  87444896.82945  21354894.383                    21354901.965
 109521200.922 8  85341321.16846  20841175.695                    20841180.875
 108017298.425 8  84169490.97546  20554996.391                    20555004.211
 118926344.926 7  92669948.872 7  22630932.992                    22630940.844
 124411216.479 7  96943862.234 6  23674661.414                    23674672.285
 11  8 13  0  6 30.0000000  0  8G09G28G17G10G02G04G12G05
 118693840.430 7  92488778.61145  22586691.281                    22586700.680
 124934321.293 6  97351490.74643  23774220.719                    23774229.262
 117606542.591 7  91641523.602 7  22379773.094                    22379780.941
 112168556.420 8  87404192.47145  21344954.063                    21344961.613
 109491539.282 8  85318208.22846  20835531.406                    20835536.652
 108073076.176 8  84212954.14446  20565610.648                    20565618.301
 118839404.223 7  92602202.887 7  22614389.039                    22614396.816
 124305754.590 7  96861684.340 6  23654592.703                    23654603.035
 11  8 13  0  7  0.0000000  0  8G09G28G17G10G02G04G12G05
 118747302.563 7  92530437.36444  22596865.164                    22596873.730
 125030328.496 6  97426301.41143  23792489.414                    23792499.383
 117648849.234 7  91674489.787 7  22387823.945                    22387831.441
 112116820.786 8  87363879.04045  21335108.969                    21335116.574
 109462240.151 8  85295377.76146  20829955.430                    20829961.441
 108129193.004 8  84256681.53246  20576289.367                    20576297.012
 118752681.844 7  92534627.055 7  22597886.234                    22597893.895
 124200337.762 7  96779541.524 6  23634533.367                    23634542.969
 11  8 13  0  7 30.0000000  0  8G09G28G17G10G02G04G12G05
 118801206.377 7  92572440.27944  22607122.094                    22607131.688
 125126579.978 6  97501302.49543  23810806.953                    23810815.449
 117691264.118 7  91707540.332 7  22395894.555                    22395902.320
 112065588.916 7  87323958.15345  21325359.734                    21325367.434
 109433303.061 8  85272829.40146  20824449.266                    20824454.828
 108185646.153 8  84300670.98446  20587032.328                    20587039.750
 118666180.156 7  92467223.167 7  22581426.109                    22581433.266
 124094968.557 6  96697435.829 6  23614480.977                    23614491.840
 11  8 13  0  8  0.0000000  0  8G09G28G17G10G02G04G12G05
 118855548.978 7  92614785.11145  22617463.625                    22617473.266
 125223073.287 6  97576491.94143  23829168.047                    23829178.191
 117733787.905 7  91740675.735 7  22403987.438                    22403994.348
 112014863.363 7  87284431.80145  21315706.789                    21315714.281
 109404727.238 8  85250562.53646  20819011.352                    20819016.645
 108242433.433 8  84344920.80746  20597838.156                    20597845.883
 118579901.889 7  92399993.386 7  22565007.102                    22565014.859
 123989650.058 7  96615369.670 7  23594439.359                    23594450.363
 11  8 13  0  8 30.0000000  0  8G09G28G17G10G02G04G12G05
 118910327.657 7  92657469.72044  22627887.336                    22627896.773
 125319806.974 6  97651868.74843  23847576.703                    23847585.387
 117776421.345 7  91773896.553 7  22412100.250                    22412107.316
 111964646.670 7  87245301.95945  21306150.844                    21306158.707
 109376512.605 8  85228577.12046  20813642.313                    20813647.855
 108299552.465 8  84389429.12546  20608708.055                    20608715.430
 118493849.436 7  92332939.583 7  22548632.266                    22548639.543
 123884385.158 7  96533345.243 6  23574408.406                    23574418.504
 11  8 13  0  9  0.0000000  0  8G09G28G17G10G02G04G12G05
 118965538.999 6  92700491.48144  22638394.008                    22638403.094
 125416779.122 6  97727431.31943  23866029.695                    23866039.008
 117819164.581 7  91807202.969 7  22420233.422                    22420241.055
 111914941.011 8  87206570.32245  21296691.820                    21296700.109
 109348658.513 8  85206872.63746  20808341.852                    20808347.258
 108357000.773 8  84434194.02746  20619639.813                    20619647.504
 118408025.294 7  92266063.675 7  22532300.109                    22532307.813
 123779176.561 7  96451364.704 6  23554387.773                    23554397.758
 11  8 13  0  9 30.0000000  0  8G09G28G17G10G02G04G12G05
 119021179.802 7  92743847.91044  22648981.461                    22648991.434
 125513987.790 6  97803178.20944  23884527.633                    23884537.266
 117862018.411 7  91840595.544 7  22428388.438                    22428396.047
 111865748.852 8  87168238.80645  21287331.055                    21287339.277
 109321164.287 8  85185448.57446  20803109.430                    20803114.668
 108414775.870 8  84479213.57646  20630634.172                    20630641.484
 118322431.989 7  92199367.638 7  22516013.063                    22516020.250
 123674027.157 7  96369430.267 6  23534378.508                    23534388.129
 11  8 13  0 10  0.0000000  0  8G09G28G17G10G02G04G12G05
 119077247.880 7  92787537.26744  22659651.453                    22659660.668
 125611431.423 6  97879108.20743  23903070.969                    23903080.480
 117904983.521 7  91874074.829 7  22436564.656                    22436572.320
 111817073.711 8  87130310.15845  21278068.352                    21278076.527
 109294030.179 8  85164305.12146  20797946.266                    20797951.473
 108472876.249 8  84524486.58446  20641690.422                    20641697.734
 118237072.760 7  92132854.017 7  22499769.227                    22499776.164
 123568940.289 7  96287544.573 6  23514380.500                    23514390.762
 11  8 13  0 10 30.0000000  0  8G09G28G17G10G02G04G12G05
 119133739.666 6  92831556.76344  22670402.063                    22670410.750
 125709108.091 6  97955219.79544  23921658.195                    23921667.258
 117948060.558 7  91907641.340 7  22444762.414                    22444769.266
 111768917.009 7  87092785.49245  21268904.711                    21268912.480
 109267255.365 8  85143441.64446  20792851.047                    20792856.613
 108531298.842 8  84570010.66846  20652807.828                    20652815.102
 118151949.429 7  92066524.197 7  22483570.359                    22483577.938
 123463918.362 7  96205709.466 6  23494396.219                    23494405.719
 11  8 13  0 11  0.0000000  0  8G09G28G17G10G02G04G12G05
 119190651.866 7  92875903.86744  22681231.938                    22681240.918
 125807015.930 6  98031511.47743  23940289.938                    23940299.973
 117991250.145 7  91941295.555 7  22452980.766                    22452988.586
 111721280.803 8  87055666.40346  21259839.492                    21259847.816
 109240839.242 8  85122857.65146  20787824.188                    20787829.832
 108590041.187 8  84615783.92746  20663985.930                    20663993.449
 118067064.589 7  92000380.215 7  22467417.492                    22467424.746
 123358964.367 7  96123927.297 6  23474423.258                    23474434.074
 11  8 13  0 11 30.0000000  0  8G09G28G17G10G02G04G12G05
 119247982.110 7  92920576.71444  22692141.164                    22692151.133
 125905153.544 6  98107982.25543  23958964.422                    23958974.191
 118034552.402 7  91975037.553 7  22461220.406                    22461228.840
 111674168.271 8  87018955.36845  21250874.359                    21250882.504
 109214781.928 8  85102553.26446  20782865.742                    20782870.820
 108649101.289 8  84661804.79046  20675224.703                    20675232.348
 117982421.310 7  91934424.467 7  22451310.328                    22451318.008
 123254081.612 7  96042200.627 6  23454465.141                    23454474.863
 11  8 13  0 12  0.0000000  0  8G09G28G17G10G02G04G12G05
 119305726.876 7  92965572.59744  22703129.492                    22703139.094
 126003518.184 6  98184629.90942  23977682.969                    23977692.855
 118077967.962 7  92008867.843 7  22469482.227                    22469490.625
 111627581.357 8  86982653.90345  21242009.164                    21242017.074
 109189082.369 8  85082527.64246  20777975.227                    20777980.793
 108708476.647 8  84708071.30846  20686523.703                    20686531.258
 117898022.229 7  91868659.000 7  22435249.352                    22435257.098
 123149272.395 7  95960531.246 6  23434520.711                    23434529.934
 11  8 13  0 12 30.0000000  0  8G09G28G17G10G02G04G12G05
 119363883.472 7  93010889.33944  22714196.703                    22714205.926
 126102108.360 6  98261453.26042  23996443.953                    23996454.004
 118121497.849 7  92042787.228 7  22477766.063                    22477773.703
 111581522.901 8  86946764.23445  21233244.336                    21233252.473
 109163740.354 8  85062780.63246  20773153.063                    20773158.367
 108768165.016 8  84754581.73246  20697881.539                    20697889.488
 117813869.325 7  91803085.362 7  22419235.445                    22419243.520
 123044540.314 7  95878921.977 6  23414590.289                    23414599.926
 11  8 13  0 13  0.0000000  0  8G09G28G17G10G02G04G12G05
 119422448.358 7  93056524.24544  22725341.352                    22725350.480
 126200922.028 5  98338450.84242  24015247.375                    24015257.992
 118165142.361 7  92076795.921 7  22486071.195                    22486078.852
 111535994.454 8  86911287.55846  21224580.586                    21224588.449
 109138754.910 8  85043311.48146  20768398.445                    20768403.469
 108828163.920 8  84801334.11946  20709299.305                    20709307.160
 117729965.277 7  91737705.604 7  22403269.453                    22403276.832
 122939887.727 7  95797374.661 6  23394675.914                    23394685.539
 11  8 13  0 13 30.0000000  0  8G09G28G17G10G02G04G12G05
 119481418.874 6  93102475.22344  22736562.867                    22736572.152
 126299957.299 6  98415621.05342  24034093.609                    24034103.289
 118208901.670 7  92110894.080 7  22494398.266                    22494405.805
 111490998.512 8  86876225.81145  21216018.188                    21216025.879
 109114125.930 8  85024120.08246  20763711.672                    20763717.266
 108888471.020 8  84848326.65346  20720775.156                    20720783.211
 117646312.988 7  91672522.052 7  22387350.688                    22387358.359
 122835317.935 7  95715891.840 6  23374776.438                    23374786.250
 11  8 13  0 14  0.0000000  0  8G09G28G17G10G02G04G12G05
 119540791.622 7  93148739.64244  22747861.219                    22747870.680
 126399212.092 6  98492962.39742  24052980.734                    24052991.367
 118252776.816 7  92145082.496 7  22502747.359                    22502755.109
 111446537.441 8  86841580.85646  21207557.523                    21207565.184
 109089852.329 8  85005205.59446  20759092.102                    20759097.605
 108949083.670 8  84895557.27446  20732309.469                    20732317.035
 117562914.480 7  91607536.235 7  22371480.438                    22371488.047
 122730833.637 7  95634475.654 6  23354893.133                    23354903.535
 11  8 13  0 14 30.0000000  0  8G09G28G17G10G02G04G12G05
 119600563.866 7  93195315.33944  22759235.516                    22759245.711
 126498685.079 6  98570473.70142  24071909.953                    24071919.836
 118296768.287 7  92179361.578 7  22511118.852                    22511126.020
 111402613.984 8  86807354.81946  21199199.352                    21199206.816
 109065934.458 8  84986568.30346  20754541.031                    20754546.348
 109010000.172 8  84943024.67146  20743901.086                    20743909.055
 117479773.019 7  91542750.699 7  22355659.352                    22355666.563
 122626437.922 7  95553128.494 6  23335027.523                    23335037.379
 11  8 13  0 15  0.0000000  0  8G09G28G17G10G02G04G12G05
 119660731.674 7  93242199.30644  22770685.250                    22770694.652
 126598373.677 6  98648153.04842  24090880.625                    24090889.859
 118340876.729 7  92213731.798 7  22519512.758                    22519520.137
 111359229.671 8  86773548.90345  21190943.180                    21190951.047
 109042370.934 8  84968207.11746  20750057.023                    20750062.391
 109071217.412 8  84990726.41346  20755550.648                    20755558.527
 117396890.906 7  91478167.248 7  22339887.625                    22339895.012
 122522133.234 7  95471852.266 6  23315178.930                    23315188.777
 11  8 13  0 15 30.0000000  0  8G09G28G17G10G02G04G12G05
 119721292.445 7  93289389.43044  22782209.805                    22782218.457
 126698276.243 6  98725999.08143  24109891.508                    24109900.898
 118385102.386 7  92248193.327 7  22527928.477                    22527935.711
 111316386.932 8  86740164.98646  21182790.891                    21182798.602
 109019161.649 8  84950121.96846  20745640.570                    20745645.648
 109132733.489 8  85038661.00646  20767256.711                    20767264.605
 117314270.781 7  91413787.948 7  22324165.070                    22324172.645
 122417923.047 7  95390649.684 6  23295347.758                    23295358.035
 11  8 13  0 16  0.0000000  0  8G09G28G17G10G02G04G12G05
 119782243.002 7  93336883.31144  22793807.961                    22793817.152
 126798390.807 6  98804010.34143  24128942.688                    24128952.070
 118429446.331 7  92282747.032 7  22536366.625                    22536373.773
 111274088.188 8  86707204.97045  21174741.727                    21174749.047
 108996306.083 8  84932312.45346  20741291.234                    20741296.395
 109194546.063 8  85086826.64346  20779019.422                    20779026.820
 117231915.140 7  91349614.741 7  22308493.523                    22308500.977
 122313810.313 7  95309523.028 6  23275535.500                    23275546.145
 11  8 13  0 16 30.0000000  0  8G09G28G17G10G02G04G12G05
 119843580.098 7  93384678.36344  22805480.219                    22805489.648
 126898715.402 6  98882185.24743  24148034.633                    24148043.996
 118473908.750 7  92317393.058 7  22544827.500                    22544835.566
 111232335.111 8  86674670.13746  21166796.078                    21166804.051
 108973803.364 8  84914777.88046  20737008.992                    20737014.160
 109256652.550 8  85135221.28946  20790837.758                    20790845.875
 117149826.456 7  91285649.562 7  22292872.344                    22292880.180
 122209797.697 7  95228474.344 6  23255742.477                    23255752.746
 11  8 13  0 17  0.0000000  0  9G09G30G28G17G10G02G04G12G05
 119905300.602 7  93432772.21944  22817225.750                    22817234.781
 128084105.96615                  24373600.398
 126999247.664 6  98960521.99143  24167164.773                    24167174.789
 118518490.249 7  92352131.877 7  22553311.289                    22553318.758
 111191129.901 8  86642562.21846  21158954.883                    21158962.871
 108951652.688 8  84897517.61946  20732793.789                    20732799.477
 109319050.351 8  85183842.94146  20802711.813                    20802719.766
 117068007.338 7  91221894.412 7  22277303.188                    22277309.766
 122105888.119 7  95147505.965 7  23235969.320                    23235979.457
 11  8 13  0 17 30.0000000  0  9G09G30G28G17G10G02G04G12G05
 119967401.309 7  93481162.34044  22829043.203                    22829052.520
 127977402.455 5                  24353296.078
 127099986.088 6  99039019.37043  24186335.617                    24186345.367
 118563191.223 7  92386963.785 7  22561817.047                    22561825.086
 111150474.880 8  86610883.02246  21151218.508                    21151226.590
 108929853.651 8  84880531.36146  20728645.570                    20728650.973
 109381737.577 8  85232690.10946  20814640.805                    20814648.406
 116986460.389 7  91158351.341 7  22261785.156                    22261792.742
 122002084.621 7  95066620.243 7  23216216.813                    23216226.672
 11  8 13  0 18  0.0000000  0  9G09G30G28G17G10G02G04G12G05
 120029879.000 7  93529846.19344  22840932.273                    22840941.488
 127870841.022 5                  24333017.305
 127200928.646 6  99117675.84343  24205544.234                    24205553.793
 118608012.577 7  92421889.486 7  22570346.820                    22570354.434
 111110372.004 8  86579634.05646  21143587.125                    21143594.984
 108908405.718 8  84863818.69146  20724564.109                    20724569.758
 109444711.542 8  85281760.72146  20826624.219                    20826631.816
 116905188.186 7  91095022.362 7  22246319.383                    22246326.449
 121898390.082 7  94985819.405 7  23196483.680                    23196493.770
 11  8 13  0 18 30.0000000  0  9G09G30G28G17G10G02G04G12G05
 120092730.401 7  93578821.24944  22852892.547                    22852901.320
 127764424.188 5                  24312766.828
 127302073.128 6  99196489.64643  24224790.594                    24224801.352
 118652954.888 7  92456909.435 7  22578898.813                    22578906.570
 111070823.363 8  86548816.95946  21136061.391                    21136069.477
 108887308.218 8  84847379.09646  20720549.500                    20720554.684
 109507970.038 8  85331053.02946  20838661.953                    20838669.605
 116824193.578 7  91031909.689 7  22230906.891                    22230913.871
 121794807.495 7  94905105.790 7  23176772.602                    23176782.438
 11  8 13  0 19  0.0000000  0  9G09G30G28G17G10G02G04G12G05
 120155952.272 7  93628084.98344  22864923.156                    22864932.469
 127658154.847 6  99473938.83652  24292544.250                    24292552.711
 127403417.583 6  99275459.21643  24244075.891                    24244086.371
 118698018.791 7  92492024.137 7  22587474.594                    22587481.840
 111031830.855 8  86518433.22446  21128641.031                    21128648.902
 108866560.455 8  84831212.02146  20716601.445                    20716606.598
 109571510.865 8  85380565.34546  20850753.227                    20850760.719
 116743479.026 8  90969015.251 7  22215546.953                    22215554.703
 121691339.874 7  94824481.759 7  23157083.242                    23157093.598
 11  8 13  0 19 30.0000000  0  9G09G30G28G17G10G02G04G12G05
 120219541.191 7  93677634.72044  22877023.984                    22877032.871
 127552035.325 6  99391248.37042  24272351.289                    24272358.566
 127504959.894 5  99354582.93043  24263398.828                    24263408.949
 118743204.811 7  92527233.985 7  22596072.953                    22596080.992
 110993396.392 8  86488484.32646  21121327.531                    21121334.762
 108846161.659 8  84815316.86146  20712719.453                    20712725.051
 109635331.219 8  85430295.48446  20862898.242                    20862905.734
 116663046.856 7  90906340.863 7  22200241.125                    22200248.570
 121587989.953 7  94743949.485 7  23137416.320                    23137426.836
 11  8 13  0 20  0.0000000  0  9G09G30G28G17G10G02G04G12G05
 120283494.636 7  93727468.47444  22889193.828                    22889203.891
 127446068.858 6  99308677.16442  24252185.172                    24252194.578
 127606698.576 5  99433859.75343  24282759.109                    24282768.742
 118788513.583 7  92562539.487 7  22604694.820                    22604702.934
 110955522.611 8  86458972.31646  21114120.063                    21114127.859
 108826111.820 8  84799693.62546  20708904.188                    20708909.730
 109699429.602 8  85480242.27146  20875095.703                    20875102.902
 116582900.093 7  90843888.885 7  22184989.945                    22184997.695
 121484761.621 7  94663511.919 7  23117772.672                    23117781.887
 11  8 13  0 20 30.0000000  0  9G09G30G28G17G10G02G04G12G05
 120347808.924 7  93777583.41544  22901432.422                    22901441.773
 127340257.710 6  99226227.02443  24232050.070                    24232060.230
 127708631.117 5  99513287.58942  24302156.766                    24302165.961
 118833945.568 7  92597941.006 7  22613340.305                    22613347.922
 110918211.100 8  86429898.44446  21107020.070                    21107027.477
 108806409.803 8  84784341.41746  20705155.453                    20705160.418
 109763802.960 8  85530403.31346  20887345.578                    20887353.113
 116503041.193 7  90781661.181 7  22169793.227                    22169800.848
 121381656.691 7  94583170.482 6  23098152.258                    23098161.449
 11  8 13  0 21  0.0000000  0  8G09G30G17G10G02G04G12G05
 120412480.953 7  93827977.13144  22913738.648                    22913748.777
 127234604.920 6  99143900.28743  24211944.570                    24211954.891
 118879501.614 7  92633439.216 7  22622009.000                    22622017.457
 110881463.893 8  86401264.28346  21100027.359                    21100034.723
 108787055.017 8  84769259.77846  20701471.695                    20701477.367
 109828449.274 8  85580777.04846  20899647.094                    20899655.012
 116423472.871 8  90719659.922 7  22154651.906                    22154659.250
 121278678.791 7  94502928.073 7  23078557.039                    23078565.820
 11  8 13  0 21 30.0000000  0  8G09G30G17G10G02G04G12G05
 120477507.619 7  93878647.19844  22926112.953                    22926122.602
 127129113.162 6  99061698.99143  24191871.352                    24191880.703
 118925182.368 7  92669034.558 7  22630702.328                    22630709.801
 110845283.093 8  86373071.48346  21093142.516                    21093150.094
 108768046.934 8  84754448.30146  20697854.719                    20697860.109
 109893366.281 8  85631361.71846  20912000.531                    20912008.195
 116344197.845 8  90657887.186 7  22139566.570                    22139573.398
 121175830.996 7  94422787.042 7  23058984.469                    23058994.402
 11  8 13  0 22  0.0000000  0  8G09G30G17G10G02G04G12G05
 120542885.121 7  93929590.64844  22938554.094                    22938563.680
 127023784.763 6  98979624.94243  24171827.445                    24171836.203
 118970987.823 7  92704727.109 7  22639418.898                    22639426.434
 110809670.057 8  86345321.09746  21086365.359                    21086372.953
 108749384.172 8  84739905.90746  20694303.242                    20694308.859
 109958551.249 8  85682155.18946  20924404.797                    20924412.664
 116265218.355 7  90596344.773 7  22124537.313                    22124544.539
 121073115.680 7  94342749.230 6  23039438.781                    23039448.031
 11  8 13  0 22 30.0000000  0  8G09G30G17G10G02G04G12G05
 120608610.431 7  93980805.08544  22951061.766                    22951071.215
 126918622.407 6  98897680.26143  24151815.227                    24151824.570
 119016918.651 7  92740517.314 7  22648158.820                    22648167.102
 110774626.505 8  86318014.45546  21079696.836                    21079704.516
 108731066.295 8  84725632.25846  20690817.422                    20690822.938
 110024001.700 8  85733155.53446  20936859.727                    20936867.730
 116186536.643 8  90535034.384 7  22109564.281                    22109571.754
 120970535.973 7  94262817.093 6  23019918.813                    23019927.559
 11  8 13  0 23  0.0000000  0  8G09G30G17G10G02G04G12G05
 120674680.567 7  94032288.23244  22963634.766                    22963643.500
 126813629.197 6  98815867.40443  24131836.086                    24131845.023
 119062975.839 7  92776405.996 7  22656923.273                    22656931.332
 110740154.902 8  86291153.48646  21073136.898                    21073144.750
 108713092.900 8  84711627.03246  20687396.992                    20687402.594
 110089715.690 8  85784361.21246  20949364.695                    20949372.395
 116108155.632 7  90473958.309 7  22094648.391                    22094656.488
 120868095.028 7  94182993.091 7  23000424.305                    23000434.000
 11  8 13  0 23 30.0000000  0  8G09G30G17G10G02G04G12G05
 120741091.525 7  94084036.93644  22976272.789                    22976281.617
 126708807.225 6  98734187.97243  24111888.742                    24111897.898
 119109159.626 7  92812393.340 7  22665712.242                    22665719.570
 110706256.314 8  86264739.03946  21066686.227                    21066693.910
 108695462.538 8  84697889.10446  20684042.484                    20684047.598
 110155690.353 8  85835770.03046  20961918.656                    20961926.844
 116030077.544 7  90413118.288 7  22079791.211                    22079798.504
 120765795.220 7  94103279.068 7  22980957.070                    22980967.566
 11  8 13  0 24  0.0000000  0  8G09G30G17G10G02G04G12G05
 120807840.577 7  94136049.05944  22988973.742                    22988983.410
 126604159.957 6  98652644.67342  24091975.477                    24091984.453
 119155470.751 7  92848479.906 7  22674524.898                    22674532.438
 110672933.349 8  86238773.10746  21060345.211                    21060352.719
 108678175.182 8  84684418.46446  20680752.656                    20680758.168
 110221924.039 8  85887380.69046  20974523.336                    20974531.109
 115952305.461 7  90352516.687 7  22064991.805                    22064998.922
 120663640.353 7  94023677.992 7  22961517.781                    22961528.055
 11  8 13  0 24 30.0000000  0  8G09G30G17G10G02G04G12G05
 120874924.437 7  94188322.11044  23001739.828                    23001749.043
 126499690.039 5  98571239.57142  24072095.039                    24072104.789
 119201910.151 7  92884666.443 6  22683361.930                    22683369.277
 110640187.746 8  86213257.08146  21054113.805                    21054121.668
 108661229.929 8  84671214.37846  20677527.930                    20677533.555
 110288414.356 8  85939191.31746  20987176.094                    20987183.504
 115874841.965 8  90292155.571 7  22050250.719                    22050258.680
 120561633.198 7  93944192.002 7  22942106.625                    22942116.305
 11  8 13  0 25  0.0000000  0  8G09G30G17G10G02G04G12G05
 120942339.298 7  94240853.15244  23014568.641                    23014578.324
 126395399.751 6  98489974.45643  24052249.328                    24052258.934
 119248477.835 7  92920952.943 7  22692223.539                    22692231.246
 110608020.473 8  86188191.69146  21047992.563                    21048000.527
 108644625.669 8  84658276.00646  20674368.336                    20674373.926
 110355158.500 8  85991199.73146  20999876.992                    20999884.836
 115797689.140 7  90232036.512 7  22035568.719                    22035576.316
 120459775.978 7  93864822.854 7  22922723.383                    22922733.453
 11  8 13  0 25 30.0000000  0  8G09G30G17G10G02G04G12G05
 121010082.441 7  94293640.06644  23027459.641                    23027468.656
 126291292.407 6  98408851.88742  24032438.477                    24032447.398
 119295174.690 7  92957340.092 7  22701109.789                    22701117.434
 110576433.953 7  86163578.84446  21041981.906                    21041989.512
 108628362.116 8  84645603.11346  20671273.563                    20671278.805
 110422154.578 8  86043404.45346  21012625.438                    21012633.477
 115720850.103 7  90172161.976 7  22020947.008                    22020954.145
 120358072.523 7  93785573.506 7  22903370.508                    22903379.008
 11  8 13  0 26  0.0000000  0  8G09G30G17G10G02G04G12G05
 121078150.074 7  94346679.72144  23040412.422                    23040422.059
 126187370.643 6  98327873.85442  24012662.648                    24012671.695
 119342001.351 7  92993828.361 7  22710020.328                    22710027.883
 110545429.993 8  86139419.94546  21036081.922                    21036089.402
 108612438.328 8  84633194.97746  20668243.586                    20668248.555
 110489400.229 8  86095803.64346  21025422.094                    21025430.016
 115644327.305 8  90112533.864 7  22006385.016                    22006392.340
 120256525.819 7  93706446.314 7  22884045.867                    22884055.672
 11  8 13  0 26 30.0000000  0  8G09G30G17G10G02G04G12G05
 121146539.044 7  94399969.74444  23053426.375                    23053436.059
 126083637.171 6  98247042.59243  23992923.453                    23992931.508
 119388958.512 7  93030418.358 7  22718956.211                    22718963.934
 110515010.047 8  86115716.11146  21030293.328                    21030300.625
 108596853.641 8  84621051.07946  20665277.711                    20665282.664
 110556893.052 8  86148395.44346  21038265.352                    21038273.691
 115568123.378 8  90053154.206 7  21991884.086                    21991891.699
 120155138.782 7  93627443.541 7  22864752.938                    22864762.723
 11  8 13  0 27  0.0000000  0  8G09G30G17G10G02G04G12G05
 121215246.447 7  94453507.88744  23066501.211                    23066510.742
 125980094.934 6  98166360.32943  23973220.086                    23973228.047
 119436046.608 7  93067110.357 7  22727916.563                    22727924.285
 110485175.858 8  86092468.72646  21024615.531                    21024623.910
 108581607.399 8  84609170.90246  20662376.281                    20662381.863
 110624631.064 8  86201178.30246  21051155.945                    21051163.809
 115492240.922 7  89994025.059 7  21977444.047                    21977451.207
 120053914.398 7  93548567.515 7  22845489.813                    22845499.754
 11  8 13  0 27 30.0000000  0  8G09G30G17G10G02G04G12G05
 121284268.138 7  94507290.95544  23079635.055                    23079644.859
 125876745.944 6  98085828.63843  23953553.031                    23953561.469
 119483266.018 7  93103904.683 7  22736902.227                    22736910.297
 110455928.462 7  86069678.56646  21019050.234                    21019058.207
 108566698.214 8  84597553.37546  20659539.484                    20659544.766
 110692611.163 8  86254149.79946  21064092.000                    21064100.082
 115416682.207 8  89935148.160 7  21963065.531                    21963073.109
 119952855.307 7  93469820.282 7  22826259.055                    22826268.859
 11  8 13  0 28  0.0000000  0  8G09G30G17G10G02G04G12G05
 121353601.249 7  94561316.65944  23092828.844                    23092838.910
 125773593.808 6  98005450.38943  23933923.695                    23933932.793
 119530617.747 7  93140802.108 7  22745913.055                    22745921.336
 110427269.999 8  86047347.32646  21013596.648                    21013604.270
 108552125.722 8  84586198.20846  20656766.180                    20656771.461
 110760831.730 8  86307308.67246  21077073.789                    21077081.371
 115341450.479 8  89876526.052 7  21948749.586                    21948756.941
 119851964.433 7  93391204.108 7  22807060.758                    22807069.961
 11  8 13  0 28 30.0000000  0  8G09G30G17G10G02G04G12G05
 121423242.356 6  94615582.37744  23106081.234                    23106091.336
 125670640.922 6  97925227.41643  23914331.992                    23914341.637
 119578102.212 7  93177802.955 7  22754949.055                    22754956.961
 110399201.868 8  86025476.08746  21008255.867                    21008263.113
 108537888.752 8  84575104.47846  20654056.984                    20654062.336
 110829290.334 8  86360653.03146  21090101.078                    21090109.039
 115266547.456 7  89818160.074 7  21934496.445                    21934503.484
 119751244.829 7  93312721.407 7  22787894.047                    22787903.297
 11  8 13  0 29  0.0000000  0  8G09G30G17G10G02G04G12G05
 121493187.998 7  94670085.39244  23119391.938                    23119401.500
 125567890.157 6  97845161.94743  23894779.445                    23894789.102
 119625719.779 7  93214907.513 7  22764010.039                    22764018.453
 110371725.687 8  86004066.09646  21003027.352                    21003034.438
 108523986.641 8  84564271.68546  20651411.617                    20651417.023
 110897984.512 8  86414180.96046  21103173.297                    21103180.879
 115191975.852 8  89760052.332 7  21920305.648                    21920312.305
 119650699.793 7  93234374.702 7  22768761.055                    22768770.082
 11  8 13  0 29 30.0000000  0  8G09G30G17G10G02G04G12G05
 121563434.681 7  94724822.93844  23132759.305                    23132769.184
 125465343.961 6  97765255.84743  23875265.656                    23875274.906
 119673471.235 7  93252116.398 6  22773097.539                    22773104.500
 110344842.298 8  85983118.03046  20997911.211                    20997918.758
 108510418.409 8  84553699.04146  20648829.430                    20648834.797
 110966911.791 8  86467890.52446  21116289.375                    21116297.414
 115117738.131 7  89702204.777 7  21906178.258                    21906185.824
 119550332.049 7  93156166.170 7  22749661.719                    22749670.633
 11  8 13  0 30  0.0000000  0  8G09G30G17G10G02G04G12G05
 121633979.776 7  94779793.13944  23146183.414                    23146193.453
 125363005.802 6  97685511.90843  23855790.539                    23855800.348
 119721357.440 7  93289430.321 6  22782209.984                    22782216.750
 110318553.974 8  85962633.64046  20992908.633                    20992915.887
 108497184.002 8  84543386.52246  20646310.852                    20646316.746
 111036070.695 8  86521780.58046  21129449.742                    21129457.727
 115043837.576 8  89644619.939 7  21892115.695                    21892122.543
 119450145.101 7  93078098.527 7  22730596.047                    22730605.500
 11  8 13  0 30 30.0000000  0  8G09G30G17G10G02G04G12G05
 121704818.686 7  94834992.23944  23159663.836                    23159673.387
 125260877.561 6  97605931.53643  23836356.578                    23836365.480
 119769378.269 7  93326849.104 6  22791347.469                    22791354.578
 110292861.288 8  85942613.39346  20988019.641                    20988026.914
 108484281.146 8  84533332.36246  20643855.703                    20643861.066
 111105457.946 8  86575848.56746  21142653.977                    21142661.574
 114970275.837 7  89587299.117 7  21878117.125                    21878124.047
 119350141.104 7  93000173.434 7  22711565.719                    22711575.473
 11  8 13  0 31  0.0000000  0  8G09G30G17G10G02G04G12G05
 121775949.205 7  94890418.56244  23173199.664                    23173209.152
 125158963.137 6  97526517.74143  23816962.781                    23816972.219
 119817535.174 7  93364373.924 7  22800511.742                    22800519.258
 110267766.971 8  85923059.40846  20983243.898                    20983251.844
 108471710.270 8  84523536.87546  20641463.414                    20641468.938
 111175072.070 8  86630093.33746  21155901.328                    21155909.148
 114897056.279 8  89530244.924 7  21864184.273                    21864191.215
 119250323.661 7  92922393.700 7  22692570.945                    22692580.605
 11  8 13  0 31 30.0000000  0  8G09G30G17G10G02G04G12G05
 121847367.623 7  94946069.20244  23186790.148                    23186800.012
 125057264.993 6  97447272.45343  23797610.164                    23797620.043
 119865828.516 7  93402005.041 7  22809701.742                    22809709.199
 110243272.137 8  85903972.55846  20978582.883                    20978590.590
 108459470.107 8  84513999.10446  20639134.211                    20639139.453
 111244910.885 8  86684513.18746  21169191.516                    21169198.746
 114824181.380 7  89473459.297 7  21850316.539                    21850323.621
 119150695.579 7  92844761.511 7  22673612.688                    22673621.656
 11  8 13  0 32  0.0000000  0  8G09G30G17G10G02G04G12G05
 121919070.406 7  95001941.44644  23200435.359                    23200444.422
 124955785.437 6  97368197.52843  23778299.750                    23778308.652
 119914258.569 7  93439742.686 7  22818917.727                    22818925.422
 110219377.386 8  85885353.29146  20974035.711                    20974043.574
 108447559.771 8  84504718.33146  20636867.898                    20636873.082
 111314971.352 8  86739105.74946  21182523.367                    21182530.656
 114751653.169 8  89416943.809 7  21836515.000                    21836521.754
 119051259.739 7  92767279.132 7  22654690.898                    22654699.852
 11  8 13  0 32 30.0000000  0  8G09G30G17G10G02G04G12G05
 121991054.574 7  95058032.92544  23214132.969                    23214142.426
 124854528.043 6  97289295.73243  23759031.039                    23759040.207
 119962826.594 7  93477587.865 7  22828160.227                    22828167.844
 110196084.935 8  85867203.34446  20969603.625                    20969611.199
 108435978.485 8  84495693.96446  20634664.203                    20634669.188
 111385252.000 8  86793869.89746  21195897.234                    21195905.242
 114679475.024 8  89360701.103 7  21822779.547                    21822787.137
 118952019.673 7  92689949.292 7  22635805.883                    22635815.188
 11  8 13  0 33  0.0000000  0  8G09G30G17G10G02G04G12G05
 122063316.647 7  95114340.98044  23227883.891                    23227893.871
 124753495.654 7  97210569.23043  23739805.477                    23739813.887
 120011533.098 7  93515540.972 7  22837428.305                    22837436.418
 110173396.207 8  85849523.84146  20965286.211                    20965293.031
 108424725.765 8  84486925.62146  20632522.883                    20632528.188
 111455750.834 8  86848804.04546  21209312.680                    21209320.266
 114607649.515 7  89304733.176 7  21809111.992                    21809118.848
 118852978.554 7  92612774.469 7  22616959.242                    22616967.695
 11  8 13  0 33 30.0000000  0  8G09G30G17G10G02G04G12G05
 122135852.932 6  95170862.69144  23241686.906                    23241697.453
 124652690.529 6  97132019.81243  23720622.508                    23720631.371
 120060378.240 7  93553602.106 7  22846723.422                    22846731.289
 110151311.861 8  85832315.28746  20961083.547                    20961090.594
 108413800.221 8  84478412.22646  20630443.758                    20630448.930
 111526464.892 7  86903905.91146  21222768.977                    21222776.922
 114536178.483 7  89249041.473 7  21795511.078                    21795518.492
 118754138.627 7  92535756.440 7  22598150.195                    22598159.438
 11  8 13  0 34  0.0000000  0  8G09G30G17G10G02G04G12G05
 122208660.112 7  95227595.49044  23255541.578                    23255552.207
 124552115.662 7  97053649.80743  23701483.953                    23701492.445
 120109362.706 7  93591771.828 7  22856044.719                    22856052.090
 110129833.536 8  85815578.96346  20956996.320                    20957004.039
 108403201.010 8  84470153.11746  20628426.406                    20628431.941
 111597392.070 8  86959173.83046  21236265.820                    21236273.789
 114465064.562 8  89193628.046 7  21781978.672                    21781985.828
 118655502.887 7  92458897.516 7  22579380.555                    22579389.289
 11  8 13  0 34 30.0000000  0  9G09G30G25G17G10G02G04G12G05
 122281734.388 7  95284536.40344  23269448.008                    23269457.965
 124451773.594 6  96975461.19943  23682389.438                    23682398.012
 129646257.14816 101023142.18216  24670870.922
 120158486.751 7  93630050.281 7  22865392.633                    22865400.344
 110108961.824 8  85799315.30446  20953024.711                    20953032.355
 108392926.795 8  84462147.25446  20626471.391                    20626476.641
 111668529.953 8  87014605.93445  21249803.414                    21249810.973
 114394310.216 8  89138494.791 7  21768514.516                    21768522.250
 118557074.234 7  92382199.948 7  22560650.102                    22560658.945
 11  8 13  0 35  0.0000000  0  9G09G30G25G17G10G02G04G12G05
 122355072.104 7  95341682.59144  23283403.695                    23283413.465
 124351666.694 6  96897455.84243  23663339.445                    23663348.805
 129542894.004 6 100942599.485 6  24651200.742                    24651211.953
 120207750.571 7  93668437.662 7  22874767.430                    22874775.168
 110088697.688 8  85783525.09146  20949168.242                    20949175.957
 108382976.310 8  84454393.64346  20624577.883                    20624583.449
 111739875.897 8  87070200.16745  21263379.836                    21263387.594
 114323917.364 7  89083643.245 7  21755119.492                    21755126.648
 118458855.569 7  92305666.000 7  22541959.133                    22541968.426
 11  8 13  0 35 30.0000000  0  9G09G30G25G17G10G02G04G12G05
 122428670.043 6  95399031.53644  23297408.977                    23297419.090
 124251797.835 6  96819636.01143  23644335.320                    23644344.359
 129439634.248 6 100862137.384 6  24631550.797                    24631562.570
 120257154.809 7  93706934.432 7  22884168.883                    22884176.656
 110069042.332 8  85768209.24346  20945427.867                    20945435.426
 108373348.601 8  84446891.54246  20622745.945                    20622751.035
 111811427.583 8  87125954.70645  21276995.633                    21277003.375
 114253888.465 8  89029075.274 7  21741793.352                    21741800.531
 118360849.183 7  92229297.472 7  22523309.070                    22523318.188
 11  8 13  0 36  0.0000000  0  9G09G30G25G17G10G02G04G12G05
 122502525.210 7  95456580.94344  23311462.898                    23311473.313
 124152170.358 6  96742004.25643  23625376.266                    23625385.480
 129336481.176 6 100781758.394 6  24611922.391                    24611933.332
 120306700.658 7  93745541.559 7  22893597.188                    22893604.809
 110049997.381 8  85753369.03246  20941803.891                    20941811.809
 108364043.354 8  84439640.71246  20620975.023                    20620980.086
 111883183.398 8  87181868.30945  21290650.500                    21290657.988
 114184226.819 8  88974793.478 7  21728537.133                    21728544.184
 118263059.025 7  92153097.406 7  22504701.063                    22504709.344
 11  8 13  0 36 30.0000000  0  9G09G30G25G17G10G02G04G12G05
 122576634.249 6  95514328.15644  23325565.914                    23325576.109
 124052787.349 6  96664563.02943  23606464.867                    23606473.477
 129233437.174 6 100701464.448 6  24592313.031                    24592325.012
 120356389.016 7  93784259.759 7  22903052.203                    22903060.238
 110031564.578 8  85739005.82346  20938295.883                    20938304.012
 108355059.913 8  84432640.64846  20619265.445                    20619270.680
 111955141.387 8  87237939.44845  21304343.547                    21304351.492
 114114934.998 8  88920799.858 7  21715351.227                    21715358.734
 118165488.248 7  92077068.301 7  22486133.453                    22486142.465
 11  8 13  0 37  0.0000000  0  9G09G30G25G17G10G02G04G12G05
 122650993.874 7  95572270.67044  23339715.898                    23339725.629
 123953651.624 6  96587314.46343  23587599.688                    23587608.676
 129130504.659 6 100621257.367 6  24572725.492                    24572737.109
 120406220.198 7  93823089.230 7  22912534.648                    22912542.633
 110013744.876 8  85725120.35246  20934905.258                    20934912.801
 108346397.153 8  84425890.46046  20617616.898                    20617622.422
 112027299.238 8  87294166.32545  21318074.523                    21318082.676
 114046015.641 8  88867096.467 7  21702236.547                    21702243.551
 118068139.729 7  92001212.383 7  22467608.789                    22467617.313
 11  8 13  0 37 30.0000000  0  9G09G30G25G17G10G02G04G12G05
 122725600.646 7  95630405.73844  23353912.977                    23353923.246
 123854765.954 6  96510260.79843  23568781.719                    23568791.285
 129027686.480 6 100541139.305 6  24553159.852                    24553170.824
 120456194.660 7  93862030.379 6  22922044.414                    22922052.301
 109996539.032 8  85711713.22446  20931631.063                    20931638.875
 108338054.348 8  84419389.58546  20616029.531                    20616035.078
 112099654.935 8  87350547.37045  21331843.750                    21331851.375
 113977471.031 7  88813685.082 7  21689192.680                    21689200.262
 117971016.482 7  91925531.985 7  22449126.547                    22449135.543
 11  8 13  0 38  0.0000000  0  9G09G30G25G17G10G02G04G12G05
 122800450.834 7  95688730.48044  23368156.227                    23368166.957
 123756133.026 6  96433404.02143  23550013.320                    23550021.551
 128924984.676 6 100461111.979 6  24533616.602                    24533628.105
 120506313.346 7  93901083.891 7  22931582.000                    22931589.891
 109979947.973 8  85698785.13846  20928474.055                    20928481.406
 108330030.085 8  84413136.92446  20614502.211                    20614507.930
 112172205.845 8  87407080.53345  21345649.695                    21345657.512
 113909303.301 8  88760567.387 7  21676221.148                    21676228.387
 117874121.146 7  91850029.205 7  22430688.211                    22430696.977
 11  8 13  0 38 30.0000000  0  9G09G30G25G17G10G02G04G12G05
 122875541.329 7  95747242.45344  23382446.227                    23382456.438
 123657755.955 6  96356746.63843  23531291.984                    23531301.105
 128822401.962 6 100381177.449 6  24514095.664                    24514107.535
 120556576.613 7  93940250.069 6  22941146.547                    22941154.887
 109963972.891 8  85686337.03746  20925433.695                    20925441.816
 108322323.843 8  84407132.07546  20613036.047                    20613041.168
 112244950.248 8  87463764.44945  21359492.523                    21359500.082
 113841515.701 8  88707745.885 7  21663321.117                    21663328.637
 117777457.124 7  91774706.680 7  22412293.414                    22412302.504
 11  8 13  0 39  0.0000000  0  9G09G30G25G17G10G02G04G12G05
 122950868.715 6  95805939.02544  23396779.422                    23396789.895
 123559637.373 7  96280290.64344  23512621.242                    23512629.773
 128719940.754 6 100301337.592 6  24494597.766                    24494609.605
 120606984.852 7  93979529.253 6  22950739.195                    22950746.703
 109948614.599 8  85674369.55346  20922511.148                    20922519.188
 108314934.432 8  84401374.10246  20611630.117                    20611635.238
 112317885.693 8  87520597.23545  21373371.406                    21373379.215
 113774110.362 8  88655222.254 7  21650494.609                    21650501.664
 117681027.257 7  91699566.599 7  22393943.656                    22393952.223
 11  8 13  0 39 30.0000000  0  9G09G30G25G17G10G02G04G12G05
 123026429.124 7  95864817.16644  23411158.047                    23411168.684
 123461780.034 7  96204038.23544  23493999.414                    23494008.484
 128617603.507 6 100221594.338 6  24475123.938                    24475135.152
 120657539.083 7  94018922.151 6  22960359.711                    22960366.492
 109933874.015 8  85662883.38846  20919705.781                    20919714.000
 108307860.793 8  84395862.17546  20610284.117                    20610289.059
 112391009.995 8  87577577.18245  21387286.547                    21387294.770
 113707089.794 8  88602998.450 7  21637740.828                    21637747.625
 117584834.296 7  91624611.114 7  22375638.680                    22375646.918
 11  8 13  0 40  0.0000000  0  9G09G30G25G17G10G02G04G12G05
 123102219.663 7  95923874.62744  23425581.359                    23425592.094
 123364187.064 6  96127991.81244  23475427.875                    23475436.871
 128515392.882 6 100141949.758 6  24455673.953                    24455684.910
 120708239.793 7  94058429.184 6  22970007.922                    22970015.438
 109919752.433 8  85651879.57846  20917018.781                    20917026.758
 108301102.247 8  84390595.77746  20608997.703                    20609003.301
 112464321.258 8  87634702.79945  21401237.195                    21401245.270
 113640456.600 8  88551076.500 7  21625061.242                    21625068.289
 117488881.422 7  91549842.725 7  22357378.953                    22357387.813
 11  8 13  0 40 30.0000000  0  9G09G30G25G17G10G02G04G12G05
 123178236.909 7  95983108.74944  23440046.797                    23440057.504
 123266861.032 7  96052153.39844  23456907.445                    23456916.449
 128413311.284 6 100062405.722 6  24436247.617                    24436259.152
 120759086.870 7  94098050.264 7  22979683.078                    22979691.262
 109906250.627 8  85641358.71546  20914449.430                    20914457.266
 108294657.444 8  84385573.84846  20607771.258                    20607776.598
 112537817.234 8  87691972.36345  21415223.352                    21415231.230
 113574212.682 8  88499457.880 7  21612454.922                    21612462.371
 117393171.656 7  91475263.744 7  22339166.391                    22339174.922
 11  8 13  0 41  0.0000000  0  9G09G30G25G17G10G02G04G12G05
 123254477.025 6  96042516.55243  23454554.789                    23454565.266
 123169804.857 6  95976525.21143  23438438.164                    23438447.047
 128311361.133 6  99982964.093 6  24416848.047                    24416859.660
 120810081.511 7  94137786.344 6  22989387.320                    22989395.320
 109893369.426 8  85631321.42846  20911998.156                    20912006.531
 108288525.307 8  84380795.55946  20606604.570                    20606609.566
 112611495.460 8  87749383.92545  21429243.477                    21429251.758
 113508360.785 8  88448144.739 7  21599923.969                    21599930.930
 117297707.827 7  91400876.417 7  22320999.945                    22321008.887
 11  8 13  0 41 30.0000000  0  9G09G30G25G17G10G02G04G12G05
 123330936.979 7  96102095.67644  23469104.359                    23469115.207
 123073021.373 6  95901109.53843  23420021.031                    23420029.520
 128209545.023 6  99903626.902 6  24397472.406                    24397483.711
 120861224.206 7  94177637.778 6  22999119.617                    22999127.438
 109881109.846 8  85621768.54246  20909665.422                    20909673.582
 108282705.033 8  84376260.27746  20605496.984                    20605502.055
 112685354.126 8  87806936.09845  21443298.656                    21443306.406
 113442903.409 8  88397139.039 7  21587467.883                    21587475.176
 117202492.820 7  91326682.968 7  22302880.938                    22302889.621
 11  8 13  0 42  0.0000000  0  9G09G30G25G17G10G02G04G12G05
 123407613.092 7  96161843.21343  23483696.258                    23483706.230
 122976513.263 6  95825908.45143  23401655.688                    23401664.004
 128107865.326 6  99824395.982 6  24378123.414                    24378134.871
 120912515.349 7  94217604.855 7  23008880.063                    23008887.660
 109869472.298 8  85612700.34746  20907450.828                    20907458.547
 108277195.356 8  84371967.02346  20604448.484                    20604453.871
 112759390.705 8  87864626.90345  21457387.102                    21457395.117
 113377842.865 8  88346442.540 7  21575087.141                    21575094.090
 117107529.730 7  91252685.822 7  22284810.219                    22284819.445
 11  8 13  0 42 30.0000000  0  9G09G30G25G17G10G02G04G12G05
 123484502.153 6  96221756.70344  23498328.359                    23498337.637
 122880283.695 6  95750924.35643  23383344.063                    23383352.824
 128006324.871 6  99745273.601 6  24358800.711                    24358812.578
 120963955.644 7  94257688.169 7  23018668.664                    23018676.789
 109858457.724 8  85604117.57446  20905354.602                    20905362.672
 108271995.714 8  84367915.36146  20603459.102                    20603464.156
 112833603.528 8  87922455.03745  21471509.578                    21471517.023
 113313182.284 8  88296057.723 7  21562782.633                    21562790.082
 117012821.565 7  91178887.325 7  22266787.938                    22266796.648
 11  8 13  0 43  0.0000000  0  9G09G30G25G17G10G02G04G12G05
 123561600.509 7  96281833.28144  23512999.164                    23513009.207
 122784335.222 6  95676159.31143  23365085.602                    23365094.371
 127904925.885 6  99666261.464 6  24339505.203                    24339517.250
 121015545.683 7  94297888.178 7  23028485.523                    23028494.301
 109848066.825 8  85596020.79546  20903377.297                    20903385.113
 108267104.678 8  84364104.16846  20602528.031                    20602533.703
 112907990.236 8  87980418.67545  21485664.773                    21485672.832
 113248922.836 8  88245985.457 7  21550554.695                    21550561.766
 116918370.870 7  91105289.444 7  22248814.219                    22248823.418
 11  8 13  0 43 30.0000000  0  9G09G30G25G17G10G02G04G12G05
 123638904.913 7  96342070.40044  23527710.211                    23527719.609
 122688671.029 6  95601615.80644  23346880.656                    23346890.016
 127803671.296 6  99587361.837 6  24320236.617                    24320248.406
 121067286.127 7  94338205.356 7  23038332.008                    23038339.672
 109838300.294 8  85588410.52346  20901518.750                    20901526.613
 108262521.717 8  84360533.03946  20601656.508                    20601661.289
 112982548.904 8  88038516.30245  21499853.031                    21499860.730
 113185067.905 8  88196228.402 7  21538403.203                    21538410.109
 116824180.842 7  91031894.684 7  22230890.867                    22230899.609
 11  8 13  0 44  0.0000000  0  9G09G30G25G17G10G02G04G12G05
 123716412.058 7  96402465.55244  23542459.773                    23542469.199
 122593293.760 6  95527295.88444  23328731.703                    23328740.891
 127702563.487 6  99508576.497 6  24300997.477                    24301008.340
 121119177.381 7  94378640.038 7  23048206.664                    23048214.457
 109829158.952 8  85581287.41946  20899779.219                    20899787.082
 108258245.791 8  84357201.15946  20600842.523                    20600848.039
 113057277.278 8  88096746.16745  21514072.844                    21514081.500
 113121619.715 7  88146788.295 7  21526329.586                    21526336.301
 116730254.672 7  90958705.520 7  22213016.969                    22213025.438
 11  8 13  0 44 30.0000000  0  9G09G30G25G17G10G02G04G12G05
 123794118.196 7  96463015.72144  23557246.258                    23557256.680
 122498206.188 6  95453201.66444  23310637.094                    23310646.016
 127601604.836 6  99429907.410 6  24281785.695                    24281796.270
 121171219.947 7  94419192.622 6  23058109.891                    23058117.664
 109820643.557 8  85574652.05746  20898158.781                    20898166.984
 108254275.286 8  84354107.27246  20600086.977                    20600092.203
 113132173.297 8  88155106.66945  21528325.242                    21528333.488
 113058580.365 7  88097666.755 7  21514333.375                    21514340.160
 116636594.864 7  90885723.929 7  22195193.586                    22195203.203
 11  8 13  0 45  0.0000000  0  9G09G30G25G17G10G02G04G12G05
 123872020.188 7  96523718.50644  23572070.297                    23572080.516
 122403411.175 6  95379335.41244  23292598.211                    23292606.902
 127500798.038 6  99351356.643 6  24262602.625                    24262613.891
 121223414.206 7  94459863.436 6  23068041.539                    23068049.469
 109812754.707 8  85568504.91546  20896657.781                    20896665.348
 108250609.300 8  84351250.67546  20599389.117                    20599394.574
 113207234.672 8  88213596.03245  21542608.945                    21542617.520
 112995952.330 7  88048865.723 7  21502415.320                    21502422.953
 116543204.689 7  90812952.444 7  22177422.383                    22177431.000
 11  8 13  0 45 30.0000000  0  9G09G30G25G17G10G02G04G12G05
 123950114.319 7  96584571.00944  23586930.891                    23586941.320
 122308911.736 6  95305699.51044  23274615.414                    23274624.016
 127400145.661 6  99272926.228 6  24243448.875                    24243460.098
 121275761.038 7  94500653.090 6  23078003.047                    23078011.215
 109805492.889 8  85562846.37746  20895275.953                    20895283.504
 108247247.035 8  84348630.74246  20598749.695                    20598754.887
 113282459.749 8  88272212.93945  21556924.516                    21556932.359
 112933738.353 7  88000387.333 7  21490577.000                    21490584.121
 116450087.002 7  90740393.279 7  22159702.445                    22159711.613
 11  8 13  0 46  0.0000000  0  9G09G30G25G17G10G02G04G12G05
 124028397.375 7  96645570.72444  23601827.844                    23601838.262
 122214710.530 6  95232296.00344  23256689.859                    23256698.406
 127299650.307 6  99194618.175 6  24224325.539                    24224336.500
 121328260.775 7  94541561.911 6  23087994.063                    23088001.844
 109798858.719 8  85557676.88946  20894013.719                    20894021.301
 108244187.229 8  84346246.49446  20598167.375                    20598172.137
 113357846.038 8  88330955.47845  21571269.563                    21571277.762
 112871940.321 7  87952233.044 7  21478816.852                    21478824.297
 116357244.589 7  90668048.601 7  22142035.359                    22142043.707
 11  8 13  0 46 30.0000000  0  9G09G30G25G17G10G02G04G12G05
 124106865.630 7  96706714.69044  23616760.375                    23616770.695
 122120810.483 6  95159127.17444  23238820.516                    23238829.664
 127199314.435 6  99116434.430 6  24205232.195                    24205243.219
 121380914.380 7  94582590.663 6  23098013.570                    23098021.332
 109792852.779 8  85552996.96446  20892870.641                    20892878.266
 108241428.828 8  84344097.09846  20597642.227                    20597647.547
 113433391.619 8  88389822.13045  21585645.695                    21585653.461
 112810560.687 7  87904404.780 7  21467136.828                    21467143.781
 116264680.309 7  90595920.662 7  22124420.820                    22124429.125
 11  8 13  0 47  0.0000000  0  9G09G30G25G17G10G02G04G12G05
 124185515.944 6  96768000.55944  23631726.586                    23631737.055
 122027214.380 6  95086195.22644  23221009.844                    23221019.305
 127099140.785 6  99038377.044 6  24186169.969                    24186180.426
 121433722.138 7  94623739.503 6  23108062.414                    23108070.508
 109787475.528 7  85548806.91046  20891847.398                    20891855.176
 108238970.908 8  84342181.83846  20597174.336                    20597179.285
 113509094.563 8  88448811.41245  21600051.508                    21600059.352
 112749602.314 7  87856904.762 7  21455536.633                    21455543.660
 116172397.208 7  90524011.825 7  22106859.758                    22106868.348
 11  8 13  0 47 30.0000000  0  9G09G30G25G17G10G02G04G12G05
 124264345.071 6  96829425.69044  23646726.977                    23646737.871
 121933924.993 6  95013502.25144  23203257.281                    23203266.773
 126999131.708 6  98960447.958 6  24167137.930                    24167149.242
 121486684.382 7  94665008.743 6  23118140.688                    23118148.406
 109782727.397 8  85545107.07346  20890943.672                    20890951.332
 108236812.228 8  84340499.74946  20596763.547                    20596768.629
 113584952.571 8  88507921.51245  21614486.742                    21614494.645
 112689066.793 7  87809734.244 7  21444017.039                    21444024.324
 116080398.028 7  90452324.226 7  22089353.227                    22089361.980
 11  8 13  0 48  0.0000000  0  9G09G30G25G17G10G02G04G12G05
 124343349.503 7  96890987.49744  23661761.352                    23661772.539
 121840945.601 6  94941050.82644  23185564.500                    23185573.320
 126899290.240 6  98882649.457 6  24148138.781                    24148150.906
 121539801.844 7  94706398.921 6  23128248.820                    23128256.715
 109778609.078 7  85541897.99846  20890160.328                    20890167.566
 108234952.032 7  84339050.25346  20596410.031                    20596415.387
 113660963.814 8  88567151.03345  21628951.102                    21628959.086
 112628957.184 7  87762895.597 7  21432578.672                    21432585.703
 115988686.195 7  90380860.544 7  22071900.547                    22071909.055
 11  8 13  0 48 30.0000000  0  9G09G30G25G17G10G02G04G12G05
 124422525.706 6  96952683.08843  23676828.078                    23676839.238
 121748278.631 6  94868842.85243  23167929.570                    23167938.621
 126799618.639 6  98804983.342 6  24129172.281                    24129183.715
 121593075.219 7  94747910.583 6  23138387.000                    23138394.828
 109775120.834 8  85539179.89446  20889495.906                    20889504.117
 108233389.160 8  84337832.42646  20596112.273                    20596117.566
 113737126.327 8  88626498.41245  21643444.633                    21643452.859
 112569275.509 7  87716390.409 7  21421221.414                    21421228.793
 115897264.196 7  90309622.684 7  22054503.625                    22054512.250
 11  8 13  0 49  0.0000000  0  9G09G30G25G17G10G02G04G12G05
 124501870.326 6  97014509.94943  23691927.648                    23691937.250
 121655926.837 6  94796880.44944  23150355.969                    23150365.152
 126700119.465 6  98727451.561 6  24110238.234                    24110249.410
 121646504.798 7  94789543.979 7  23148553.805                    23148561.828
 109772262.988 8  85536952.99246  20888952.266                    20888960.160
 108232122.142 8  84336845.14146  20595871.227                    20595876.770
 113813437.792 8  88685961.85645  21657966.039                    21657974.383
 112510023.818 7  87670220.288 7  21409946.320                    21409953.695
 115806134.872 7  90238612.900 7  22037162.172                    22037170.914
 11  8 13  0 49 30.0000000  0  9G09G30G25G17G10G02G04G12G05
 124581379.989 6  97076465.41843  23707057.117                    23707067.797
 121563893.291 6  94725166.05544  23132843.344                    23132851.477
 126600795.479 6  98650056.263 6  24091337.750                    24091349.148
 121700091.305 7  94831299.668 6  23158750.867                    23158759.355
 109770036.013 8  85535217.69246  20888528.875                    20888536.355
 108231150.495 7  84336088.02646  20595686.250                    20595691.676
 113889896.345 8  88745539.91945  21672515.609                    21672523.488
 112451204.735 7  87624387.239 7  21398753.305                    21398760.297
 115715301.396 7  90167833.630 7  22019876.844                    22019885.680
 11  8 13  0 50  0.0000000  0  9G09G30G25G17G10G02G04G12G05
 124661051.158 7  97138546.70844  23722218.734                    23722229.543
 121472180.855 6  94653701.83444  23115390.883                    23115398.883
 126501649.314 6  98572799.563 6  24072470.414                    24072481.754
 121753835.149 7  94873177.954 6  23168978.516                    23168986.125
 109768440.323 7  85533974.30246  20888224.797                    20888232.574
 108230472.800 8  84335559.95746  20595557.484                    20595562.340
 113966500.227 8  88805231.22445  21687092.984                    21687101.055
 112392820.664 7  87578893.176 7  21387643.523                    21387650.625
 115624766.525 7  90097287.068 7  22002648.492                    22002657.672
 11  8 13  0 50 30.0000000  0  9G09G30G25G17G10G02G04G12G05
 124740880.475 7  97200751.26144  23737409.344                    23737420.855
 121380792.188 7  94582489.95044  23097999.555                    23098008.262
 126402683.424 7  98495683.275 6  24053637.961                    24053648.793
 121807736.741 7  94915179.166 6  23179235.844                    23179243.816
 109767476.253 7  85533223.09046  20888041.578                    20888049.066
 108230087.717 8  84335259.91446  20595484.094                    20595489.254
 114043246.987 8  88865033.87745  21701697.094                    21701705.176
 112334873.448 7  87533739.517 7  21376616.344                    21376623.078
 115534532.994 7  90026975.286 7  21985477.609                    21985486.086
 11  8 13  0 51  0.0000000  0  9G09G30G25G17G10G02G04G12G05
 124820864.661 7  97263076.53543  23752629.992                    23752641.789
 121289730.197 7  94511532.58644  23080671.164                    23080680.066
 126303900.476 7  98418709.556 6  24034839.938                    24034851.691
 121861796.760 7  94957303.856 6  23189522.922                    23189531.000
 109767143.965 8  85532964.16446  20887978.547                    20887985.785
 108229994.482 8  84335187.27246  20595466.391                    20595471.555
 114120134.960 8  88924946.54245  21716328.953                    21716337.078
 112277365.833 7  87488928.392 7  21365672.914                    21365680.387
 115444603.755 7  89956900.636 7  21968364.578                    21968372.906
 11  8 13  0 51 30.0000000  0  9G09G30G25G17G10G02G04G12G05
 124901000.166 7  97325519.64544  23767879.203                    23767890.422
 121198997.631 7  94440831.91144  23063405.352                    23063413.957
 126205303.092 7  98341880.448 6  24016077.680                    24016088.992
 121916015.740 7  94999552.421 6  23199840.500                    23199848.371
 109767443.409 7  85533197.50246  20888035.398                    20888042.875
 108230191.841 8  84335341.07446  20595503.867                    20595509.492
 114197161.943 8  88984967.53745  21730986.336                    21730994.668
 112220299.865 7  87444461.400 7  21354813.828                    21354820.945
 115354981.693 7  89887065.333 7  21951310.375                    21951319.195
 11  8 13  0 52  0.0000000  0  9G09G30G25G17G10G02G04G12G05
 124981283.766 7  97388078.15943  23783157.453                    23783167.492
 121108597.358 7  94370390.16144  23046202.906                    23046211.406
 126106893.909 7  98265197.962 6  23997350.898                    23997362.184
 121970394.073 7  95041925.136 6  23210187.883                    23210196.457
 109768375.257 7  85533923.62446  20888212.633                    20888219.789
 108230679.025 8  84335720.71946  20595596.602                    20595601.957
 114274326.210 8  89045095.50145  21745670.320                    21745678.395
 112163677.772 7  87400340.298 7  21344039.070                    21344046.160
 115265670.079 7  89817471.935 7  21934314.461                    21934323.055
 11  8 13  0 52 30.0000000  0  9G09G30G25G17G10G02G04G12G05
 125061711.909 7  97450749.33744  23798462.094                    23798473.242
 121018532.390 7  94300209.67644  23029064.352                    23029072.730
 126008675.687 7  98188664.299 6  23978660.961                    23978671.043
 122024932.270 7  95084422.434 6  23220566.188                    23220574.367
 109769939.825 8  85535142.77446  20888510.188                    20888517.488
 108231454.579 8  84336325.06146  20595744.031                    20595749.695
 114351625.542 8  89105328.70345  21760380.109                    21760387.977
 112107501.987 7  87356566.953 7  21333348.898                    21333355.867
 115176671.308 7  89748122.320 7  21917378.703                    21917387.684
 11  8 13  0 53  0.0000000  0  9G09G30G25G17G10G02G04G12G05
 125142281.230 7  97513530.57343  23813793.977                    23813804.664
 120928805.026 7  94230292.27444  23011989.492                    23011997.832
 125910650.679 6  98112281.185 6  23960006.969                    23960017.672
 122079631.050 7  95127044.857 6  23230975.359                    23230983.426
 109772136.779 8  85536854.69546  20888928.234                    20888936.422
 108232517.206 8  84337153.10346  20595946.266                    20595951.379
 114429057.935 8  89165665.60245  21775115.203                    21775122.730
 112051774.372 7  87313142.830 7  21322744.695                    21322751.629
 115087987.853 7  89679018.412 7  21900502.734                    21900510.988
 11  8 13  0 53 30.0000000  0  9G09G30G25G17G10G02G04G12G05
 125222988.548 7  97576419.34244  23829152.359                    23829163.191
 120839418.466 7  94160640.43644  22994979.758                    22994988.668
 125812821.853 6  98036050.977 6  23941390.641                    23941402.191
 122134490.627 7  95169792.528 6  23241414.648                    23241422.699
 109774966.659 7  85539059.81246  20889467.031                    20889474.719
 108233865.989 8  84338204.11146  20596202.898                    20596208.336
 114506621.579 8  89226104.76545  21789875.000                    21789882.766
 111996497.787 7  87270070.178 7  21312225.578                    21312232.699
 114999623.208 7  89610162.905 7  21883687.656                    21883696.020
 11  8 13  0 54  0.0000000  0  9G09G30G25G17G10G02G04G12G05
 125303830.284 7  97639412.83744  23844536.602                    23844546.473
 120750375.516 7  94091256.34344  22978035.828                    22978043.762
 125715191.804 6  97959975.698 6  23922812.320                    23922823.578
 122189511.621 7  95212665.995 6  23251884.961                    23251893.496
 109778429.355 7  85541758.02646  20890126.125                    20890133.512
 108235499.854 7  84339477.25846  20596513.898                    20596518.957
 114584314.602 8  89286644.75645  21804659.125                    21804667.520
 111941674.040 8  87227350.364 7  21301793.188                    21301800.047
 114911580.061 7  89541557.935 7  21866933.367                    21866941.895
 11  8 13  0 54 30.0000000  0  9G09G30G25G17G10G02G04G12G05
 125384803.085 6  97702508.44243  23859944.531                    23859955.184
 120661678.902 6  94022142.13544  22961157.070                    22961165.676
 125617763.152 7  97884057.301 7  23904272.484                    23904283.488
 122244694.657 7  95255665.757 6  23262385.133                    23262393.023
 109782524.876 7  85544949.35546  20890905.039                    20890912.254
 108237417.909 7  84340971.86646  20596879.047                    20596883.738
 114662135.056 7  89347284.04245  21819467.914                    21819476.121
 111887305.177 8  87184985.011 7  21291446.750                    21291454.195
 114823861.100 7  89473205.558 7  21850241.180                    21850249.031
 11  8 13  0 55  0.0000000  0  9G09G30G25G17G10G02G04G12G05
 125465903.482 7  97765703.41544  23875377.563                    23875388.656
 120573331.533 7  93953300.05844  22944345.602                    22944353.469
 125520538.634 7  97808298.011 7  23885770.813                    23885782.074
 122300040.256 7  95298792.143 6  23272917.359                    23272925.793
 109787253.272 7  85548633.83446  20891804.656                    20891812.547
 108239618.908 7  84342686.93246  20597297.656                    20597303.016
 114740081.124 8  89408021.20545  21834300.656                    21834308.887
 111833393.459 8  87142975.889 7  21281187.898                    21281195.215
 114736469.252 7  89405108.099 7  21833610.852                    21833619.078
 11  8 13  0 55 30.0000000  0  9G09G30G25G17G10G02G04G12G05
 125547127.995 6  97828995.16744  23890833.977                    23890845.211
 120485336.033 7  93884732.15844  22927599.789                    22927608.465
 125423520.714 7  97732699.694 6  23867309.141                    23867320.016
 122355548.773 7  95342045.486 6  23283480.852                    23283488.398
 109792614.563 8  85552811.46346  20892825.336                    20892832.578
 108242101.336 8  84344621.30446  20597770.094                    20597775.551
 114818150.672 8  89468854.58845  21849157.055                    21849165.285
 111779941.180 7  87101324.780 7  21271016.555                    21271023.535
 114649407.428 7  89337267.781 7  21817043.422                    21817051.695
 11  8 13  0 56  0.0000000  0  9G09G30G25G17G10G02G04G12G05
 125628473.610 6  97892381.31143  23906313.398                    23906324.570
 120397695.369 7  93816440.73944  22910922.383                    22910931.156
 125326712.194 7  97657264.573 6  23848887.617                    23848897.938
 122411220.900 7  95385426.337 6  23294074.234                    23294082.633
 109798608.832 7  85557482.32846  20893965.875                    20893973.207
 108244864.441 8  84346774.37846  20598295.984                    20598301.563
 114896341.754 8  89529782.67545  21864035.977                    21864044.352
 111726951.135 8  87060033.853 7  21260932.633                    21260940.055
 114562678.356 7  89269686.754 7  21800539.867                    21800547.637
 11  8 13  0 56 30.0000000  0  9G09G30G25G17G10G02G04G12G05
 125709936.894 6  97955859.10344  23921815.938                    23921827.430
 120310412.095 7  93748427.84444  22894312.469                    22894321.293
 125230115.482 7  97581994.482 6  23830505.141                    23830515.695
 122467056.659 7  95428934.643 6  23304699.859                    23304708.258
 109805235.844 8  85562646.23146  20895226.828                    20895234.488
 108247906.730 8  84349145.00746  20598875.016                    20598880.203
 114974652.491 7  89590804.00445  21878938.633                    21878946.699
 111674424.058 8  87019103.681 7  21250937.281                    21250944.176
 114476284.553 7  89202366.975 7  21784099.578                    21784107.301
 11  8 13  0 57  0.0000000  0  9G09G30G25G17G10G02G04G12G05
 125791514.577 6  98019426.03143  23937339.602                    23937350.516
 120223489.323 6  93680695.84544  22877772.688                    22877780.773
 125133733.519 7  97506891.732 6  23812164.344                    23812175.180
 122523056.839 7  95472571.090 6  23315355.836                    23315364.230
 109812495.766 8  85568303.33646  20896608.977                    20896616.098
 108251227.542 8  84351732.66046  20599506.680                    20599512.398
 115053081.205 7  89651917.26045  21893862.531                    21893870.934
 111622362.893 8  86978536.549 7  21241030.055                    21241037.512
 114390229.160 7  89135310.881 7  21767723.422                    21767731.762
 11  8 13  0 57 30.0000000  0  9G09G30G25G17G10G02G04G12G05
 125873203.212 6  98083079.46144  23952884.492                    23952895.074
 120136929.680 7  93613246.81344  22861300.086                    22861309.168
 125037568.818 7  97431958.284 6  23793864.992                    23793875.320
 122579221.914 7  95516336.002 6  23326044.664                    23326052.406
 109820388.408 8  85574453.46046  20898110.203                    20898117.793
 108254825.578 8  84354536.31046  20600191.523                    20600196.492
 115131626.046 8  89713121.00545  21908809.500                    21908817.227
 111570769.895 8  86938334.227 7  21231212.180                    21231219.242
 114304514.990 7  89068520.690 7  21751412.203                    21751420.820
 11  8 13  0 58  0.0000000  0  9G09G30G25G17G10G02G04G12G05
 125954999.421 6  98146816.66344  23968449.805                    23968460.543
 120050735.994 7  93546082.93444  22844898.414                    22844906.371
 124941624.098 7  97357196.223 6  23775606.719                    23775617.984
 122635552.371 7  95560229.816 6  23336764.156                    23336771.926
 109828913.624 8  85581096.50246  20899732.500                    20899739.953
 108258699.581 8  84357555.01846  20600928.305                    20600933.809
 115210284.916 8  89774413.60845  21923777.570                    21923785.555
 111519647.108 8  86898498.312 7  21221483.836                    21221490.848
 114219144.896 7  89001998.590 7  21735166.992                    21735175.605
 11  8 13  0 58 30.0000000  0  9G09G30G25G17G10G02G04G12G05
 126036899.781 6  98210635.06343  23984035.523                    23984046.855
 119964910.922 7  93479206.31644  22828566.367                    22828574.813
 124845901.898 7  97282607.538 6  23757392.102                    23757402.363
 122692048.734 7  95604252.892 6  23347514.695                    23347523.051
 109838071.067 8  85588232.17346  20901475.188                    20901483.020
 108262848.362 8  84360787.82446  20601718.008                    20601723.305
 115289056.051 7  89835793.68445  21938767.094                    21938775.379
 111468996.423 8  86859030.241 7  21211845.555                    21211852.273
 114134121.486 7  88935746.647 7  21718987.586                    21718995.742
 11  8 13  0 59  0.0000000  0  9G09G30G25G17G10G02G04G12G05
 126118901.009 6  98274532.04343  23999639.164                    23999650.332
 119879457.235 7  93412619.06844  22812304.914                    22812313.172
 124750404.931 7  97208194.351 6  23739219.477                    23739229.711
 122748711.288 7  95648405.472 6  23358297.797                    23358305.406
 109847860.584 8  85595860.38446  20903337.750                    20903345.234
 108267270.755 8  84364233.83946  20602559.602                    20602564.906
 115367937.598 7  89897259.80645  21953778.234                    21953786.188
 111418820.069 8  86819931.793 7  21202297.359                    21202304.188
 114049447.243 8  88869766.785 7  21702874.648                    21702882.781
 11  8 13  0 59 30.0000000  0  9G09G30G25G17G10G02G04G12G05
 126200999.742 6  98338504.99843  24015262.758                    24015273.414
 119794377.716 7  93346323.36544  22796114.445                    22796123.074
 124655135.848 7  97133958.727 6  23721090.656                    23721100.508
 122805540.559 7  95692687.983 6  23369111.766                    23369119.793
 109858282.161 8  85603981.10046  20905321.195                    20905328.699
 108271965.494 8  84367892.07646  20603452.938                    20603458.289
 115446927.687 7  89958810.50745  21968809.273                    21968817.539
 111369119.937 8  86781204.429 7  21192839.461                    21192846.430
 113965125.282 8  88804061.417 7  21686828.797                    21686836.660
 11  8 13  1  0  0.0000000  0  9G09G30G25G17G10G02G04G12G05
 126283192.782 6  98402551.44743  24030903.305                    24030915.102
 119709675.407 7  93280321.63644  22779996.625                    22780004.773
 124560097.546 7  97059902.943 6  23703004.609                    23703014.824
 122862537.277 7  95737100.955 6  23379958.281                    23379966.559
 109869335.549 8  85612594.12946  20907424.586                    20907432.406
 108276932.180 8  84371762.21546  20604398.398                    20604403.113
 115526024.722 7  90020444.54145  21983861.016                    21983868.918
 111319898.731 8  86742850.259 7  21183473.141                    21183480.266
 113881158.323 8  88738632.679 7  21670850.219                    21670858.355
 11  8 13  1  0 30.0000000  0  9G09G30G25G17G10G02G04G12G05
 126365476.484 6  98466668.54843  24046561.477                    24046572.301
 119625352.690 7  93214615.67444  22763950.508                    22763958.957
 124465292.483 7  96986028.878 6  23684963.563                    23684974.578
 122919701.799 7  95781644.673 7  23390835.984                    23390843.902
 109881020.185 8  85621699.04046  20909648.156                    20909655.934
 108282169.001 8  84375842.85346  20605394.641                    20605399.531
 115605226.757 8  90082160.40245  21998932.852                    21998941.027
 111271157.758 8  86704870.299 7  21174197.852                    21174204.766
 113797549.259 8  88673482.817 7  21654939.789                    21654948.063
 11  8 13  1  1  0.0000000  0  9G09G30G25G17G10G02G04G12G05
 126447848.034 6  98530854.07743  24062236.344                    24062247.422
 119541412.597 7  93149207.88244  22747977.086                    22747985.219
 124370723.537 7  96912338.819 6  23666967.734                    23666978.801
 122977034.443 7  95826319.423 6  23401745.195                    23401754.027
 109893336.414 8  85631296.10946  20911992.180                    20911999.512
 108287675.190 8  84380133.38946  20606442.539                    20606447.426
 115684532.051 7  90143956.70145  22014023.945                    22014032.398
 111222899.486 8  86667266.468 7  21165014.648                    21165021.930
 113714300.632 8  88608613.817 7  21639098.203                    21639106.449
 11  8 13  1  1 30.0000000  0  9G09G30G25G17G10G02G04G12G05
 126530303.825 6  98595105.32543  24077927.219                    24077937.773
 119457857.653 7  93084100.19044  22732076.938                    22732085.645
 124276393.174 7  96838834.637 6  23649017.789                    23649028.270
 123034535.589 6  95871125.462 6  23412687.531                    23412696.352
 109906283.392 8  85641384.65846  20914455.734                    20914463.141
 108293449.227 8  84384632.62746  20607541.281                    20607546.309
 115763938.761 7  90205832.04845  22029134.758                    22029142.902
 111175125.539 8  86630040.034 7  21155923.594                    21155930.461
 113631415.004 8  88544027.664 7  21623325.344                    21623333.535
 11  8 13  1  2  0.0000000  0  9G09G30G25G17G10G02G04G12G05
 126612840.483 6  98659419.54343  24093633.063                    24093644.109
 119374690.628 7  93019294.79144  22716250.570                    22716259.602
 124182304.142 7  96765518.511 6  23631113.188                    23631124.172
 123092205.848 6  95916063.286 6  23423662.148                    23423670.988
 109919860.922 8  85651964.55746  20917039.156                    20917046.973
 108299490.175 8  84389339.84746  20608690.906                    20608696.156
 115843444.873 7  90267784.84245  22044263.766                    22044272.238
 111127838.272 8  86593192.834 7  21146925.195                    21146932.148
 113548895.124 8  88479726.510 7  21607622.383                    21607630.168
 11  8 13  1  2 30.0000000  0  9G09G30G25G17G10G02G04G12G05
 126695454.565 6  98723794.07243  24109354.547                    24109365.250
 119291914.059 7  92954793.60844  22700499.070                    22700507.305
 124088458.993 7  96692392.428 7  23613254.828                    23613265.801
 123150045.535 7  95961133.154 6  23434669.398                    23434677.504
 109934068.272 8  85663035.21346  20919742.766                    20919750.531
 108305796.482 8  84394253.84446  20609890.703                    20609896.137
 115923048.769 7  90329813.82745  22059412.266                    22059420.898
 111081039.459 8  86556726.243 7  21138019.531                    21138026.523
 113466743.716 8  88415712.497 7  21591989.492                    21591997.652
 11  8 13  1  3  0.0000000  0  9G09G30G25G17G10G02G04G12G05
 126778142.989 6  98788226.53543  24125089.445                    24125100.488
 119209530.851 7  92890598.94244  22684822.164                    22684830.754
 123994860.479 7  96619458.536 6  23595443.672                    23595454.336
 123208055.024 6  96006335.328 6  23445707.891                    23445716.199
 109948905.216 8  85674596.47546  20922566.164                    20922574.367
 108312367.180 8  84399373.86046  20611141.023                    20611146.934
 116002748.714 7  90391917.67245  22074579.000                    22074587.305
 111034731.377 8  86520642.054 7  21129207.273                    21129214.340
 113384963.760 8  88351987.911 7  21576427.570                    21576435.281
 11  8 13  1  3 30.0000000  0  9G09G30G25G17G10G02G04G12G05
 126860902.309 6  98852714.23943  24140838.125                    24140848.750
 119127543.345 7  92826712.61844  22669219.867                    22669228.504
 123901510.998 7  96546718.697 6  23577679.789                    23577690.750
 123266234.677 6  96051670.128 6  23456779.445                    23456787.145
 109964370.696 8  85686647.48946  20925509.266                    20925517.008
 108319200.575 8  84404698.58246  20612441.367                    20612447.035
 116082542.377 7  90454094.52045  22089762.820                    22089771.473
 110988914.928 8  86484940.940 7  21120488.742                    21120495.473
 113303557.148 8  88288554.237 7  21560936.125                    21560944.043
 11  8 13  1  4  0.0000000  0  9G09G30G25G17G10G02G04G12G05
 126943729.417 6  98917254.74643  24156599.617                    24156610.840
 119045954.568 7  92763136.98444  22653694.133                    22653702.797
 123808413.532 7  96474175.251 7  23559964.289                    23559975.148
 123324584.885 7  96097137.801 6  23467882.555                    23467890.691
 109980465.088 8  85699188.57946  20928571.930                    20928579.039
 108326296.276 8  84410227.70346  20613791.945                    20613796.938
 116162428.615 7  90516343.53245  22104964.477                    22104972.895
 110943592.894 8  86449625.094 7  21111864.313                    21111870.961
 113222527.119 8  88225414.011 7  21545516.469                    21545524.883
 11  8 13  1  4 30.0000000  0  9G09G30G25G17G10G02G04G12G05
 127026621.053 6  98981845.57043  24172373.031                    24172384.672
 118964767.346 7  92699874.24844  22638245.133                    22638253.398
 123715570.871 7  96401830.384 7  23542296.031                    23542307.508
 123383106.544 6  96142739.073 6  23479018.852                    23479027.129
 109997187.560 8  85712219.08046  20931754.477                    20931761.793
 108333653.205 8  84415960.37246  20615192.047                    20615197.273
 116242405.731 7  90578663.34145  22120184.133                    22120191.910
 110898767.867 8  86414696.513 7  21103334.367                    21103341.418
 113141876.587 8  88162569.497 7  21530168.883                    21530177.238
 11  8 13  1  5  0.0000000  0  9G09G30G25G17G10G02G04G12G05
 127109573.898 6  99046484.01443  24188158.727                    24188170.676
 118883984.257 7  92636926.42744  22622872.305                    22622881.043
 123622985.607 7  96329686.081 7  23524677.953                    23524688.867
 123441799.479 7  96188473.847 6  23490188.023                    23490196.586
 110014537.574 8  85725738.57846  20935055.492                    20935063.152
 108341269.709 8  84421895.31046  20616641.406                    20616646.555
 116322471.708 7  90641052.38745  22135419.836                    22135427.984
 110854440.686 8  86380155.870 7  21094899.117                    21094906.258
 113061607.864 8  88100022.499 7  21514894.367                    21514902.129
 11  8 13  1  5 30.0000000  0  9G09G30G25G17G10G02G04G12G05
 127192584.589 6  99111167.55543  24203955.602                    24203967.137
 118803607.939 7  92574295.56045  22607577.406                    22607585.773
 123530660.307 7  96257744.351 7  23507109.477                    23507120.418
 123500664.337 7  96234342.602 6  23501389.570                    23501397.652
 110032514.490 8  85739746.57246  20938476.523                    20938483.801
 108349144.706 8  84428031.66746  20618140.008                    20618144.926
 116402625.013 7  90703509.49345  22150672.523                    22150680.711
 110810613.202 8  86346004.586 7  21086559.195                    21086566.016
 112981723.563 8  88037775.052 7  21499692.977                    21499701.063
 11  8 13  1  6  0.0000000  0  9G09G30G25G17G10G02G04G12G05
 127275650.033 6  99175893.75143  24219762.078                    24219773.449
 118723640.971 7  92511983.64144  22592359.672                    22592368.297
 123438597.667 7  96186007.285 7  23489589.797                    23489600.926
 123559701.393 7  96280345.493 6  23512623.703                    23512631.695
 110051117.805 8  85754242.65946  20942016.359                    20942024.434
 108357276.992 8  84434368.51546  20619687.320                    20619692.508
 116482863.903 7  90766033.27345  22165941.234                    22165949.773
 110767287.626 8  86312244.410 7  21078314.313                    21078321.289
 112902226.284 7  87975829.171 7  21484564.742                    21484573.016
 11  8 13  1  6 30.0000000  0  9G09G30G25G17G10G02G04G12G05
 127358766.904 6  99240660.02543  24235579.266                    24235590.734
 118644086.274 7  92449992.99245  22577221.328                    22577229.879
 123346800.551 7  96114477.152 6  23472121.266                    23472132.266
 123618911.305 7  96326483.086 6  23523890.859                    23523899.277
 110070346.913 8  85769226.37646  20945675.859                    20945683.258
 108365665.725 8  84440905.18046  20621283.750                    20621289.039
 116563186.795 7  90828622.52445  22181226.344                    22181235.301
 110724466.318 8  86278877.162 7  21070165.938                    21070172.398
 112823118.919 8  87914187.138 7  21469511.461                    21469519.531
 11  8 13  1  7  0.0000000  0  9G09G30G25G17G10G02G04G12G05
 127441931.862 6  99305463.78743  24251405.047                    24251416.418
 118564946.269 7  92388325.46144  22562160.914                    22562170.164
 123255271.472 7  96043155.840 6  23454704.453                    23454714.977
 123678294.617 7  96372755.797 6  23535191.656                    23535200.117
 110090201.162 7  85784697.22246  20949453.523                    20949461.297
 108374309.447 8  84447640.55346  20622928.266                    20622933.738
 116643591.652 7  90891275.63845  22196527.211                    22196535.855
 110682150.578 8  86245903.872 7  21062113.367                    21062120.031
 112744404.023 8  87852850.911 7  21454532.219                    21454540.070
 11  8 13  1  7 30.0000000  0  9G09G30G25G17G10G02G04G12G05
 127525141.609 6  99370302.46443  24267239.500                    24267250.555
 118486223.720 7  92326983.23244  22547180.883                    22547189.285
 123164013.110 7  95972045.478 6  23437338.109                    23437348.926
 123737851.296 7  96419163.635 6  23546524.930                    23546532.648
 110110680.053 8  85800654.79946  20953350.906                    20953358.680
 108383207.049 8  84454573.75446  20624621.609                    20624626.949
 116724077.111 7  90953991.54845  22211843.617                    22211851.625
 110640342.140 8  86213325.838 7  21054157.352                    21054164.617
 112666084.009 8  87791822.377 7  21439628.461                    21439636.270
 11  8 13  1  8  0.0000000  0  9G09G30G25G17G10G02G04G12G05
 127608393.137 6  99435173.68444  24283081.867                    24283092.246
 118407921.364 7  92265968.42844  22532279.922                    22532289.074
 123073028.261 7  95901148.265 6  23420024.195                    23420035.391
 123797581.716 7  96465706.815 6  23557891.094                    23557898.984
 110131782.596 7  85817098.34446  20957366.930                    20957374.457
 108392357.449 8  84461703.94546  20626362.773                    20626367.871
 116804641.290 7  91016768.81245  22227174.016                    22227182.441
 110599043.146 8  86181144.773 7  21046298.695                    21046305.500
 112588161.574 8  87731103.651 7  21424800.391                    21424808.004
 11  8 13  1  8 30.0000000  0  9G09G30G25G17G10G02G04G12G05
 127691682.970 7  99500074.78543  24298930.867                    24298942.250
 118330041.574 7  92205282.87844  22517460.094                    22517468.574
 122982319.379 7  95830466.046 6  23402762.734                    23402773.660
 123857486.293 7  96512385.699 6  23569290.359                    23569298.828
 110153507.686 8  85834026.98946  20961500.867                    20961508.227
 108401759.113 8  84469029.91646  20628152.023                    20628157.055
 116885282.498 7  91079606.10245  22242519.516                    22242527.832
 110558254.933 8  86149361.757 7  21038536.844                    21038543.926
 112510639.051 8  87670696.541 7  21410048.438                    21410056.043
 11  8 13  1  9  0.0000000  0  9G09G30G25G17G10G02G04G12G05
 127775007.725 7  99565003.08444  24314787.617                    24314798.676
 118252586.642 7  92144928.41244  22502720.625                    22502729.578
 122891888.926 7  95760000.789 6  23385554.797                    23385565.449
 123917565.301 7  96559200.524 6  23580723.086                    23580731.434
 110175854.517 7  85851440.10946  20965752.992                    20965760.500
 108411410.525 8  84476550.50546  20629988.273                    20629993.711
 116965998.779 7  91142501.88945  22257879.047                    22257887.313
 110517979.288 8  86117978.153 7  21030872.852                    21030879.840
 112433518.900 8  87610602.973 7  21395372.586                    21395380.859
 11  8 13  1  9 30.0000000  0  9G09G30G25G17G10G02G04G12G05
 127858364.451 6  99629956.31243  24330649.633                    24330661.461
 118175559.778 7  92084907.49244  22488063.227                    22488071.785
 122801740.025 7  95689754.965 6  23368399.711                    23368410.770
 123977819.499 7  96606151.839 6  23592189.453                    23592197.918
 110198822.925 7  85869337.57646  20970123.758                    20970131.504
 108421311.418 8  84484265.50146  20631872.773                    20631878.090
 117046789.077 7  91205455.35144  22273252.930                    22273261.355
 110478218.329 8  86086995.584 7  21023306.500                    21023313.496
 112356804.074 8  87550825.250 7  21380774.203                    21380782.391
 11  8 13  1 10  0.0000000  0  9G09G30G25G17G10G02G04G12G05
 127941749.940 6  99694931.94143  24346518.109                    24346528.988
 118098963.332 7  92025221.96044  22473487.953                    22473496.172
 122711875.163 7  95619730.441 6  23351298.922                    23351309.645
 124038249.064 7  96653239.824 6  23603688.555                    23603697.289
 110222411.607 8  85887718.37146  20974612.906                    20974620.660
 108431460.145 8  84492173.61146  20633804.086                    20633809.367
 117127651.402 7  91268464.93145  22288640.820                    22288648.543
 110438973.781 8  86056415.424 7  21015838.547                    21015845.469
 112280496.912 8  87491365.178 7  21366253.508                    21366261.371
 11  8 13  1 10 30.0000000  0  9G09G30G25G17G10G02G04G12G05
 128025161.143 6  99759927.61843  24362389.766                    24362401.992
 118022800.223 7  91965874.11144  22458994.367                    22459002.461
 122622297.247 7  95549929.470 6  23334253.313                    23334263.844
 124098854.352 6  96700464.726 6  23615221.586                    23615229.781
 110246620.122 7  85906582.15746  20979219.359                    20979227.664
 108441855.902 8  84500274.21546  20635781.758                    20635787.129
 117208584.370 7  91331529.55445  22304041.680                    22304049.855
 110400247.472 8  86026239.092 7  21008468.805                    21008476.070
 112204600.143 8  87432224.900 7  21351810.703                    21351818.871
 11  8 13  1 11  0.0000000  0  9G09G30G25G17G10G02G04G12G05
 128108594.759 6  99824940.75943  24378266.305                    24378278.691
 117947072.755 7  91906865.71544  22444583.508                    22444591.914
 122533008.724 7  95480354.027 6  23317262.438                    23317272.547
 124159635.672 7  96747826.835 6  23626787.125                    23626795.906
 110271447.197 8  85925927.94046  20983943.789                    20983951.426
 108452497.146 8  84508566.10146  20637807.086                    20637812.172
 117289586.474 7  91394648.04445  22319455.859                    22319464.352
 110362040.936 8  85996467.778 7  21001198.539                    21001205.293
 112129116.186 8  87373406.291 7  21337446.672                    21337454.555
 11  8 13  1 11 30.0000000  0  9G09G30G25G17G10G02G04G12G05
 128192047.646 6  99889968.91943  24394147.391                    24394159.832
 117871783.544 7  91848198.82944  22430256.641                    22430264.746
 122444012.409 7  95411006.248 6  23300326.922                    23300337.297
 124220593.278 6  96795326.254 6  23638386.984                    23638395.457
 110296892.212 8  85945755.22046  20988785.859                    20988793.688
 108463382.788 8  84517048.43546  20639878.609                    20639883.648
 117370655.781 7  91457818.91045  22334883.000                    22334891.395
 110324355.745 8  85967102.689 7  20994027.180                    20994034.109
 112054047.461 8  87314911.218 7  21323161.547                    21323169.520
 11  8 13  1 12  0.0000000  0  9G09G30G25G17G10G02G04G12G05
 128275516.401 6  99955009.47843  24410030.391                    24410043.195
 117796935.172 7  91789875.47144  22416013.141                    22416021.680
 122355310.917 7  95341888.204 6  23283447.109                    23283457.527
 124281727.550 6  96842963.354 6  23650020.516                    23650029.129
 110322954.252 8  85966063.30946  20993745.367                    20993752.895
 108474511.659 8  84525720.29046  20641996.289                    20642001.746
 117451791.067 7  91521041.19545  22350322.758                    22350330.855
 110287193.590 8  85938145.170 7  20986955.750                    20986962.789
 111979396.520 8  87256741.702 7  21308955.828                    21308963.750
 11  8 13  1 12 30.0000000  0  9G09G30G25G17G10G02G04G12G05
 128358997.807 6 100020059.86743  24425918.102                    24425929.449
 117722529.943 7  91731897.38544  22401854.477                    22401862.727
 122266906.742 7  95273001.874 6  23266624.633                    23266635.020
 124343038.988 6  96890738.459 6  23661687.727                    23661696.539
 110349631.853 7  85986851.05346  20998821.766                    20998829.457
 108485882.327 8  84534580.55846  20644159.977                    20644164.898
 117532990.419 7  91584313.41045  22365774.195                    22365782.418
 110250555.943 8  85909596.347 7  20979983.852                    20979990.805
 111905165.570 8  87198899.453 7  21294829.859                    21294837.684
 11  8 13  1 13  0.0000000  0  9G09G30G25G17G10G02G04G12G05
 128442488.845 6 100085117.76643  24441804.867                    24441816.820
 117648570.722 7  91674266.83944  22387780.414                    22387788.578
 122178802.814 7  95204349.459 6  23249858.320                    23249868.953
 124404527.847 6  96938651.870 6  23673389.148                    23673397.488
 110376924.582 7  86008118.11346  21004015.336                    21004023.242
 108497493.902 8  84543628.54246  20646369.578                    20646374.914
 117614252.288 7  91647634.33145  22381237.570                    22381246.184
 110214444.852 8  85881457.841 7  20973112.008                    20973118.758
 111831357.428 8  87141386.669 7  21280784.688                    21280792.969
 11  8 13  1 13 30.0000000  0  9G09G30G25G17G10G02G04G12G05
 128525986.685 6 100150181.00543  24457694.719                    24457706.742
 117575060.140 7  91616985.90644  22373791.594                    22373800.324
 122091001.935 7  95135933.212 6  23233151.141                    23233161.484
 124466194.642 6  96986703.930 6  23685124.188                    23685132.168
 110404831.445 8  86029863.72146  21009326.141                    21009333.531
 108509345.459 8  84552863.53246  20648624.547                    20648630.270
 117695575.449 7  91711003.03045  22396712.773                    22396721.527
 110178862.028 8  85853730.970 7  20966340.906                    20966347.922
 111757974.450 8  87084205.201 7  21266820.523                    21266828.770
 11  8 13  1 14  0.0000000  0  9G09G30G25G17G10G02G04G12G05
 128609488.030 6 100215246.95943  24473584.188                    24473595.695
 117502000.647 7  91560056.45045  22359888.750                    22359897.680
 122003506.709 7  95067755.138 6  23216500.141                    23216512.035
 124528039.712 6  97034894.915 6  23696892.383                    23696901.043
 110433351.477 8  86052087.13146  21014753.461                    21014760.828
 108521435.526 8  84562284.36746  20650925.250                    20650930.766
 117776958.157 7  91774418.08644  22412199.414                    22412208.207
 110143808.874 8  85826416.821 7  20959670.672                    20959677.559
 111685019.383 8  87027357.129 7  21252937.539                    21252945.824
 11  8 13  1 14 30.0000000  0  9G09G30G25G17G10G02G04G12G05
 128692989.445 6 100280312.97343  24489473.633                    24489485.430
 117429394.384 7  91503480.18045  22346072.680                    22346080.934
 121916319.386 7  94999816.992 6  23199909.672                    23199920.320
 124590062.940 6  97083224.718 6  23708694.883                    23708703.691
 110462482.882 7  86074786.93046  21020296.578                    21020304.277
 108533762.523 8  84571889.81846  20653271.031                    20653276.363
 117858398.686 7  91837878.21744  22427697.742                    22427705.992
 110109286.481 8  85799516.252 7  20953101.125                    20953108.145
 111612494.108 8  86970843.990 7  21239136.539                    21239144.469
 11  8 13  1 15  0.0000000  0  9G09G30G25G17G10G02G04G12G05
 128776488.026 6 100345376.77343  24505362.203                    24505374.750
 117357244.157 7  91447259.24645  22332343.367                    22332351.039
 121829443.007 7  94932121.097 7  23183377.594                    23183388.422
 124652264.700 7  97131693.678 6  23720531.836                    23720539.801
 110492225.174 8  86097962.73746  21025956.273                    21025963.844
 108546325.932 8  84581679.49046  20655662.195                    20655667.461
 117939895.821 7  91901382.44444  22443206.086                    22443214.488
 110075297.235 8  85773031.134 7  20946633.180                    20946640.066
 111540401.485 8  86914667.973 7  21225417.727                    21225425.086
 11  8 13  1 15 30.0000000  0  9G09G30G25G17G10G02G04G12G05
 128859980.287 6 100410435.55343  24521250.836                    24521263.332
 117285552.288 7  91391395.48845  22318700.406                    22318708.906
 121742880.010 7  94864669.419 7  23166905.719                    23166916.125
 124714645.399 7  97180302.041 6  23732402.969                    23732410.188
 110522577.079 8  86121613.57446  21031731.977                    21031740.039
 108559124.109 8  84591652.10946  20658097.352                    20658102.523
 118021447.699 7  91964929.34244  22458724.055                    22458733.215
 110041842.045 8  85746962.157 7  20940267.016                    20940273.848
 111468743.737 8  86858830.807 7  21211781.523                    21211789.063
 11  8 13  1 16  0.0000000  0  9G09G30G25G17G10G02G04G12G05
 128943463.424 6 100475487.25443  24537137.586                    24537149.691
 117214321.139 7  91335890.72645  22305146.180                    22305154.309
 121656633.033 7  94797464.016 6  23150493.555                    23150503.648
 124777205.252 6  97229050.007 6  23744307.617                    23744314.625
 110553537.223 8  86145738.36146  21037624.109                    21037631.758
 108572156.038 8  84601806.86146  20660577.195                    20660582.504
 118103052.859 7  92028517.75545  22474253.391                    22474262.125
 110008922.342 8  85721310.455 7  20934001.984                    20934009.363
 111397522.965 8  86803334.151 7  21198228.516                    21198236.047
 11  8 13  1 16 30.0000000  0  9G09G30G25G17G10G02G04G12G05
 129026934.195 6 100540529.35143  24553021.250                    24553033.520
 117143553.271 7  91280746.93945  22291678.898                    22291687.004
 121570704.785 7  94730506.936 7  23134141.000                    23134151.961
 124839944.492 6  97277937.739 6  23756246.039                    23756253.613
 110585104.626 8  86170336.35246  21043630.836                    21043638.656
 108585420.460 8  84612142.78346  20663101.430                    20663107.043
 118184709.903 7  92092146.60645  22489792.078                    22489801.145
 109976539.958 8  85696077.448 7  20927839.984                    20927847.113
 111326741.321 8  86748179.667 7  21184759.047                    21184767.023
 11  8 13  1 17  0.0000000  0  9G09G30G25G17G10G02G04G12G05
 129110389.531 6 100605559.40343  24568902.938                    24568914.230
 117073251.133 7  91225966.04445  22278300.578                    22278308.816
 121485097.910 7  94663800.327 6  23117850.570                    23117861.445
 124902863.608 7  97326965.608 6  23768218.867                    23768227.184
 110617278.014 8  86195406.52746  21049753.070                    21049760.758
 108598916.247 8  84622658.99246  20665669.648                    20665674.551
 118266417.187 7  92155814.59244  22505340.484                    22505349.172
 109944696.275 8  85671264.204 7  20921780.352                    20921787.141
 111256401.691 8  86693369.625 7  21171374.320                    21171381.746
 11  8 13  1 17 30.0000000  0  9G09G30G25G17G10G02G04G12G05
 129193826.330 6 100670575.03144  24584780.406                    24584791.883
 117003417.228 7  91171550.01245  22265012.047                    22265019.648
 121399815.134 7  94597346.229 6  23101621.773                    23101632.668
 124965962.573 6  97376133.629 6  23780226.266                    23780234.801
 110650056.060 8  86220947.87746  21055991.258                    21055997.906
 108612642.256 8  84633354.59746  20668281.734                    20668286.781
 118348173.350 7  92219520.69844  22520898.359                    22520906.969
 109913392.625 8  85646871.762 7  20915823.805                    20915830.641
 111186506.369 8  86638905.779 7  21158073.336                    21158081.617
 11  8 13  1 18  0.0000000  0  9G09G30G25G17G10G02G04G12G05
 129277241.409 6 100735573.71244  24600653.555                    24600665.063
 116934053.727 7  91117500.53745  22251812.367                    22251820.559
 121314858.889 7  94531146.583 6  23085455.539                    23085465.961
 125029242.024 6  97425442.290 6  23792268.219                    23792276.164
 110683437.595 8  86246959.47446  21062343.281                    21062350.191
 108626597.220 8  84644228.60146  20670937.398                    20670942.277
 118429976.957 7  92283263.74544  22536464.977                    22536473.770
 109882630.616 8  85622901.391 7  20909969.688                    20909977.199
 111117057.382 8  86584789.742 7  21144857.766                    21144865.395
 11  8 13  1 18 30.0000000  0  9G09G30G25G17G10G02G04G12G05
 129360631.772 6 100800553.09444  24616522.477                    24616534.113
 116865163.262 7  91063819.65345  22238703.172                    22238711.449
 121230232.033 7  94465203.588 6  23069351.430                    23069361.633
 125092701.781 6  97474891.456 6  23804343.891                    23804352.055
 110717421.199 8  86273440.21245  21068809.469                    21068817.387
 108640780.109 8  84655280.21446  20673636.055                    20673641.285
 118511826.475 7  92347042.55144  22552041.203                    22552049.520
 109852411.616 8  85599354.141 7  20904219.258                    20904226.277
 111048057.072 8  86531023.311 7  21131727.211                    21131735.223
 11  8 13  1 19  0.0000000  0  9G09G30G25G17G10G02G04G12G05
 129443994.400 6 100865510.89543  24632386.305                    24632397.746
 116796748.261 7  91010509.27145  22225684.188                    22225692.457
 121145937.191 7  94399519.317 6  23053310.531                    23053320.855
 125156342.303 6  97524481.416 6  23816454.422                    23816462.465
 110752005.892 8  86300389.33145  21075391.055                    21075398.086
 108655189.688 8  84666508.45846  20676378.430                    20676383.223
 118593720.681 7  92410856.18644  22567625.391                    22567633.371
 109822737.336 8  85576231.350 7  20898572.141                    20898579.570
 110979508.133 8  86477608.608 7  21118682.906                    21118690.957
 11  8 13  1 19 30.0000000  0  9G09G30G25G17G10G02G04G12G05
 129527326.080 6 100930444.59043  24648243.695                    24648256.098
 116728810.906 7  90957571.06845  22212756.492                    22212764.301
 121061976.763 7  94334095.606 6  23037333.203                    23037344.074
 125220163.928 6  97574212.529 6  23828599.695                    23828607.594
 110787190.047 8  86327805.57345  21082086.266                    21082094.051
 108669824.642 8  84677912.32946  20679163.039                    20679168.355
 118675657.741 7  92474703.24144  22583216.453                    22583225.336
 109793608.285 8  85553533.416 7  20893028.836                    20893036.305
 110911412.492 8  86424547.124 7  21105724.500                    21105732.543
 11  8 13  1 20  0.0000000  0  9G09G30G25G17G10G02G04G12G05
 129610623.797 6 100995351.84543  24664094.273                    24664106.566
 116661353.738 7  90905007.05145  22199918.758                    22199927.883
 120978353.540 7  94268934.710 7  23021420.383                    23021431.016
 125284166.828 6  97624084.826 6  23840779.297                    23840786.898
 110822972.301 8  86355687.86346  21088895.430                    21088902.953
 108684683.960 8  84689491.03546  20681990.531                    20681995.688
 118757636.441 7  92538582.72944  22598816.766                    22598825.512
 109765026.341 8  85531261.788 7  20887590.438                    20887597.660
 110843772.316 8  86371840.534 7  21092852.930                    21092860.973
 11  8 13  1 20 30.0000000  0  9G09G30G25G17G10G02G04G12G05
 129693884.573 6 101060230.28143  24679938.469                    24679950.473
 116594378.817 7  90852818.80045  22187174.289                    22187182.988
 120895070.017 7  94204038.456 6  23005572.805                    23005582.723
 125348351.276 6  97674098.659 6  23852992.859                    23853000.297
 110859351.553 8  86384035.34945  21095818.172                    21095825.848
 108699766.409 8  84701243.59746  20684860.789                    20684866.254
 118839655.236 7  92602493.46044  22614424.773                    22614433.086
 109736992.829 8  85509417.517 7  20882255.406                    20882262.664
 110776589.718 8  86319490.512 7  21080068.695                    21080076.363
 11  8 13  1 21  0.0000000  0  9G09G30G25G17G10G02G04G12G05
 129777105.321 6 101125077.51043  24695775.000                    24695787.180
 116527888.805 7  90801008.41345  22174521.742                    22174530.285
 120812128.919 7  94139409.066 7  22989788.938                    22989799.672
 125412717.350 6  97724254.000 6  23865241.086                    23865249.520
 110896326.312 8  86412846.85745  21102854.406                    21102861.688
 108715070.822 8  84713169.11846  20687773.109                    20687778.480
 118921712.932 7  92666434.49744  22630039.820                    22630047.895
 109709508.978 8  85488001.542 7  20877025.500                    20877032.477
 110709867.437 8  86267499.161 7  21067371.828                    21067379.422
 11  8 13  1 21 30.0000000  0  9G09G30G25G17G10G02G04G12G05
 129860282.909 6 101189891.09143  24711602.688                    24711615.688
 116461885.898 7  90749577.60045  22161961.609                    22161970.480
 120729532.925 7  94075048.565 7  22974071.258                    22974081.809
 125477265.465 6  97774551.205 6  23877524.211                    23877531.781
 110933894.889 8  86442121.10045  21110003.164                    21110010.602
 108730595.918 8  84725266.60846  20690727.578                    20690732.715
 119003807.978 7  92730404.64744  22645661.758                    22645669.969
 109682575.971 8  85467014.806 7  20871900.609                    20871907.609
 110643607.523 8  86215868.109 7  21054763.078                    21054770.832
 11  8 13  1 22  0.0000000  0  9G09G30G25G17G10G02G04G12G05
 129943414.653 5 101254668.93042  24727422.836                    24727434.883
 116396372.326 7  90698528.07045  22149495.039                    22149503.699
 120647284.438 7  94010958.863 7  22958420.266                    22958431.129
 125541995.609 6  97824990.237 6  23889842.047                    23889849.914
 110972055.915 8  86471856.99646  21117265.094                    21117272.691
 108746340.483 8  84737535.11246  20693723.141                    20693728.867
 119085938.950 7  92794402.77944  22661290.664                    22661299.332
 109656195.575 8  85446458.654 7  20866880.648                    20866887.352
 110577811.917 8  86164598.842 7  21042242.273                    21042250.156
 11  8 13  1 22 30.0000000  0  9G09G30G25G17G10G02G04G12G05
 130026497.164 6 101319408.49943  24743233.008                    24743245.172
 116331350.329 7  90647861.63345  22137121.773                    22137130.152
 120565386.081 7  93947141.980 7  22942835.617                    22942846.039
 125606907.942 7  97875571.271 6  23902194.617                    23902202.004
 111010807.883 8  86502053.35046  21124639.188                    21124647.352
 108762303.059 8  84749973.49346  20696760.805                    20696766.117
 119168104.531 7  92858427.89544  22676926.359                    22676934.914
 109630367.924 8  85426333.232 7  20861965.898                    20861972.367
 110512482.829 8  86113693.115 8  21029810.672                    21029818.535
 11  8 13  1 23  0.0000000  0  9G09G30G25G17G10G02G04G12G05
 130109527.561 6 101384107.42842  24759033.109                    24759045.102
 116266822.298 7  90597580.07245  22124841.945                    22124850.512
 120483840.544 7  93883600.023 7  22927317.961                    22927328.352
 125672002.912 7  97926294.600 6  23914581.336                    23914589.094
 111050149.225 8  86532708.95345  21132125.555                    21132133.602
 108778483.090 8  84762581.31246  20699839.969                    20699845.273
 119250303.302 7  92922478.86044  22692568.313                    22692576.863
 109605094.957 8  85406640.022 7  20857156.227                    20857163.164
 110447622.454 8  86063152.606 7  21017468.203                    21017475.832
 11  8 13  1 23 30.0000000  0  9G09G30G25G17G10G02G04G12G05
 130192502.937 6 101448763.53043  24774822.797                    24774835.027
 116202790.640 7  90547685.29945  22112657.664                    22112665.621
 120402650.567 7  93820335.129 7  22911868.219                    22911878.539
 125737280.637 7  97977160.346 6  23927003.578                    23927011.141
 111090078.793 8  86563822.90046  21139724.203                    21139731.840
 108794879.416 8  84775357.67646  20702960.188                    20702965.184
 119332534.154 7  92986554.82544  22708216.586                    22708224.801
 109580378.159 8  85387380.181 7  20852452.852                    20852459.832
 110383233.319 8  86012979.313 7  21005214.914                    21005223.176
 11  8 13  1 24  0.0000000  0  9G09G30G25G17G10G02G04G12G05
 130275420.290 6 101513374.44443  24790601.594                    24790613.480
 116139257.388 7  90498178.89945  22100567.891                    22100576.031
 120321818.431 7  93757349.093 7  22896486.055                    22896496.434
 125802741.229 7  98028168.608 6  23939460.227                    23939468.191
 111130594.673 8  86595393.72445  21147434.039                    21147441.520
 108811490.649 8  84788301.50146  20706121.109                    20706126.594
 119414795.433 7  93050654.48244  22723869.734                    22723878.531
 109556218.471 8  85368554.465 7  20847855.344                    20847862.188
 110319317.200 8  85963174.587 7  20993052.383                    20993059.945
 11  8 13  1 24 30.0000000  0  9G09G30G25G17G10G02G04G12G05
 130358276.643 6 101577937.82242  24806369.047                    24806379.762
 116076224.844 7  90449062.65345  22088573.211                    22088580.840
 120241346.969 7  93694644.094 7  22881172.906                    22881183.250
 125868385.134 6  98079319.669 6  23951951.734                    23951960.387
 111171695.455 8  86627420.30545  21155255.375                    21155262.824
 108828315.866 8  84801412.06046  20709322.750                    20709327.898
 119497085.985 7  93114776.95644  22739529.133                    22739538.293
 109532617.112 8  85350163.802 7  20843364.398                    20843370.902
 110255876.277 8  85913740.138 7  20980979.648                    20980987.668
 11  8 13  1 25  0.0000000  0  9G09G30G25G17G10G02G04G12G05
 130441068.876 6 101642451.20843  24822124.313                    24822134.875
 116013695.194 7  90400338.27745  22076674.023                    22076681.754
 120161238.627 7  93632222.039 7  22865928.633                    22865939.227
 125934212.334 6  98130613.590 6  23964477.609                    23964486.141
 111213379.421 8  86659901.31945  21163187.695                    21163195.156
 108845353.571 8  84814688.20146  20712565.156                    20712570.086
 119579404.390 7  93178921.12344  22755194.578                    22755203.137
 109509575.095 8  85332208.996 7  20838979.391                    20838986.445
 110192912.456 8  85864677.472 7  20968997.859                    20969005.500
 11  8 13  1 25 30.0000000  0  9G09G30G25G17G10G02G04G12G05
 130523794.064 6 101706912.43143  24837865.523                    24837878.258
 115951670.650 7  90352007.51645  22064870.859                    22064878.797
 120081495.957 7  93570084.939 7  22850753.875                    22850764.820
 126000223.083 6  98182050.494 5  23977039.844                    23977047.363
 111255644.850 8  86692835.41746  21171229.852                    21171237.754
 108862602.707 8  84828129.10346  20715847.328                    20715852.984
 119661749.326 7  93243085.97644  22770864.156                    22770872.660
 109487093.680 8  85314691.011 7  20834701.211                    20834707.922
 110130427.952 8  85815988.290 7  20957107.836                    20957115.406
 11  8 13  1 26  0.0000000  0  9G09G30G25G17G10G02G04G12G05
 130606449.558 6 101771319.24243  24853594.195                    24853606.832
 115890153.378 7  90304072.03845  22053164.367                    22053172.934
 120002121.560 7  93508234.776 7  22835650.109                    22835659.988
 126066417.215 6  98233630.333 6  23989635.711                    23989644.582
 111298489.981 8  86726221.22445  21179383.625                    21179391.293
 108880062.102 8  84841733.84046  20719169.508                    20719175.023
 119744119.653 7  93307270.61844  22786538.867                    22786546.926
 109465173.589 8  85297610.437 7  20830530.148                    20830537.109
 110068424.932 8  85767674.301 7  20945309.078                    20945316.586
 11  8 13  1 26 30.0000000  0  8G30G25G17G10G02G04G12G05
 115829146.245 7  90256534.04745  22041555.211                    22041563.582
 119923118.682 7  93446674.112 7  22820615.555                    22820626.836
 126132796.022 6  98285354.068 5  24002268.359                    24002275.090
 111341914.138 8  86760058.23345  21187646.695                    21187654.055
 108897731.627 8  84855502.31246  20722532.313                    20722537.191
 119826514.594 7  93371474.46744  22802217.914                    22802226.371
 109443816.682 8  85280968.705 7  20826465.961                    20826473.188
 110006905.792 8  85719737.351 7  20933602.148                    20933610.043
 11  8 13  1 27  0.0000000  0  8G30G25G17G10G02G04G12G05
 115768650.848 7  90209394.82745  22030043.281                    22030051.793
 119844489.273 7  93385404.464 7  22805652.883                    22805663.898
 126199358.764 6  98337221.121 6  24014934.219                    24014942.121
 111385914.996 7  86794344.63145  21196019.820                    21196027.207
 108915609.292 8  84869432.98046  20725934.109                    20725939.301
 119908932.366 7  93435696.10344  22817901.703                    22817909.887
 109423023.381 8  85264766.144 7  20822508.695                    20822515.836
 109945872.229 8  85672178.781 7  20921988.008                    20921995.418
 11  8 13  1 27 30.0000000  0  8G30G25G17G10G02G04G12G05
 115708669.100 7  90162655.83445  22018628.922                    22018637.375
 119766235.707 7  93324427.674 7  22790761.938                    22790772.363
 126266105.281 6  98389231.372 6  24027634.953                    24027644.262
 111430490.664 8  86829078.92345  21204502.625                    21204510.176
 108933693.686 8  84883524.71546  20729375.688                    20729380.820
 119991371.509 7  93499934.36344  22833588.945                    22833597.664
 109402794.779 8  85249003.599 7  20818659.852                    20818666.594
 109885326.133 8  85625000.058 7  20910466.656                    20910474.219
 11  8 13  1 28  0.0000000  0  8G30G25G17G10G02G04G12G05
 115649202.957 7  90116318.62145  22007312.961                    22007320.852
 119688360.420 7  93263745.647 7  22775942.664                    22775952.906
 126333035.900 6  98441385.085 6  24040371.453                    24040380.191
 111475639.292 7  86864259.67145  21213094.273                    21213101.699
 108951983.793 8  84897776.75146  20732856.156                    20732860.902
 120073830.618 7  93564188.19144  22849280.508                    22849289.020
 109383131.977 8  85233681.937 7  20814918.008                    20814924.875
 109825269.200 8  85578202.502 7  20899037.891                    20899045.605
 11  8 13  1 28 30.0000000  0  8G30G25G17G10G02G04G12G05
 115590254.608 7  90070384.90245  21996095.180                    21996103.938
 119610866.050 7  93203360.463 7  22761196.266                    22761206.711
 126400150.750 6  98493682.302 6  24053144.195                    24053151.793
 111521359.100 8  86899885.48645  21221793.828                    21221801.664
 108970478.295 8  84912188.05946  20736375.336                    20736381.004
 120156308.520 7  93628456.65244  22864976.242                    22864983.965
 109364035.574 8  85218801.626 7  20811284.273                    20811290.820
 109765703.609 8  85531787.803 7  20887702.734                    20887710.539
 11  8 13  1 29  0.0000000  0  8G30G25G17G10G02G04G12G05
 115531826.292 7  90024856.39645  21984976.688                    21984985.121
 119533755.206 7  93143274.122 7  22746522.430                    22746532.805
 126467450.044 6  98546123.248 6  24065950.445                    24065958.531
 111567648.782 8  86935955.37645  21230602.672                    21230610.223
 108989176.298 8  84926757.93646  20739933.781                    20739938.688
 120238804.084 7  93692738.87844  22880673.977                    22880682.668
 109345506.645 8  85204363.506 7  20807758.273                    20807764.895
 109706631.330 8  85485757.506 7  20876461.617                    20876469.125
 11  8 13  1 29 30.0000000  0  8G30G25G17G10G02G04G12G05
 115473919.755 7  89979734.46445  21973957.883                    21973966.090
 119457030.050 7  93083488.307 7  22731922.063                    22731932.809
 126534933.523 7  98598707.751 6  24078792.570                    24078801.074
 111614506.018 7  86972467.51245  21239518.984                    21239526.707
 109008076.061 8  84941485.02246  20743529.797                    20743535.066
 120321315.730 7  93757033.65444  22896375.688                    22896383.898
 109327545.792 8  85190368.033 7  20804340.227                    20804347.512
 109648054.053 8  85440112.930 8  20865315.016                    20865322.469
 11  8 13  1 30  0.0000000  0  8G30G25G17G10G02G04G12G05
 115416537.392 7  89935020.97645  21963038.398                    21963046.770
 119380693.509 7  93024005.323 7  22717395.742                    22717405.723
 126602601.692 7  98651436.149 6  24091669.461                    24091677.238
 111661929.319 8  87009420.74745  21248543.125                    21248551.070
 109027177.304 8  84956369.10946  20747164.680                    20747170.379
 120403842.559 7  93821340.28044  22912079.719                    22912088.387
 109310154.375 8  85176816.283 7  20801030.727                    20801037.738
 109589974.080 8  85394855.862 8  20854262.461                    20854269.926
 11  8 13  1 30 30.0000000  0  8G30G25G17G10G02G04G12G05
 115359681.141 7  89890717.42645  21952218.586                    21952226.879
 119304747.880 7  92964826.939 7  22702943.523                    22702954.324
 126670454.230 7  98704308.215 6  24104581.336                    24104589.598
 111709916.546 7  87046813.41445  21257675.406                    21257682.555
 109046478.482 8  84971408.97946  20750837.719                    20750843.125
 120486383.558 7  93885657.96544  22927787.102                    22927795.086
 109293333.208 8  85163708.877 7  20797829.844                    20797836.906
 109532393.230 8  85349987.711 8  20843304.992                    20843312.801
 11  8 13  1 31  0.0000000  0  8G30G25G17G10G02G04G12G05
 115303352.869 7  89846825.30545  21941499.992                    21941507.555
 119229195.656 7  92905955.106 7  22688566.813                    22688576.883
 126738491.571 7  98757324.318 6  24117527.914                    24117536.270
 111758465.913 8  87084644.09045  21266914.086                    21266921.254
 109065978.676 8  84986603.92246  20754548.531                    20754553.758
 120568937.451 7  93949985.72044  22943495.852                    22943504.816
 109277083.094 8  85151046.445 7  20794737.781                    20794744.590
 109475313.158 8  85305509.783 7  20832443.172                    20832450.867
 11  8 13  1 31 30.0000000  0  8G30G25G17G10G02G04G12G05
 115247554.583 7  89803346.15245  21930881.820                    21930890.059
 119154039.251 7  92847391.719 7  22674264.516                    22674275.352
 126806713.683 7  98810484.360 6  24130510.539                    24130518.852
 111807575.387 8  87122911.21645  21276259.195                    21276266.402
 109085676.511 8  85001952.86246  20758296.758                    20758302.008
 120651502.688 7  94014322.27144  22959207.906                    22959216.742
 109261404.506 8  85138829.366 7  20791753.914                    20791760.785
 109418735.562 8  85261423.399 7  20821676.852                    20821684.617
 11  8 13  1 32  0.0000000  0  8G30G25G17G10G02G04G12G05
 115192288.297 7  89760281.53245  21920364.688                    21920373.195
 119079281.302 7  92789138.832 7  22660038.898                    22660048.996
 126875120.659 7  98863788.461 6  24143527.711                    24143535.957
 111857243.190 8  87161613.39345  21285710.461                    21285717.906
 109105570.916 8  85017454.98546  20762082.570                    20762087.902
 120734078.330 7  94078666.92944  22974921.563                    22974929.789
 109246298.848 8  85127058.725 7  20788879.258                    20788886.094
 109362662.529 8  85217730.173 7  20811006.063                    20811013.684
 11  8 13  1 32 30.0000000  0  8G30G25G17G10G02G04G12G05
 115137556.164 7  89717633.13445  21909949.719                    21909957.711
 119004924.469 7  92731198.512 7  22645889.000                    22645899.422
 126943712.816 6  98917236.848 6  24156580.813                    24156589.734
 111907467.630 7  87200749.32845  21295267.430                    21295275.184
 109125661.341 8  85033109.84746  20765906.055                    20765911.148
 120816663.295 7  94143018.84144  22990637.063                    22990644.699
 109231767.080 8  85115735.269 7  20786114.180                    20786121.246
 109307096.249 8  85174431.824 7  20800432.477                    20800440.258
 11  8 13  1 33  0.0000000  0  8G30G25G17G10G02G04G12G05
 115083359.804 7  89675402.20845  21899636.438                    21899644.602
 118930970.785 7  92673572.328 7  22631816.055                    22631826.809
 127012489.930 6  98970829.373 6  24169668.898                    24169676.766
 111958246.582 8  87240317.33945  21304930.898                    21304937.910
 109145945.768 8  85048915.88946  20769765.945                    20769771.383
 120899256.241 7  94207376.97944  23006353.516                    23006362.305
 109217809.301 8  85104859.080 7  20783457.984                    20783465.242
 109252037.886 8  85131529.250 7  20789955.070                    20789962.516
 11  8 13  1 33 30.0000000  0  8G30G25G17G10G02G04G12G05
 115029701.333 7  89633590.43345  21889425.375                    21889433.719
 118857422.897 7  92616262.340 7  22617820.063                    22617830.738
 127081452.140 6  99024566.116 6  24182791.922                    24182800.250
 112009578.167 8  87280315.97645  21314699.063                    21314706.340
 109166423.637 8  85064872.66946  20773662.531                    20773667.910
 120981856.089 6  94271740.49344  23022072.336                    23022080.145
 109204426.203 8  85094430.699 8  20780911.484                    20780918.688
 109197489.400 8  85089023.984 8  20779574.852                    20779582.277
 11  8 13  1 34  0.0000000  0  8G30G25G17G10G02G04G12G05
 114976582.491 7  89592199.15345  21879317.242                    21879325.488
 118784283.153 7  92559270.393 7  22603902.148                    22603912.504
 127150599.333 6  99078446.981 6  24195950.055                    24195958.414
 112061459.987 7  87320743.36145  21324571.633                    21324579.582
 109187093.687 8  85080979.19346  20777595.992                    20777601.547
 121064461.695 7  94336108.53544  23037791.273                    23037799.586
 109191618.656 8  85084450.799 7  20778474.523                    20778481.281
 109143452.674 8  85046917.498 8  20769291.852                    20769299.543
 11  8 13  1 34 30.0000000  0  8G30G25G17G10G02G04G12G05
 114924005.069 7  89551229.74845  21869312.688                    21869320.586
 118711553.866 7  92502598.269 7  22590062.352                    22590072.641
 127219931.621 6  99132472.087 6  24209142.680                    24209151.754
 112113890.084 7  87361597.98445  21334548.781                    21334556.371
 109207954.729 8  85097234.54746  20781565.867                    20781571.000
 121147071.770 7  94400480.02344  23053511.609                    23053520.457
 109179387.370 8  85074919.928 7  20776146.797                    20776153.734
 109089928.976 8  85005210.762 8  20759106.711                    20759114.652
 11  8 13  1 35  0.0000000  0  8G30G25G17G10G02G04G12G05
 114871971.196 8  89510683.89945  21859410.500                    21859418.625
 118639237.711 7  92446248.070 7  22576301.125                    22576311.176
 127289449.011 6  99186641.428 6  24222371.938                    24222380.391
 112166866.960 7  87402878.65845  21344629.641                    21344637.535
 109229005.931 8  85113638.08946  20785571.188                    20785577.137
 121229685.602 7  94464854.45644  23069232.258                    23069240.789
 109167733.257 8  85065838.807 7  20773928.969                    20773935.934
 109036920.687 8  84963905.646 7  20749019.359                    20749026.895
 11  8 13  1 35 30.0000000  0  8G30G25G17G10G02G04G12G05
 114820482.695 7  89470562.99945  21849612.141                    21849620.363
 118567337.065 7  92390221.645 7  22562618.727                    22562629.082
 127359151.621 6  99240955.123 6  24235636.211                    24235644.508
 112220388.271 7  87444583.56945  21354815.180                    21354822.316
 109250246.130 7  85130188.88246  20789613.398                    20789618.820
 121312301.815 7  94529230.73844  23084953.695                    23084961.887
 109156656.660 8  85057207.709 7  20771821.484                    20771828.219
 108984429.220 8  84923003.242 8  20739030.828                    20739037.809
 11  8 13  1 36  0.0000000  0  9G29G30G25G17G10G02G04G12G05
 129606189.52615                  24663239.703
 114769541.243 7  89430868.39945  21839918.555                    21839926.734
 118495854.226 7  92334520.759 7  22549015.852                    22549026.238
 127429039.391 6  99295413.118 6  24248934.969                    24248943.641
 112274451.720 7  87486710.93945  21365103.023                    21365110.332
 109271674.103 8  85146886.00646  20793690.898                    20793696.270
 121394919.285 6  94593607.98444  23100674.711                    23100683.848
 109146158.225 8  85049027.110 7  20769823.852                    20769830.344
 108932456.088 8  84882504.741 8  20729140.602                    20729148.016
 11  8 13  1 36 30.0000000  0  9G29G30G25G17G10G02G04G12G05
 129526434.513 6 100929740.96815  24648062.727                    24648073.059
 114719148.819 7  89391601.60845  21830328.781                    21830337.434
 118424791.855 7  92279147.525 7  22535492.680                    22535503.098
 127499112.761 6  99350015.712 6  24262270.484                    24262278.434
 112329055.701 7  87529259.50645  21375493.500                    21375501.039
 109293288.990 8  85163728.78246  20797804.477                    20797809.625
 121477537.169 6  94657985.51744  23116396.938                    23116405.492
 109136239.005 8  85041297.874 7  20767935.758                    20767942.719
 108881003.425 8  84842411.814 7  20719349.266                    20719356.699
 11  8 13  1 37  0.0000000  0  9G29G30G25G17G10G02G04G12G05
 129446606.042 6 100867536.978 5  24632872.102                    24632882.555
 114669307.320 7  89352764.09945  21820844.742                    21820852.977
 118354152.325 7  92224103.764 7  22522051.102                    22522060.648
 127569371.348 6  99404762.630 5  24275639.320                    24275647.949
 112384197.905 7  87572227.47345  21385987.070                    21385994.082
 109315089.760 8  85180716.40146  20801952.539                    20801958.027
 121560154.552 6  94722362.69644  23132118.641                    23132126.758
 109126899.216 8  85034020.119 7  20766158.625                    20766165.453
 108830072.764 8  84802725.633 8  20709657.461                    20709665.371
 11  8 13  1 37 30.0000000  0  9G29G30G25G17G10G02G04G12G05
 129366703.739 6 100805275.504 5  24617668.242                    24617676.828
 114620018.381 8  89314357.16845  21811465.328                    21811473.699
 118283937.923 7  92169391.283 7  22508689.906                    22508699.621
 127639815.219 6  99459653.899 5  24289044.297                    24289053.184
 112439876.334 8  87615613.26145  21396582.453                    21396589.781
 109337075.337 8  85197848.03546  20806136.563                    20806141.664
 121642770.209 7  94786738.52844  23147840.484                    23147847.988
 109118139.472 8  85027194.347 8  20764491.563                    20764498.254
 108779665.441 8  84763447.247 8  20700065.297                    20700072.516
 11  8 13  1 38  0.0000000  0  9G29G30G25G17G10G02G04G12G05
 129286727.959 6 100742956.718 5  24602449.461                    24602457.750
 114571283.411 8  89276381.90145  21802191.180                    21802199.164
 118214150.758 7  92115011.712 7  22495409.219                    22495419.508
 127710444.152 6  99514689.409 5  24302485.023                    24302493.289
 112496088.691 7  87659415.12345  21407278.867                    21407286.234
 109359244.148 8  85215122.44246  20810355.328                    20810360.359
 121725382.848 7  94851112.02344  23163560.602                    23163569.250
 109109959.775 8  85020820.563 7  20762934.969                    20762942.035
 108729782.935 8  84724577.806 8  20690573.000                    20690580.098
 11  8 13  1 38 30.0000000  0  9G29G30G25G17G10G02G04G12G05
 129206679.476 6 100680581.302 5  24587216.336                    24587224.828
 114523104.391 8  89238839.84545  21793023.109                    21793030.770
 118144793.331 7  92060966.979 7  22482211.063                    22482221.227
 127781258.027 6  99569869.005 6  24315960.078                    24315969.602
 112552832.737 7  87703631.27945  21418076.578                    21418084.453
 109381595.465 8  85232539.07046  20814608.266                    20814613.871
 121807991.308 7  94915482.26244  23179280.469                    23179288.422
 109102361.269 8  85014899.650 8  20761489.352                    20761495.816
 108680427.157 8  84686118.816 8  20681180.906                    20681188.098
 11  8 13  1 39  0.0000000  0  9G29G30G25G17G10G02G04G12G05
 129126558.583 6 100618149.456 5  24571969.938                    24571978.648
 114475482.732 7  89201732.09945  21783960.992                    21783969.188
 118075867.915 7  92007258.887 7  22469095.039                    22469105.270
 127852257.172 6  99625193.030 6  24329470.375                    24329479.992
 112610106.425 7  87748260.12945  21428975.750                    21428983.074
 109404128.244 8  85250097.08746  20818896.547                    20818901.211
 121890594.758 7  94979848.59444  23194999.547                    23195007.777
 109095344.083 8  85009431.734 8  20760153.844                    20760160.828
 108631599.392 8  84648071.247 8  20671889.156                    20671896.504
 11  8 13  1 39 30.0000000  0  9G29G30G25G17G10G02G04G12G05
 129046365.877 6 100555661.682 5  24556708.914                    24556718.746
 114428420.321 8  89165060.11745  21775005.516                    21775013.387
 118007376.766 7  91953889.199 7  22456061.391                    22456072.336
 127923441.351 6  99680661.256 6  24343016.844                    24343026.035
 112667907.528 7  87793299.95245  21439974.305                    21439982.129
 109426841.332 8  85267795.60546  20823218.188                    20823223.727
 121973192.152 7  95044210.18344  23210716.953                    23210726.055
 109088908.793 8  85004417.236 7  20758929.172                    20758936.195
 108583301.158 8  84610436.312 7  20662698.328                    20662705.449
 11  8 13  1 40  0.0000000  0  9G29G30G25G17G10G02G04G12G05
 128966101.870 6 100493118.297 6  24541435.984                    24541445.270
 114381918.660 8  89128825.09745  21766156.438                    21766164.551
 117939322.239 7  91900859.737 7  22443111.203                    22443121.660
 127994810.443 6  99736273.547 6  24356598.117                    24356606.387
 112726233.871 7  87838749.06945  21451073.828                    21451080.906
 109449733.443 8  85285633.63446  20827574.891                    20827579.855
 122055782.521 7  95108566.28244  23226433.734                    23226442.012
 109083055.171 8  84999855.992 7  20757815.195                    20757822.477
 108535533.944 8  84573215.150 8  20653608.602                    20653615.660
 11  8 13  1 40 30.0000000  0  9G29G30G25G17G10G02G04G12G05
 128885767.373 6 100430519.979 6  24526148.273                    24526158.496
 114335979.307 8  89093028.23645  21757414.836                    21757422.887
 117871706.635 7  91848172.279 7  22430244.383                    22430254.762
 128066364.381 6  99792029.890 6  24370214.188                    24370222.551
 112785082.902 7  87884605.45445  21462272.570                    21462279.941
 109472803.523 7  85303610.34446  20831964.563                    20831969.824
 122138364.666 7  95172915.96344  23242148.516                    23242157.105
 109077783.949 8  84995748.560 7  20756812.164                    20756819.230
 108488299.235 8  84536408.931 8  20644619.984                    20644627.020
 11  8 13  1 41  0.0000000  0  9G29G30G25G17G10G02G04G12G05
 128805362.936 7 100367867.151 6  24510848.797                    24510858.164
 114290603.892 7  89057670.79945  21748779.539                    21748787.555
 117804532.232 7  91795828.616 7  22417461.211                    22417471.340
 128138103.350 6  99847930.443 6  24383865.602                    24383874.691
 112844452.392 7  87930867.40845  21473569.883                    21473577.488
 109496050.930 8  85321725.23846  20836388.438                    20836393.660
 122220937.573 6  95237258.47244  23257861.086                    23257870.207
 109073095.643 8  84992095.348 7  20755919.727                    20755927.008
 108441598.447 8  84500018.750 7  20635733.180                    20635740.039
 11  8 13  1 41 30.0000000  0  9G29G30G25G17G10G02G04G12G05
 128724889.155 6 100305160.306 6  24495533.844                    24495544.340
 114245794.244 8  89022754.22745  21740252.508                    21740260.586
 117737801.449 7  91743830.652 7  22404762.898                    22404773.309
 128210026.980 6  99903974.856 6  24397552.219                    24397560.613
 112904340.380 7  87977533.38245  21484966.516                    21484973.852
 109519474.613 8  85339977.48246  20840845.961                    20840851.004
 122303500.555 6  95301593.23544  23273572.438                    23273581.199
 109068990.613 7  84988896.644 7  20755138.984                    20755146.004
 108395433.229 8  84464045.890 7  20626947.867                    20626955.109
 11  8 13  1 42  0.0000000  0  9G29G30G25G17G10G02G04G12G05
 128644346.579 6 100242399.860 6  24480207.367                    24480217.586
 114201551.809 7  88988279.63345  21731833.602                    21731841.988
 117671516.567 7  91692180.144 7  22392149.242                    22392159.480
 128282135.151 6  99960163.037 6  24411274.109                    24411282.539
 112964744.426 7  88024601.49545  21496460.695                    21496468.617
 109543073.271 8  85358366.07946  20845336.461                    20845341.777
 122386052.538 6  95365919.47443  23289281.711                    23289290.887
 109065469.193 8  84986152.686 7  20754468.711                    20754475.379
 108349804.975 8  84428491.440 7  20618265.656                    20618272.539
 11  8 13  1 42 30.0000000  0  9G29G30G25G17G10G02G04G12G05
 128563735.719 6 100179586.219 6  24464868.406                    24464877.934
 114157878.127 8  88954248.21245  21723522.750                    21723530.641
 117605679.690 7  91640878.735 7  22379621.039                    22379630.898
 128354428.097 6 100016495.266 6  24425030.984                    24425040.035
 113025662.283 7  88072069.95645  21508052.875                    21508060.840
 109566846.039 8  85376890.33646  20849860.125                    20849865.391
 122468592.592 7  95430236.36844  23304989.016                    23304997.594
 109062531.636 8  84983863.696 7  20753909.656                    20753916.770
 108304714.897 8  84393356.361 8  20609684.906                    20609691.789
 11  8 13  1 43  0.0000000  0  9G29G30G25G17G10G02G04G12G05
 128483057.264 6 100116719.929 6  24449514.859                    24449525.688
 114114774.553 8  88920661.03945  21715320.242                    21715328.012
 117540293.083 7  91589928.188 7  22367178.156                    22367188.230
 128426905.444 6 100072971.166 6  24438822.805                    24438831.910
 113087091.610 7  88119936.96145  21519742.898                    21519750.105
 109590791.597 8  85395549.23846  20854416.859                    20854422.250
 122551119.729 7  95494543.23644  23320693.367                    23320701.379
 109060178.290 8  84982029.937 7  20753461.461                    20753468.352
 108260164.602 8  84358641.887 8  20601207.117                    20601214.441
 11  8 13  1 43 30.0000000  0  9G29G30G25G17G10G02G04G12G05
 128402311.835 6 100053801.442 6  24434150.406                    24434159.977
 114072242.724 7  88887519.39445  21707226.953                    21707234.672
 117475359.047 7  91539330.301 7  22354822.063                    22354831.875
 128499567.076 6 100129590.626 6  24452650.164                    24452657.969
 113149030.234 7  88168200.82945  21531529.688                    21531536.773
 109614909.120 8  85414342.13346  20859006.320                    20859011.855
 122633632.972 7  95558839.27344  23336395.313                    23336403.480
 109058409.156 7  84980651.392 7  20753125.352                    20753131.988
 108216155.098 8  84324348.813 7  20592832.500                    20592839.504
 11  8 13  1 44  0.0000000  0  9G29G30G25G17G10G02G04G12G05
 128321500.205 6  99990831.428 6  24418771.977                    24418782.090
 114030284.108 7  88854824.39345  21699242.391                    21699250.324
 117410879.784 7  91489086.762 7  22342551.836                    22342561.734
 128572412.965 6 100186353.655 6  24466511.859                    24466520.023
 113211475.630 7  88216859.58445  21543412.289                    21543419.633
 109639197.707 8  85433268.33946  20863628.219                    20863633.391
 122716131.452 7  95623123.75743  23352094.070                    23352101.875
 109057224.430 8  84979728.242 7  20752899.539                    20752906.668
 108172687.966 8  84290478.357 8  20584560.758                    20584568.520
 11  8 13  1 44 30.0000000  0  9G29G30G25G17G10G02G04G12G05
 128240622.755 6  99927810.131 6  24403381.203                    24403390.773
 113988900.103 8  88822577.15545  21691367.156                    21691375.320
 117346857.526 7  91439199.337 7  22330368.523                    22330378.180
 128645443.163 6 100243260.348 6  24480408.547                    24480418.094
 113274425.519 7  88265911.44845  21555390.789                    21555398.887
 109663656.168 8  85452326.90746  20868282.508                    20868287.770
 122798614.100 6  95687395.96343  23367789.695                    23367797.688
 109056624.188 8  84979260.539 7  20752785.281                    20752792.266
 108129764.326 8  84257031.402 8  20576393.023                    20576400.246
 11  8 13  1 45  0.0000000  0  9G29G30G25G17G10G02G04G12G05
 128159680.450 6  99864738.315 6  24387977.898                    24387987.996
 113948092.193 7  88790778.80545  21683601.602                    21683609.379
 117283294.373 7  91389669.642 7  22318273.328                    22318282.855
 128718657.415 6 100300310.479 6  24494340.906                    24494349.559
 113337877.371 7  88315354.45645  21567465.469                    21567473.262
 109688283.849 8  85471517.33946  20872969.180                    20872974.559
 122881080.107 6  95751655.12343  23383482.336                    23383491.129
 109056608.677 8  84979248.459 7  20752782.500                    20752789.613
 108087385.614 8  84224009.074 8  20568328.555                    20568335.426
 11  8 13  1 45 30.0000000  0  8G29G30G25G10G02G04G12G05
 128078673.119 6  99801615.809 6  24372562.828                    24372573.105
 113907861.056 8  88759429.89145  21675945.586                    21675953.668
 117220191.981 7  91340498.988 7  22306264.977                    22306274.449
 113401828.291 7  88365186.33445  21579635.438                    21579642.832
 109713078.816 8  85490838.11346  20877687.234                    20877692.402
 122963528.150 6  95815900.34344  23399171.641                    23399180.480
 109057178.169 8  84979692.221 7  20752891.141                    20752897.555
 108045552.592 8  84191411.939 8  20560367.703                    20560374.824
 11  8 13  1 46  0.0000000  0  8G29G30G25G10G02G04G12G05
 127997601.956 6  99738443.568 6  24357135.797                    24357145.934
 113868208.363 8  88728531.70345  21668400.219                    21668408.191
 117157552.659 7  91291689.165 7  22294345.273                    22294355.059
 113466276.153 7  88415405.45045  21591899.391                    21591907.063
 109738040.249 8  85510288.59846  20882437.148                    20882442.602
 123045957.268 6  95880130.82543  23414857.250                    23414866.289
 109058331.925 8  84980591.269 8  20753110.203                    20753117.633
 108004266.461 8  84159240.972 8  20552511.320                    20552518.598
 11  8 13  1 46 30.0000000  0  8G29G30G25G10G02G04G12G05
 127916467.703 6  99675222.127 6  24341696.391                    24341705.613
 113829135.864 7  88698085.62145  21660964.992                    21660972.992
 117095379.041 7  91243242.238 7  22282513.695                    22282523.730
 113531219.199 7  88466010.43045  21604257.727                    21604265.004
 109763167.514 8  85529868.29846  20887219.258                    20887224.359
 123128367.146 6  95944346.29144  23430539.227                    23430548.680
 109060070.607 7  84981946.114 7  20753441.125                    20753448.164
 107963529.034 8  84127497.549 8  20544759.148                    20544766.309
 11  8 13  1 47  0.0000000  0  8G29G30G25G10G02G04G12G05
 127835271.360 6  99611952.312 6  24326245.836                    24326255.219
 113790645.089 7  88668092.81445  21653640.602                    21653648.176
 117033673.436 7  91195159.996 7  22270771.695                    22270781.520
 113596654.924 7  88516999.30945  21616709.430                    21616716.875
 109788460.064 8  85549576.78046  20892032.047                    20892037.078
 123210757.083 6  96008546.24244  23446217.961                    23446226.891
 109062394.938 8  84983757.297 7  20753883.563                    20753890.516
 107923341.550 8  84096182.661 8  20537111.469                    20537118.805
 11  8 13  1 47 30.0000000  0  8G29G30G25G10G02G04G12G05
 127754013.330 7  99548634.367 6  24310782.367                    24310791.699
 113752737.013 7  88638554.06845  21646426.539                    21646434.293
 116972437.686 8  91147443.860 7  22259119.000                    22259128.621
 113662580.470 7  88568369.85545  21629255.008                    21629262.527
 109813916.294 8  85569412.81946  20896876.258                    20896881.488
 123293125.807 6  96072729.62444  23461892.898                    23461901.027
 109065304.441 8  84986024.459 7  20754437.609                    20754444.395
 107883705.072 8  84065297.131 8  20529569.367                    20529576.734
 11  8 13  1 48  0.0000000  0  8G29G30G25G10G02G04G12G05
 127672694.235 7  99485268.865 6  24295308.578                    24295317.008
 113715412.766 7  88609470.24145  21639324.102                    21639332.176
 116911673.749 7  91100095.379 7  22247555.898                    22247566.090
 113728993.590 7  88620120.35245  21641893.086                    21641900.082
 109839535.373 8  85589375.73846  20901751.070                    20901756.230
 123375472.534 7  96136895.90143  23477562.070                    23477571.359
 109068798.845 8  84988747.406 8  20755102.008                    20755109.078
 107844620.407 8  84034841.585 8  20522131.586                    20522138.734
 11  8 13  1 48 30.0000000  0  8G29G30G25G10G02G04G12G05
 127591315.357 7  99421856.779 6  24279821.711                    24279830.902
 113678674.108 8  88580842.71945  21632333.297                    21632340.934
 116851384.126 8  91053116.488 7  22236082.820                    22236093.039
 113795892.013 7  88672248.99545  21654622.727                    21654630.469
 109865316.623 8  85609465.04646  20906657.430                    20906662.473
 123457796.771 6  96201044.68044  23493228.195                    23493236.699
 109072878.660 8  84991926.506 7  20755878.477                    20755885.578
 107806088.953 8  84004817.127 8  20514799.039                    20514805.898
 11  8 13  1 49  0.0000000  0  8G29G30G25G10G02G04G12G05
 127509876.811 7  99358398.212 6  24264324.383                    24264334.008
 113642521.833 7  88552672.10745  21625453.453                    21625461.855
 116791570.531 8  91006508.527 7  22224700.398                    22224710.828
 113863273.033 8  88724753.68645  21667445.500                    21667452.750
 109891258.738 8  85629679.67746  20911593.898                    20911598.789
 123540097.386 7  96265175.04944  23508890.266                    23508897.648
 109077543.165 8  84995561.213 7  20756766.188                    20756773.078
 107768111.760 8  83975224.577 8  20507572.297                    20507579.137
 11  8 13  1 49 30.0000000  0  8G29G30G25G10G02G04G12G05
 127428379.907 6  99294894.180 6  24248816.656                    24248826.117
 113606957.442 8  88524959.61145  21618685.258                    21618694.316
 116732235.330 8  90960273.330 7  22213409.664                    22213419.742
 113931134.093 7  88777632.45845  21680358.992                    21680366.070
 109917360.992 8  85650019.10746  20916561.047                    20916566.145
 123622373.607 7  96329286.40244  23524546.703                    23524554.758
 109082792.670 8  84999651.769 7  20757764.938                    20757771.859
 107730690.169 8  83946064.967 8  20500451.227                    20500458.152
 11  8 13  1 50  0.0000000  0  8G29G30G25G10G02G04G12G05
 127346825.079 6  99231344.984 6  24233297.227                    24233306.594
 113571981.968 7  88497706.00045  21612029.945                    21612038.176
 116673380.463 8  90914412.423 7  22202209.813                    22202220.133
 113999472.822 7  88830883.42545  21693363.547                    21693371.250
 109943622.527 8  85670482.64446  20921558.320                    20921563.375
 123704624.662 7  96393378.12543  23540197.883                    23540206.898
 109088627.159 8  85004198.147 7  20758875.320                    20758882.313
 107693824.839 8  83917338.790 8  20493436.172                    20493442.523
 11  8 13  1 50 30.0000000  0  8G29G30G25G10G02G04G12G05
 127265213.207 6  99167751.376 6  24217766.953                    24217776.762
 113537596.524 7  88470912.16345  21605486.938                    21605494.566
 116615007.905 8  90868927.323 7  22191101.813                    22191111.785
 114068286.749 7  88884504.65745  21706457.867                    21706465.652
 109970042.172 8  85691069.38446  20926585.633                    20926590.938
 123786849.728 6  96457449.58744  23555844.789                    23555853.469
 109095046.514 8  85009200.263 7  20760096.891                    20760103.609
 107657516.832 7  83889046.870 8  20486526.891                    20486533.789
 11  8 13  1 51  0.0000000  0  8G29G30G25G10G02G04G12G05
 127183545.031 6  99104113.956 6  24202225.008                    24202235.465
 113503802.480 7  88444579.13545  21599055.586                    21599064.277
 116557119.835 7  90823819.756 7  22180086.281                    22180096.461
 114137573.426 7  88938494.28045  21719642.602                    21719650.406
 109996619.213 8  85711778.76646  20931643.063                    20931648.465
 123869048.154 6  96521500.26843  23571486.148                    23571495.324
 109102050.921 8  85014658.262 7  20761429.805                    20761436.703
 107621767.285 8  83861190.129 8  20479723.984                    20479730.984
 11  8 13  1 51 30.0000000  0  8G29G30G25G10G02G04G12G05
 127101820.957 6  99040432.978 6  24186674.117                    24186683.625
 113470600.434 7  88418707.42245  21592737.734                    21592745.820
 116499717.826 7  90779090.922 7  22169162.820                    22169173.004
 114207329.866 7  88992849.95245  21732916.930                    21732924.414
 110023352.038 8  85732609.53746  20936729.969                    20936735.477
 123951218.744 7  96585529.29544  23587123.523                    23587132.027
 109109638.922 8  85020570.997 7  20762873.727                    20762880.297
 107586576.918 8  83833769.089 8  20473027.250                    20473033.898
 11  8 13  1 52  0.0000000  0  8G29G30G25G10G02G04G12G05
 127020042.076 6  98976709.270 6  24171111.438                    24171121.211
 113437991.865 8  88393298.17045  21586533.078                    21586540.617
 116442804.261 8  90734742.709 7  22158332.898                    22158342.355
 114277553.791 7  89047569.89545  21746279.945                    21746288.008
 110050240.385 8  85753561.49546  20941847.023                    20941852.137
 124033361.061 7  96649536.29644  23602754.453                    23602763.297
 109117811.099 8  85026938.935 7  20764428.867                    20764435.531
 107551947.178 8  83806784.909 8  20466437.086                    20466444.250
 11  8 13  1 52 30.0000000  0  8G29G30G25G10G02G04G12G05
 126938209.144 6  98912943.428 6  24155539.203                    24155548.801
 113405977.769 7  88368352.13545  21580440.313                    21580448.469
 116386381.026 8  90690776.560 7  22147595.664                    22147605.438
 114348242.587 7  89102652.07945  21759732.086                    21759739.102
 110077282.964 8  85774633.63146  20946992.844                    20946998.207
 124115474.401 7  96713520.70944  23618380.625                    23618389.027
 109126567.356 8  85033761.993 7  20766094.953                    20766101.895
 107517878.575 7  83780237.982 8  20459954.297                    20459961.188
 11  8 13  1 53  0.0000000  0  8G29G30G25G10G02G04G12G05
 126856323.013 6  98849136.147 6  24139956.867                    24139966.941
 113374559.068 7  88343870.04945  21574461.930                    21574469.797
 116330449.993 8  90647193.945 7  22136951.914                    22136962.074
 114419393.553 7  89158094.37745  21773271.813                    21773278.734
 110104479.023 8  85795825.34846  20952168.180                    20952173.449
 124197557.879 7  96777481.85944  23634000.273                    23634008.941
 109135907.145 8  85041039.750 7  20767872.766                    20767879.359
 107484371.990 7  83754128.984 8  20453578.086                    20453585.262
 11  8 13  1 53 30.0000000  0  8G29G30G25G10G02G04G12G05
 126774384.472 6  98785288.005 6  24124363.586                    24124374.379
 113343736.889 8  88319852.79645  21568596.398                    21568604.141
 116275013.128 8  90603996.394 7  22126402.641                    22126413.551
 114491004.184 7  89213894.86245  21786898.508                    21786906.176
 110131827.685 8  85817135.99446  20957372.555                    20957377.516
 124279610.798 7  96841419.18543  23649613.836                    23649623.035
 109145830.332 8  85048772.106 7  20769760.438                    20769767.227
 107451428.461 8  83728458.716 8  20447309.320                    20447316.500
 11  8 13  1 54  0.0000000  0  8G29G30G25G10G02G04G12G05
 126692394.557 6  98721399.821 6  24108762.328                    24108771.371
 113313512.057 7  88296301.00445  21562844.938                    21562853.078
 116220072.313 8  90561185.366 7  22115948.023                    22115958.105
 114563071.804 7  89270051.43745  21800612.594                    21800620.301
 110159327.833 8  85838564.67446  20962605.422                    20962610.777
 124361632.086 7  96905331.89543  23665222.023                    23665230.813
 109156336.444 8  85056958.691 8  20771759.711                    20771766.719
 107419048.823 8  83703227.856 8  20441147.617                    20441154.543
 11  8 13  1 54 30.0000000  0  8G29G30G25G10G02G04G12G05
 126610353.947 6  98657472.085 6  24093150.984                    24093159.602
 113283885.636 7  88273215.52745  21557206.734                    21557215.145
 116165629.600 8  90518762.480 7  22105588.031                    22105597.906
 114635594.003 7  89326562.23745  21814413.250                    21814420.297
 110186978.757 8  85860110.85346  20967867.594                    20967872.602
 124443621.447 7  96969219.72343  23680824.008                    23680832.758
 109167425.362 8  85065599.398 7  20773870.250                    20773877.148
 107387234.027 8  83678437.122 8  20435093.484                    20435100.836
 11  8 13  1 55  0.0000000  0  8G29G30G25G10G02G04G12G05
 126528263.141 6  98593505.281 6  24077529.234                    24077538.508
 113254858.194 7  88250596.77345  21551683.508                    21551691.215
 116111686.483 8  90476728.884 7  22095322.727                    22095333.215
 114708567.792 7  89383424.92845  21828299.406                    21828306.984
 110214779.312 8  85881773.62746  20973157.453                    20973163.063
 124525577.949 6  97033081.92843  23696419.922                    23696428.793
 109179096.328 8  85074693.660 7  20776090.898                    20776097.563
 107355984.329 8  83654086.701 8  20429146.977                    20429154.043
 11  8 13  1 55 30.0000000  0  8G29G30G25G10G02G04G12G05
 126446123.301 7  98529500.231 6  24061898.656                    24061908.023
 113226430.951 7  88228445.72245  21546273.852                    21546281.738
 116058245.177 8  90435086.313 7  22085153.469                    22085163.383
 114781990.718 7  89440637.59045  21842271.383                    21842278.609
 110242728.794 7  85903552.44746  20978476.352                    20978481.270
 124607500.995 6  97096918.05543  23712009.695                    23712017.855
 109191349.471 8  85084241.560 7  20778422.680                    20778429.523
 107325300.925 8  83630177.582 8  20423308.016                    20423314.934
 11  8 13  1 56  0.0000000  0  8G29G30G25G10G02G04G12G05
 126363935.286 7  98465457.594 6  24046259.445                    24046268.063
 113198604.694 7  88206762.95245  21540978.703                    21540986.352
 116005307.439 8  90393836.150 7  22075079.430                    22075089.508
 114855860.065 7  89498198.10345  21856328.313                    21856336.016
 110270826.064 7  85925446.41746  20983823.258                    20983828.148
 124689389.568 7  97160727.34743  23727592.391                    23727601.219
 109204183.822 8  85094242.352 7  20780864.969                    20780872.066
 107295184.351 8  83606710.148 8  20417577.180                    20417584.262
 11  8 13  1 56 30.0000000  0  8G29G30G25G10G02G04G12G05
 126281699.924 7  98401378.072 5  24030609.992                    24030618.453
 113171380.407 7  88185549.26245  21535797.695                    21535806.020
 115952875.211 8  90352979.865 7  22065102.305                    22065112.672
 114930173.332 7  89556104.52445  21870469.641                    21870477.504
 110299070.686 8  85947455.22346  20989197.570                    20989202.563
 124771243.432 6  97224509.60643  23743169.555                    23743177.090
 109217599.078 8  85104695.798 7  20783417.719                    20783424.688
 107265635.636 8  83583685.193 8  20411953.992                    20411961.023
 11  8 13  1 57  0.0000000  0  8G29G30G25G10G02G04G12G05
 126199418.090 7  98337262.347 6  24014951.563                    24014960.492
 113144758.573 8  88164805.01745  21530731.969                    21530739.758
 115900949.991 8  90312518.680 7  22055220.844                    22055231.270
 115004927.674 7  89614354.65445  21884695.047                    21884702.477
 110327461.174 7  85969577.69346  20994600.422                    20994605.227
 124853061.539 6  97288263.98343  23758738.070                    23758747.113
 109231594.536 8  85115601.350 7  20786081.039                    20786088.184
 107236655.246 8  83561103.097 8  20406439.039                    20406446.164
 11  8 13  1 57 30.0000000  0  8G29G30G25G10G02G04G12G05
 126117090.627 6  98273111.083 6  23999285.648                    23999294.750
 113118740.069 8  88144530.89745  21525780.969                    21525788.629
 115849533.763 8  90272454.094 7  22045436.984                    22045447.172
 115080120.355 7  89672946.34845  21899003.547                    21899011.473
 110355996.870 8  85991813.31746  21000030.570                    21000035.590
 124934843.355 7  97351990.08343  23774301.352                    23774309.660
 109246170.227 8  85126959.027 7  20788854.719                    20788861.715
 107208243.773 8  83538964.321 8  20401032.625                    20401039.641
 11  8 13  1 58  0.0000000  0  8G29G30G25G10G02G04G12G05
 126034718.291 6  98208924.882 6  23983610.875                    23983620.254
 113093325.910 7  88124727.69145  21520944.195                    21520952.879
 115798628.425 8  90232787.633 7  22035749.766                    22035760.188
 115155749.129 7  89731877.86545  21913395.008                    21913403.211
 110384677.052 8  86014161.53346  21005488.383                    21005493.449
 125016588.313 7  97415687.47143  23789856.477                    23789864.727
 109261325.168 8  85138768.074 7  20791738.727                    20791745.641
 107180402.177 8  83517269.604 8  20395734.750                    20395741.625
 11  8 13  1 58 30.0000000  0  8G29G30G25G10G02G04G12G05
 125952302.812 6  98144705.050 6  23967927.844                    23967936.648
 113068516.710 8  88105395.88345  21516224.000                    21516231.551
 115748235.700 8  90193520.604 7  22026160.461                    22026170.410
 115231810.926 7  89791146.79845  21927869.352                    21927877.145
 110413500.930 8  86036621.71146  21010973.109                    21010978.332
 125098295.521 6  97479355.38644  23805404.336                    23805414.078
 109277058.925 8  85151028.134 7  20794732.750                    20794739.625
 107153130.854 8  83496019.242 8  20390545.266                    20390552.051
 11  8 13  1 59  0.0000000  0  8G29G30G25G10G02G04G12G05
 125869844.062 6  98080451.500 6  23952236.070                    23952245.004
 113044312.988 8  88086535.87045  21511617.570                    21511625.699
 115698357.144 8  90154654.239 7  22016668.711                    22016678.852
 115308302.806 7  89850750.86345  21942425.094                    21942432.840
 110442467.440 8  86059193.02646  21016485.461                    21016490.352
 125179964.624 6  97542993.61843  23820945.805                    23820954.930
 109293370.830 8  85163738.708 7  20797837.078                    20797843.445
 107126430.457 8  83475213.761 8  20385464.117                    20385470.969
 11  8 13  1 59 30.0000000  0  8G29G30G25G10G02G04G12G05
 125787343.989 6  98016165.765 6  23936536.875                    23936546.316
 113020715.465 7  88068148.23245  21507127.391                    21507134.820
 115648994.514 8  90116189.882 7  22007275.383                    22007285.758
 115385222.406 7  89910688.21445  21957062.633                    21957070.590
 110471575.784 8  86081874.87746  21022024.055                    21022029.383
 125261594.784 6  97606601.54843  23836479.469                    23836487.871
 109310260.660 8  85176899.606 7  20801050.680                    20801057.355
 107100301.415 8  83454853.515 8  20380491.711                    20380498.566
 11  8 13  2  0  0.0000000  0  8G29G30G25G10G02G04G12G05
 125704802.727 6  97951847.946 6  23920829.906                    23920839.285
 112997725.009 8  88050233.60945  21502752.477                    21502760.227
 115600149.660 8  90078128.998 7  21997980.469                    21997990.453
 115462567.226 7  89970956.90345  21971780.875                    21971788.363
 110500825.259 8  86104666.68846  21027590.109                    21027595.594
 125343185.372 6  97670178.64743  23852005.703                    23852014.309
 109327727.506 8  85190510.138 7  20804374.453                    20804381.102
 107074744.503 8  83434939.074 8  20375628.289                    20375635.563
 11  8 13  2  0 30.0000000  0  8G29G30G25G10G02G04G12G05
 125622221.669 6  97887499.098 6  23905115.102                    23905124.645
 112975342.238 7  88032792.52745  21498492.766                    21498500.844
 115551824.357 8  90040472.959 7  21988784.750                    21988794.629
 115540334.196 7  90031554.53145  21986579.375                    21986586.781
 110530214.984 8  86127567.78946  21033183.055                    21033188.047
 125424736.109 6  97733724.66643  23867524.789                    23867532.816
 109345771.031 8  85204570.018 7  20807808.172                    20807814.707
 107049760.388 8  83415470.987 8  20370873.859                    20370881.074
 11  8 13  2  1  0.0000000  0  8G29G30G25G10G02G04G12G05
 125539602.634 6  97823120.663 6  23889393.711                    23889402.953
 112953568.667 8  88015826.15045  21494349.523                    21494357.211
 115504021.183 8  90003223.792 7  21979687.555                    21979697.750
 115618521.646 7  90092479.81245  22001457.961                    22001465.617
 110559744.901 8  86150578.13546  21038802.266                    21038807.488
 125506247.097 6  97797239.72243  23883035.781                    23883043.941
 109364391.094 8  85219079.165 7  20811351.320                    20811358.363
 107025350.376 8  83396450.245 8  20366229.070                    20366235.727
 11  8 13  2  1 30.0000000  0  8G29G30G25G10G02G04G12G05
 125456945.420 6  97758712.478 6  23873664.328                    23873673.000
 112932403.558 7  87999333.88145  21490321.672                    21490329.543
 115456740.482 8  89966381.765 7  21970690.898                    21970700.590
 115697125.280 7  90153729.38745  22016415.445                    22016423.418
 110589413.120 8  86173696.25546  21044447.883                    21044453.488
 125587716.562 6  97860722.42443  23898538.117                    23898546.777
 109383585.828 8  85234036.107 7  20815003.945                    20815010.770
 107001513.470 8  83377876.077 8  20361693.109                    20361699.855
 11  8 13  2  2  0.0000000  0  8G29G30G25G10G02G04G12G05
 125374251.127 7  97694275.409 6  23857928.047                    23857937.020
 112911847.428 8  87983316.14845  21486410.336                    21486417.992
 115409983.806 8  89929948.064 7  21961793.227                    21961803.262
 115776142.892 7  90215301.54045  22031452.125                    22031459.695
 110619218.667 8  86196921.38646  21050119.961                    21050125.199
 125669143.881 7  97924172.28043  23914034.047                    23914042.031
 109403355.095 8  85249440.754 7  20818766.141                    20818772.973
 106978250.330 8  83359749.016 8  20357266.070                    20357272.953
 11  8 13  2  2 30.0000000  0  8G29G30G25G10G02G04G12G05
 125291520.905 7  97629810.341 6  23842184.492                    23842194.148
 112891901.148 8  87967773.61345  21482614.398                    21482622.063
 115363753.225 8  89893924.309 7  21952995.672                    21953005.285
 115855571.940 7  90277194.30745  22046567.242                    22046574.637
 110649161.173 8  86220253.23146  21055817.938                    21055823.012
 125750528.739 7  97987589.05143  23929520.766                    23929529.352
 109423697.702 8  85265292.143 7  20822637.180                    20822644.184
 106955561.686 8  83342069.609 8  20352948.461                    20352955.395
 11  8 13  2  3  0.0000000  0  8G29G30G25G10G02G04G12G05
 125208755.617 7  97565317.941 6  23826435.305                    23826444.457
 112872565.149 7  87952706.63545  21478935.078                    21478942.590
 115318050.102 8  89858311.556 7  21944298.719                    21944308.465
 115935409.384 7  90339405.28945  22061759.742                    22061767.473
 110679239.750 8  86243691.09446  21061541.461                    21061546.324
 125831870.522 7  98050972.26243  23944999.523                    23945008.055
 109444612.692 8  85281589.551 7  20826616.781                    20826623.949
 106933448.026 8  83324838.233 8  20348740.563                    20348747.305
 11  8 13  2  3 30.0000000  0  8G29G30G25G10G02G04G12G05
 125125955.938 7  97500798.732 6  23810678.141                    23810687.531
 112853839.574 8  87938115.31045  21475371.633                    21475379.566
 115272875.749 8  89823110.845 7  21935702.023                    21935712.152
 116015651.937 7  90401931.96145  22077029.688                    22077037.176
 110709453.244 8  86267234.09246  21067290.820                    21067296.043
 125913168.453 6  98114321.28843  23960469.844                    23960478.762
 109466099.047 8  85298332.173 7  20830705.586                    20830712.707
 106911909.249 8  83308054.814 8  20344641.781                    20344648.422
 11  8 13  2  4  0.0000000  0  8G29G30G25G10G02G04G12G05
 125043123.238 7  97436253.835 6  23794915.836                    23794924.969
 112835725.067 8  87924000.15145  21471924.188                    21471932.203
 115228231.961 8  89788323.543 7  21927206.867                    21927216.434
 116096297.279 7  90464772.47645  22092375.094                    22092383.391
 110739801.095 8  86290881.77846  21073065.805                    21073071.012
 125994422.125 6  98177635.80743  23975932.234                    23975940.379
 109488156.505 8  85315519.819 7  20834902.984                    20834910.465
 106890945.693 8  83291719.613 8  20340652.328                    20340659.234
 11  8 13  2  4 30.0000000  0  8G29G30G25G10G02G04G12G05
 124960258.751 7  97371684.155 6  23779147.133                    23779156.531
 112818222.140 7  87910361.54045  21468593.836                    21468601.715
 115184120.312 8  89753950.902 7  21918812.063                    21918822.184
 116177342.565 7  90527924.63045  22107798.016                    22107804.961
 110770282.575 8  86314633.58146  21078866.375                    21078871.203
 126075630.921 6  98240915.34143  23991385.727                    23991394.063
 109510783.978 8  85333151.649 7  20839208.695                    20839215.773
 106870558.032 8  83275833.165 8  20336772.680                    20336779.473
 11  8 13  2  5  0.0000000  0  8G29G30G25G10G02G04G12G05
 124877362.636 6  97307089.845 6  23763373.766                    23763381.930
 112801330.864 8  87897199.53445  21465379.320                    21465387.293
 115140542.083 8  89719993.893 7  21910519.820                    21910529.559
 116258784.875 7  90591386.16245  22123295.859                    22123303.426
 110800896.570 8  86338488.64346  21084691.977                    21084697.125
 126156794.295 6  98304159.51343  24006830.578                    24006839.965
 109533980.473 8  85351226.855 7  20843623.039                    20843629.563
 106850746.279 8  83260395.458 8  20333002.969                    20333009.961
 11  8 13  2  5 30.0000000  0  8G29G30G25G10G02G04G12G05
 124794436.674 6  97242472.303 6  23747592.195                    23747600.680
 112785051.499 7  87884514.34445  21462281.273                    21462289.316
 115097498.651 8  89686453.602 7  21902328.922                    21902338.105
 116340621.306 7  90655154.81744  22138868.859                    22138876.785
 110831642.304 8  86362446.37246  21090542.836                    21090547.676
 126237911.446 6  98367367.71543  24022266.148                    24022275.516
 109557744.871 8  85369744.580 7  20848145.359                    20848152.059
 106831510.602 8  83245406.655 8  20329342.508                    20329349.031
 11  8 13  2  6  0.0000000  0  8G29G30G25G10G02G04G12G05
 124711481.748 6  97177832.186 6  23731806.680                    23731814.602
 112769384.436 8  87872306.28245  21459300.211                    21459308.262
 115054991.522 8  89653331.206 7  21894239.891                    21894250.109
 116422849.045 7  90719228.37745  22154516.258                    22154524.027
 110862519.136 8  86386506.24146  21096418.516                    21096423.414
 126318982.331 6  98430539.82743  24037694.125                    24037702.574
 109582076.576 8  85388704.355 7  20852775.367                    20852782.398
 106812851.443 8  83230867.085 8  20325791.289                    20325798.160
 11  8 13  2  6 30.0000000  0  8G29G30G25G10G02G04G12G05
 124628499.460 6  97113170.790 6  23716014.914                    23716023.863
 112754330.304 8  87860575.81545  21456435.820                    21456443.258
 115013022.498 8  89620628.117 7  21886253.180                    21886263.418
 116505465.652 7  90783604.95345  22170237.664                    22170245.047
 110893526.698 8  86410667.97846  21102318.766                    21102324.148
 126400006.224 6  98493675.32343  24053111.867                    24053120.418
 109606974.712 8  85408105.528 7  20857513.664                    20857519.895
 106794769.294 8  83216777.131 8  20322350.508                    20322357.531
 11  8 13  2  7  0.0000000  0  8G29G30G25G10G02G04G12G05
 124545490.570 7  97048488.653 6  23700219.086                    23700227.957
 112739889.519 8  87849323.28346  21453687.477                    21453695.277
 114971593.106 8  89588345.520 7  21878369.508                    21878379.402
 116588468.329 7  90848282.35944  22186032.578                    22186040.691
 110924664.108 8  86434930.89046  21108243.977                    21108249.598
 126480983.171 6  98556774.23643  24068521.078                    24068530.469
 109632438.258 8  85427947.255 7  20862359.094                    20862366.020
 106777263.938 8  83203136.621 8  20319019.070                    20319026.082
 11  8 13  2  7 30.0000000  0  8G29G30G25G10G02G04G12G05
 124462456.377 7  96983786.827 6  23684417.898                    23684427.641
 112726062.121 8  87838548.71046  21451055.945                    21451064.148
 114930704.704 8  89556484.462 7  21870588.227                    21870598.668
 116671854.146 7  90913258.33745  22201900.188                    22201908.469
 110955930.841 8  86459294.56846  21114193.828                    21114198.957
 126561912.209 6  98619835.78643  24083922.070                    24083930.793
 109658466.300 8  85448228.878 7  20867311.742                    20867319.020
 106760335.814 8  83189945.908 8  20315798.102                    20315804.750
 11  8 13  2  8  0.0000000  0  8G29G30G25G10G02G04G12G05
 124379397.804 7  96919066.001 6  23668612.438                    23668622.113
 112712848.385 8  87828252.32246  21448541.695                    21448549.598
 114890358.586 8  89525045.945 7  21862911.055                    21862920.742
 116755620.326 7  90978530.70044  22217840.844                    22217848.504
 110987326.010 8  86483758.33646  21120168.156                    21120173.348
 126642793.194 6  98682859.94143  24099313.047                    24099321.813
 109685057.733 8  85468949.489 7  20872371.789                    20872379.008
 106743985.333 8  83177205.299 8  20312686.469                    20312693.633
 11  8 13  2  8 30.0000000  0  8G29G30G25G10G02G04G12G05
 124296315.968 7  96854327.042 6  23652803.070                    23652811.391
 112700248.402 7  87818434.18545  21446143.789                    21446151.637
 114850556.055 8  89494031.001 7  21855336.938                    21855346.602
 116839764.250 7  91044097.39944  22233852.758                    22233860.246
 111018848.624 8  86508321.41846  21126166.578                    21126171.859
 126723625.264 6  98745845.95943  24114695.016                    24114704.199
 109712211.361 8  85490108.174 7  20877539.406                    20877545.898
 106728212.323 8  83164914.665 8  20309684.984                    20309691.676
 11  8 13  2  9  0.0000000  0  8G29G30G25G10G02G04G12G05
 124213211.905 7  96789570.716 6  23636988.328                    23636996.977
 112688262.201 8  87809094.30245  21443863.023                    21443870.594
 114811298.413 8  89463440.650 7  21847866.758                    21847876.492
 116924282.668 7  91109955.89044  22249936.664                    22249943.805
 111050497.894 8  86532983.20046  21132189.273                    21132194.379
 126804407.989 6  98808793.55043  24130067.984                    24130076.273
 109739926.198 8  85511704.166 7  20882813.039                    20882820.121
 106713016.630 8  83153073.905 8  20306793.242                    20306800.172
 11  8 13  2  9 30.0000000  0  8G29G30G25G10G02G04G12G05
 124130086.811 7  96724798.031 6  23621170.180                    23621179.531
 112676889.909 7  87800232.81045  21441698.758                    21441706.742
 114772586.980 8  89433275.912 7  21840499.852                    21840509.883
 117009172.841 7  91176104.07145  22266090.297                    22266097.422
 111082273.225 8  86557743.20746  21138236.031                    21138240.887
 126885141.129 6  98871702.49743  24145430.031                    24145438.727
 109768201.065 8  85533736.542 7  20888194.000                    20888200.465
 106698398.609 8  83141683.256 8  20304011.414                    20304018.523
 11  8 13  2 10  0.0000000  0  8G29G30G25G10G02G04G12G05
 124046941.954 7  96660009.959 6  23605347.516                    23605356.910
 112666131.931 8  87791849.98245  21439652.063                    21439659.676
 114734423.335 8  89403538.026 7  21833237.695                    21833247.313
 117094432.253 7  91242539.96045  22282314.609                    22282322.406
 111114174.291 7  86582601.19346  21144306.844                    21144311.668
 126965824.460 6  98934572.67143  24160783.711                    24160792.574
 109797035.087 7  85556204.629 7  20893680.867                    20893687.406
 106684358.551 8  83130742.973 8  20301339.945                    20301346.855
 11  8 13  2 10 30.0000000  0  8G29G30G25G10G02G04G12G05
 123963778.537 7  96595207.442 6  23589522.977                    23589531.309
 112655988.193 7  87783945.77945  21437721.469                    21437728.949
 114696808.541 8  89374227.817 7  21826079.680                    21826089.184
 117180057.559 7  91309260.98544  22298608.469                    22298616.367
 111146200.084 8  86607556.38346  21150401.031                    21150405.832
 127046457.081 6  98997403.26443  24176127.359                    24176136.348
 109826426.656 8  85579107.160 7  20899273.930                    20899280.402
 106670896.111 8  83120252.781 8  20298777.945                    20298784.930
 11  8 13  2 11  0.0000000  0  8G29G30G25G10G02G04G12G05
 123880597.597 7  96530391.239 6  23573693.867                    23573703.066
 112646458.670 7  87776520.18946  21435907.844                    21435915.234
 114659743.862 8  89345346.267 7  21819026.734                    21819036.230
 117266045.921 7  91376264.90145  22314971.828                    22314979.563
 111178349.668 8  86632608.03346  21156518.891                    21156524.270
 127127038.685 6  99060194.12643  24191461.695                    24191470.523
 109856374.587 8  85602443.213 7  20904972.234                    20904978.820
 106658011.484 8  83110212.843 8  20296325.914                    20296332.922
 11  8 13  2 11 30.0000000  0  8G29G30G25G10G02G04G12G05
 123797400.199 7  96465562.200 6  23557861.297                    23557870.117
 112637543.442 8  87769573.26946  21434211.430                    21434219.367
 114623230.570 8  89316894.383 7  21812078.367                    21812087.961
 117352394.687 7  91443549.65245  22331403.188                    22331410.602
 111210622.619 8  86657755.81546  21162660.102                    21162665.223
 127207569.060 6  99122945.03543  24206786.227                    24206795.094
 109886878.235 8  85626212.298 7  20910777.148                    20910783.750
 106645704.658 8  83100623.128 8  20293984.023                    20293991.492
 11  8 13  2 12  0.0000000  0  8G29G30G25G10G02G04G12G05
 123714187.968 7  96400721.592 6  23542027.453                    23542035.660
 112629242.705 7  87763105.17546  21432632.086                    21432639.609
 114587270.124 8  89288873.300 7  21805235.172                    21805245.098
 117439101.344 7  91511113.25745  22347902.758                    22347910.559
 111243018.503 7  86682999.39146  21168824.805                    21168829.789
 127288047.733 6  99185655.66343  24222101.078                    24222109.559
 109917936.010 8  85650413.188 7  20916687.375                    20916694.012
 106633975.719 8  83091483.733 8  20291752.383                    20291758.965
 11  8 13  2 12 30.0000000  0  8G29G30G25G10G02G04G12G05
 123630961.273 7  96335869.704 6  23526189.102                    23526198.801
 112621555.796 7  87757115.40145  21431169.125                    21431176.387
 114551863.089 8  89261283.404 7  21798497.656                    21798506.750
 117526162.374 7  91578952.98644  22364470.289                    22364477.559
 111275536.074 8  86708337.78546  21175012.633                    21175017.691
 127368473.984 6  99248325.47043  24237405.133                    24237413.867
 109949546.548 8  85675044.792 7  20922702.383                    20922708.875
 106622823.988 8  83082794.102 8  20289630.008                    20289637.051
 11  8 13  2 13  0.0000000  0  8G29G30G25G10G02G04G12G05
 123547721.749 7  96271007.816 6  23510349.047                    23510358.051
 112614482.864 8  87751604.02945  21429823.297                    21429830.656
 114517010.770 8  89234125.794 7  21791865.195                    21791874.820
 117613574.857 7  91647066.60444  22381104.602                    22381112.172
 111308174.592 8  86733770.41946  21181223.688                    21181228.281
 127448847.461 6  99310954.14943  24252699.508                    24252708.309
 109981708.511 8  85700106.075 7  20928822.641                    20928829.645
 106612249.308 8  83074554.119 8  20287617.828                    20287624.715
 11  8 13  2 13 30.0000000  0  8G29G30G25G10G02G04G12G05
 123464471.055 6  96206137.207 6  23494507.328                    23494515.961
 112608024.136 8  87746571.26945  21428594.453                    21428601.734
 114482714.720 8  89207401.627 7  21785338.969                    21785348.773
 117701336.460 7  91715452.24445  22397804.586                    22397812.426
 111340934.060 8  86759297.29746  21187457.305                    21187462.090
 127529168.305 6  99373541.83143  24267983.664                    24267993.543
 110014420.957 8  85725596.320 7  20935047.734                    20935054.375
 106602252.199 8  83066764.191 8  20285715.617                    20285722.348
 11  8 13  2 14  0.0000000  0  8G29G30G25G10G02G04G12G05
 123381210.036 6  96141258.553 6  23478662.320                    23478671.852
 112602179.389 8  87742016.94345  21427482.250                    21427489.539
 114448975.949 8  89181111.707 7  21778918.477                    21778928.547
 117789444.295 7  91784107.68244  22414570.617                    22414579.121
 111373813.719 8  86784917.82546  21193714.336                    21193718.965
 127609435.744 6  99436087.88443  24283259.031                    24283267.465
 110047682.300 8  85751514.254 7  20941377.047                    20941383.758
 106592832.361 8  83059424.094 8  20283923.172                    20283929.590
 11  8 13  2 14 30.0000000  0  9G29G30G25G26G10G02G04G12G05
 123297939.966 6  96076372.824 6  23462817.547                    23462825.781
 112596948.137 8  87737940.65346  21426486.594                    21426494.266
 114415795.288 8  89155256.667 7  21772604.633                    21772614.102
 130483071.74916                  24830107.352
 117877895.220 7  91853030.48844  22431402.477                    22431409.746
 111406812.410 8  86810631.11246  21199993.797                    21199998.445
 127689649.309 6  99498591.93843  24298523.070                    24298531.668
 110081490.995 8  85777858.702 7  20947810.867                    20947817.293
 106583989.272 8  83052533.408 8  20282240.125                    20282246.926
 11  8 13  2 15  0.0000000  0  9G29G30G25G26G10G02G04G12G05
 123214662.869 6  96011481.592 6  23446970.195                    23446979.164
 112592331.140 8  87734343.00646  21425607.891                    21425615.480
 114383174.657 7  89129838.035 7  21766396.867                    21766407.152
 130389787.23715 101602477.51452  24812354.336                    24812363.258
 117966687.081 7  91922218.93044  22448298.898                    22448306.535
 111439930.502 7  86836437.44446  21206296.188                    21206301.043
 127769809.592 6  99561054.54843  24313776.797                    24313785.547
 110115846.945 7  85804629.593 7  20954348.414                    20954355.551
 106575723.595 8  83046092.650 8  20280667.180                    20280674.227
 11  8 13  2 15 30.0000000  0  9G29G30G25G26G10G02G04G12G05
 123131380.099 6  95946585.913 6  23431121.422                    23431130.504
 112588328.421 7  87731224.01346  21424846.383                    21424854.145
 114351115.287 7  89104856.730 7  21760296.055                    21760306.016
 130296374.258 5 101529688.70743  24794578.414                    24794588.363
 118055817.283 7  91991671.01544  22465260.141                    22465267.488
 111473167.581 8  86862336.50046  21212620.477                    21212625.762
 127849916.217 6  99623475.29843  24329021.250                    24329029.414
 110150748.542 8  85831825.675 7  20960989.852                    20960996.688
 106568035.495 8  83040101.945 8  20279204.445                    20279211.082
 11  8 13  2 16  0.0000000  0  9G29G30G25G26G10G02G04G12G05
 123048091.960 7  95881686.057 6  23415272.766                    23415281.172
 112584938.395 8  87728582.45146  21424201.016                    21424208.527
 114319617.025 8  89080312.662 7  21754302.531                    21754312.078
 130202834.842 5 101456800.94142  24776779.180                    24776788.473
 118145281.604 7  92061383.42344  22482284.414                    22482292.598
 111506521.987 8  86888326.97646  21218967.609                    21218972.359
 127929967.796 6  99685853.14142  24344253.789                    24344262.273
 110186192.912 8  85859444.713 7  20967734.680                    20967741.488
 106560923.356 8  83034560.051 8  20277850.570                    20277857.367
 11  8 13  2 16 30.0000000  0  9G29G30G25G26G10G02G04G12G05
 122964799.785 7  95816783.017 6  23399423.539                    23399430.770
 112582161.015 7  87726418.27245  21423672.461                    21423679.883
 114288681.020 8  89056206.710 7  21748415.422                    21748425.250
 130109171.829 5 101383816.90343  24758955.078                    24758965.109
 118235077.350 7  92131354.11444  22499372.211                    22499379.473
 111539992.993 7  86914408.30946  21225336.984                    21225341.965
 128009964.079 6  99748187.93243  24359476.141                    24359485.961
 110222179.373 7  85887486.157 7  20974583.281                    20974589.367
 106554387.080 8  83029466.878 8  20276606.844                    20276613.504
 11  8 13  2 17  0.0000000  0  9G29G30G25G26G10G02G04G12G05
 122881504.769 7  95751877.790 6  23383572.766                    23383580.645
 112579996.004 7  87724731.26745  21423260.594                    21423268.387
 114258308.343 8  89032539.705 7  21742635.711                    21742645.148
 130015388.294 5 101310738.91943  24741108.602                    24741118.129
 118325201.680 7  92201580.83444  22516522.578                    22516529.969
 111573579.923 7  86940579.96846  21231727.945                    21231733.477
 128089904.974 6  99810479.55842  24374688.781                    24374697.594
 110258706.356 8  85915948.801 7  20981533.789                    20981540.367
 106548426.286 8  83024822.128 8  20275472.609                    20275479.281
 11  8 13  2 17 30.0000000  0  9G29G30G25G26G10G02G04G12G05
 122798208.363 7  95686971.468 6  23367722.266                    23367730.586
 112578443.068 7  87723521.20246  21422965.008                    21422972.359
 114228499.853 8  89009312.330 7  21736963.117                    21736973.125
 129921486.846 5 101237569.05743  24723240.281                    24723248.941
 118415651.862 7  92272061.48844  22533733.938                    22533741.387
 111607282.173 8  86966841.50146  21238141.641                    21238146.535
 128169790.025 6  99872727.64242  24389891.094                    24389900.008
 110295771.883 8  85944831.081 7  20988586.914                    20988593.852
 106543040.647 8  83020625.545 8  20274447.609                    20274454.469
 11  8 13  2 18  0.0000000  0  9G29G30G25G26G10G02G04G12G05
 122714911.791 7  95622065.071 6  23351870.719                    23351879.133
 112577501.783 7  87722787.74846  21422786.094                    21422793.586
 114199256.533 8  88986525.351 7  21731398.602                    21731408.105
 129827470.401 6 101164309.54343  24705349.102                    24705358.121
 118506424.920 7  92342793.73344  22551008.375                    22551015.117
 111641099.345 7  86993192.57146  21244576.867                    21244582.043
 128249618.717 6  99934931.88542  24405080.977                    24405090.063
 110333374.538 8  85974131.906 7  20995742.500                    20995749.098
 106538230.034 8  83016877.043 8  20273532.133                    20273538.898
 11  8 13  2 18 30.0000000  0  9G29G30G25G26G10G02G04G12G05
 122631616.308 7  95557159.525 6  23336020.234                    23336027.820
 112577171.738 7  87722530.59446  21422723.031                    21422730.613
 114170579.189 8  88964179.381 7  21725941.313                    21725950.645
 129733341.757 6 101090962.61743  24687437.039                    24687445.727
 118597517.966 7  92413775.31644  22568342.297                    22568349.578
 111675030.514 8  87019632.46946  21251033.797                    21251038.457
 128329390.902 6  99997092.08343  24420262.164                    24420270.801
 110371512.962 8  86003850.198 7  21002999.914                    21003006.707
 106533993.721 8  83013576.038 8  20272726.016                    20272732.691
 11  8 13  2 19  0.0000000  0  9G29G30G25G26G10G02G04G12G05
 122548323.392 7  95492255.979 6  23320170.242                    23320178.977
 112577452.319 7  87722749.25645  21422776.422                    21422783.738
 114142468.573 7  88942275.026 7  21720591.906                    21720601.699
 129639103.960 6 101017530.64843  24669504.016                    24669512.551
 118688927.883 7  92485003.82744  22585737.078                    22585744.578
 111709075.189 7  87046160.80346  21257512.508                    21257517.129
 128409106.060 6 100059207.73343  24435431.070                    24435439.227
 110410185.470 8  86033984.647 7  21010358.992                    21010365.723
 106530331.137 8  83010722.097 8  20272029.297                    20272035.813
 11  8 13  2 19 30.0000000  0  9G29G30G25G26G10G02G04G12G05
 122465034.357 6  95427355.530 6  23304320.328                    23304329.586
 112578343.093 7  87723443.39545  21422945.875                    21422952.914
 114114925.494 8  88920812.895 7  21715350.930                    21715360.430
 129544759.685 6 100944015.72143  24651551.172                    24651559.965
 118780651.697 7  92556476.92544  22603191.523                    22603198.773
 111743232.725 8  87072777.07146  21264012.258                    21264017.094
 128488763.918 6 100121278.81143  24450589.602                    24450598.223
 110449390.550 8  86064534.095 7  21017819.641                    21017826.109
 106527241.792 8  83008314.842 8  20271441.430                    20271448.141
 11  8 13  2 20  0.0000000  0  9G29G30G25G26G10G02G04G12G05
 122381750.496 6  95362459.112 6  23288471.859                    23288480.531
 112579844.046 7  87724612.99045  21423231.328                    21423239.109
 114087951.301 8  88899794.062 7  21710217.805                    21710227.574
 129450312.416 6 100870420.52943  24633578.469                    24633587.398
 118872686.848 6  92628192.62244  22620705.570                    22620713.004
 111777502.758 7  87099480.99646  21270533.844                    21270538.277
 128568364.607 6 100183305.30143  24465737.117                    24465745.555
 110489126.700 8  86095497.370 7  21025381.195                    21025387.863
 106524726.306 8  83006354.749 8  20270962.352                    20270969.516
 11  8 13  2 20 30.0000000  0  9G29G30G25G26G10G02G04G12G05
 122298473.330 6  95297567.931 6  23272624.563                    23272633.371
 112581954.366 7  87726257.41745  21423633.156                    21423640.625
 114061546.467 8  88879218.874 7  21705192.945                    21705202.402
 129355764.936 6 100796747.27043  24615586.148                    24615594.895
 118965030.321 6  92700148.55644  22638278.125                    22638285.840
 111811884.958 8  87126272.31546  21277076.406                    21277081.207
 128647907.574 7 100245286.85643  24480873.680                    24480881.301
 110529392.533 8  86126873.368 7  21033043.273                    21033049.957
 106522783.440 8  83004840.847 8  20270592.742                    20270599.523
 11  8 13  2 21  0.0000000  0  9G29G30G25G26G10G02G04G12G05
 122215204.260 7  95232683.072 6  23256779.508                    23256787.750
 112584673.485 7  87728376.20245  21424150.617                    21424157.887
 114035711.805 8  88859087.999 7  21700277.195                    21700286.629
 129261119.938 6 100722998.01543  24597575.906                    24597584.523
 119057679.128 6  92772342.43044  22655908.008                    22655916.211
 111846378.479 8  87153150.38246  21283639.953                    21283645.438
 128727392.647 6 100307223.29943  24495998.711                    24496006.938
 110570185.564 8  86158660.154 7  21040805.969                    21040812.352
 106521412.640 8  83003772.721 8  20270331.930                    20270338.375
 11  8 13  2 21 30.0000000  0  9G29G30G25G26G10G02G04G12G05
 122131944.699 7  95167805.642 6  23240935.430                    23240943.758
 112588001.153 8  87730969.17145  21424783.672                    21424791.117
 114010448.361 8  88839402.214 7  21695469.266                    21695479.063
 129166380.792 6 100649175.29542  24579547.578                    24579555.543
 119150630.832 6  92844772.31244  22673596.320                    22673604.480
 111880983.335 8  87180115.20946  21290225.164                    21290230.316
 128806819.610 6 100369114.44043  24511113.109                    24511121.445
 110611504.798 8  86190856.968 7  21048668.727                    21048675.234
 106520613.814 8  83003150.289 8  20270180.039                    20270186.430
 11  8 13  2 22  0.0000000  0  9G29G30G25G26G10G02G04G12G05
 122048695.856 7  95102936.568 6  23225093.539                    23225101.879
 112591936.652 8  87734035.86245  21425532.555                    21425540.539
 113985756.507 8  88820161.870 7  21690770.563                    21690780.516
 129071550.178 6 100575281.36242  24561501.938                    24561509.695
 119243882.007 6  92917435.56144  22691341.844                    22691349.473
 111915698.297 8  87207165.83846  21296831.102                    21296836.383
 128886188.221 6 100430960.16743  24526216.570                    24526225.789
 110653348.712 8  86223462.624 7  21056631.227                    21056637.852
 106520385.883 8  83002972.710 8  20270136.633                    20270143.309
 11  8 13  2 22 30.0000000  0  9G29G30G25G26G10G02G04G12G05
 121965459.165 6  95038076.942 6  23209253.836                    23209262.211
 112596479.304 7  87737575.62546  21426397.234                    21426404.461
 113961637.231 8  88801367.661 7  21686180.727                    21686190.254
 128976631.362 6 100501318.66643  24543439.094                    24543447.488
 119337430.186 6  92990330.25244  22709142.852                    22709150.977
 111950522.706 8  87234301.73646  21303458.031                    21303463.195
 128965498.212 6 100492760.14543  24541308.547                    24541317.945
 110695715.085 8  86256475.384 7  21064693.320                    21064699.723
 106520728.528 8  83003239.732 8  20270201.766                    20270208.320
 11  8 13  2 23  0.0000000  0  9G29G30G25G26G10G02G04G12G05
 121882236.182 7  94973228.007 6  23193416.992                    23193424.820
 112601628.556 8  87741588.06345  21427377.242                    21427384.699
 113938091.126 8  88783020.090 7  21681700.297                    21681709.832
 128881627.378 6 100427289.64642  24525361.023                    24525368.867
 119431272.372 6  93063454.02144  22727001.148                    22727008.648
 111985456.559 8  87261522.91746  21310105.836                    21310110.910
 129044749.455 6 100554514.36043  24556388.578                    24556399.387
 110738602.532 8  86289894.166 7  21072854.680                    21072861.105
 106521641.494 8  83003951.169 8  20270375.492                    20270381.992
 11  8 13  2 23 30.0000000  0  9G29G30G25G26G10G02G04G12G05
 121799028.364 7  94908390.910 6  23177582.867                    23177591.629
 112607383.685 7  87746072.61245  21428472.102                    21428479.527
 113915118.816 8  88765119.633 7  21677328.766                    21677338.012
 128786541.095 6 100353196.48242  24507265.727                    24507274.875
 119525405.360 6  93136804.40344  22744913.344                    22744921.348
 112020499.275 7  87288828.92146  21316774.211                    21316778.961
 129123941.713 6 100616222.62343  24571459.008                    24571468.930
 110782009.102 8  86323717.468 7  21081114.313                    21081121.180
 106523123.712 8  83005106.161 8  20270657.266                    20270664.188
 11  8 13  2 24  0.0000000  0  9G29G30G25G26G10G02G04G12G05
 121715836.987 7  94843566.616 6  23161752.563                    23161760.586
 112613743.891 7  87751028.65045  21429682.023                    21429689.555
 113892720.885 8  88747666.740 7  21673066.352                    21673075.875
 128691375.550 6 100279041.55942  24489156.578                    24489165.406
 119619826.350 7  93210379.19444  22762881.586                    22762889.203
 112055650.092 7  87316219.17646  21323463.375                    21323468.234
 129203074.495 6 100677884.53242  24586518.250                    24586527.492
 110825932.943 8  86357943.853 7  21089472.906                    21089479.613
 106525174.237 7  83006703.991 8  20271047.891                    20271054.246
 11  8 13  2 24 30.0000000  0  9G29G30G25G26G10G02G04G12G05
 121632663.615 6  94778756.346 6  23145924.461                    23145932.902
 112620708.543 7  87756455.67645  21431007.492                    21431015.285
 113870898.004 8  88730661.958 7  21668913.531                    21668923.289
 128596133.971 6 100204827.39342  24471032.797                    24471041.145
 119714532.429 7  93284176.13144  22780902.758                    22780911.160
 112090908.731 7  87343693.45946  21330172.359                    21330177.922
 129282147.801 6 100739500.18642  24601565.992                    24601574.270
 110870372.538 8  86392572.116 7  21097929.500                    21097936.004
 106527793.044 7  83008744.634 8  20271545.883                    20271552.656
 11  8 13  2 25  0.0000000  0  9G29G30G25G26G10G02G04G12G05
 121549509.733 6  94713961.240 6  23130100.867                    23130109.512
 112628276.990 7  87762353.20645  21432447.570                    21432455.660
 113849650.826 8  88714105.770 7  21664870.195                    21664880.086
 128500819.244 6 100130556.22643  24452895.234                    24452904.383
 119809521.025 6  93358193.22744  22798978.813                    22798986.656
 112126274.828 7  87371251.45746  21336902.320                    21336907.656
 129361161.469 6 100801069.34242  24616601.547                    24616609.793
 110915325.955 8  86427600.795 7  21106483.617                    21106490.727
 106530979.130 8  83011227.325 8  20272152.070                    20272158.570
 11  8 13  2 25 30.0000000  0  9G29G30G25G26G10G02G04G12G05
 121466376.499 6  94649182.230 6  23114280.484                    23114289.477
 112636448.388 7  87768720.55545  21434002.648                    21434010.059
 113828979.891 8  88697998.596 7  21660936.750                    21660946.727
 128405434.635 6 100056230.61343  24434743.703                    24434752.352
 119904789.141 7  93432428.10244  22817108.000                    22817115.461
 112161747.542 7  87398892.55146  21343652.711                    21343657.859
 129440115.313 6 100862591.89442  24631625.258                    24631633.996
 110960791.305 8  86463028.361 7  21115135.398                    21115141.754
 106534731.875 8  83014151.560 8  20272866.117                    20272872.406
 11  8 13  2 26  0.0000000  0  9G29G30G25G26G10G02G04G12G05
 121383265.789 6  94584420.713 6  23098465.555                    23098473.742
 112645222.120 7  87775557.26845  21435672.344                    21435679.566
 113808885.912 8  88682341.008 7  21657112.906                    21657122.586
 128309983.269 6  99981852.99643  24416580.578                    24416589.051
 120000334.125 7  93506878.73444  22835289.414                    22835296.961
 112197326.567 7  87426616.47346  21350423.336                    21350428.426
 129519009.298 6 100924067.76042  24646637.961                    24646647.445
 111006767.460 8  86498853.945 7  21123884.594                    21123891.207
 106539050.754 8  83017516.937 8  20273687.953                    20273694.773
 11  8 13  2 26 30.0000000  0  9G29G30G25G26G10G02G04G12G05
 121300178.999 6  94519677.873 6  23082653.930                    23082662.625
 112654597.128 8  87782862.48945  21437456.656                    21437463.641
 113789369.176 8  88667133.218 7  21653398.922                    21653408.703
 128214468.206 6  99907425.70843  24398403.922                    24398413.125
 120096152.832 7  93581542.65744  22853522.984                    22853530.813
 112233011.399 8  87454422.83746  21357214.117                    21357218.781
 129597843.004 6 100985496.66542  24661639.742                    24661648.070
 111053251.423 8  86535075.187 7  21132730.336                    21132736.707
 106543934.801 8  83021322.713 8  20274617.406                    20274624.383
 11  8 13  2 27  0.0000000  0  8G29G30G25G26G10G02G12G05
 121217117.680 7  94454954.830 6  23066848.641                    23066856.488
 112664572.653 7  87790635.65045  21439354.352                    21439362.117
 113770430.299 8  88652375.722 7  21649795.219                    21649804.988
 128118892.481 7  99832951.15843  24380216.813                    24380225.840
 120192242.512 7  93656417.73644  22871808.070                    22871816.336
 112268801.875 8  87482311.51846  21364024.578                    21364029.434
 111100241.945 8  86571691.174 7  21141672.023                    21141678.891
 106549383.286 8  83025568.311 8  20275654.211                    20275661.047
 11  8 13  2 27 30.0000000  0  8G29G30G25G26G10G02G12G05
 121134083.423 7  94390252.895 6  23051047.945                    23051055.070
 112675147.918 8  87798876.14445  21441367.273                    21441374.180
 113752069.813 8  88638068.890 7  21646301.359                    21646311.098
 128023259.366 7  99758431.89643  24362018.039                    24362027.254
 120288600.379 7  93731501.80844  22890144.570                    22890151.711
 112304697.473 8  87510282.11646  21370855.297                    21370859.762
 111147736.814 8  86608700.158 7  21150709.945                    21150716.563
 106555395.536 8  83030253.210 8  20276798.430                    20276804.941
 11  8 13  2 28  0.0000000  0  8G29G30G25G26G10G02G12G05
 121051077.556 7  94325573.069 6  23035251.969                    23035259.539
 112686321.791 8  87807583.07946  21443493.484                    21443500.559
 113734287.956 8  88624212.955 7  21642917.469                    21642927.043
 127927571.815 7  99683870.21743  24343809.516                    24343818.629
 120385223.049 7  93806792.17144  22908530.914                    22908538.914
 112340697.403 8  87538334.00646  21377706.109                    21377710.879
 111195734.090 8  86646100.608 7  21159843.586                    21159849.902
 106561970.543 8  83035376.619 8  20278049.703                    20278056.332
 11  8 13  2 28 30.0000000  0  8G29G30G25G26G10G02G12G05
 120968101.367 7  94260916.392 6  23019461.688                    23019470.168
 112698092.685 8  87816755.21945  21445733.484                    21445740.789
 113717084.584 8  88610807.781 7  21639643.609                    21639653.078
 127831832.470 7  99609268.16943  24325590.898                    24325599.785
 120482107.294 7  93882286.39844  22926967.633                    22926975.109
 112376800.781 8  87566466.51646  21384575.766                    21384581.234
 111244231.812 8  86683891.070 7  21169072.172                    21169079.012
 106569106.390 8  83040937.046 8  20279407.203                    20279414.441
 11  8 13  2 29  0.0000000  0  8G29G30G25G26G10G02G12G05
 120885156.819 7  94196284.350 6  23003678.344                    23003686.188
 112710460.606 8  87826392.61446  21448086.391                    21448094.453
 113700460.803 8  88597854.237 7  21636480.039                    21636489.867
 127736045.014 7  99534628.65444  24307363.617                    24307371.512
 120579251.003 7  93957982.74644  22945453.328                    22945461.102
 112413007.817 8  87594679.80446  21391465.883                    21391470.742
 111293228.139 8  86722070.062 7  21178396.391                    21178402.863
 106576803.650 8  83046934.938 8  20280871.961                    20280878.453
 11  8 13  2 29 30.0000000  0  8G29G30G25G26G10G02G12G05
 120802245.355 7  94131678.109 6  22987900.305                    22987908.734
 112723424.229 8  87836494.19545  21450553.719                    21450560.930
 113684416.895 8  88585352.529 7  21633427.211                    21633436.262
 127640212.634 6  99459954.11943  24289126.484                    24289135.191
 120676651.296 6  94033879.08344  22963988.539                    22963996.020
 112449318.054 8  87622973.51646  21398375.977                    21398380.109
 111342720.703 8  86760635.726 7  21187814.383                    21187820.887
 106585061.297 8  83053369.502 8  20282443.109                    20282449.691
 11  8 13  2 30  0.0000000  0  8G29G30G25G26G10G02G12G05
 120719368.269 7  94067098.640 6  22972129.703                    22972137.656
 112736982.300 8  87847058.96245  21453133.484                    21453141.172
 113668952.910 8  88573302.725 7  21630483.977                    21630493.859
 127544338.183 6  99385246.74543  24270882.430                    24270891.461
 120774305.139 7  94109972.94644  22982571.453                    22982579.105
 112485730.815 8  87651347.11346  21405305.078                    21405309.758
 111392707.517 8  86799586.497 7  21197326.406                    21197332.961
 106593877.643 8  83060239.400 8  20284121.516                    20284127.676
 11  8 13  2 30 30.0000000  0  8G29G30G25G26G10G02G12G05
 120636527.119 7  94002547.196 7  22956365.141                    22956374.074
 112751133.758 8  87858086.05145  21455826.391                    21455833.742
 113654069.201 8  88561705.063 7  21627652.016                    21627661.801
 127448425.075 6  99310509.26543  24252631.227                    24252639.672
 120872209.487 7  94186262.06244  23001202.156                    23001209.742
 112522245.757 8  87679800.33646  21412253.625                    21412257.965
 111443186.929 8  86838921.114 7  21206932.633                    21206939.109
 106603252.069 8  83067544.172 8  20285905.117                    20285911.520
 11  8 13  2 31  0.0000000  0  8G29G30G25G26G10G02G12G05
 120553723.719 7  93938025.167 6  22940608.164                    22940615.984
 112765877.924 8  87869575.01545  21458632.063                    21458639.266
 113639766.278 8  88550559.965 7  21624930.172                    21624939.809
 127352476.627 6  99235744.35043  24234372.109                    24234381.129
 120970361.798 6  94262744.37644  23019879.508                    23019887.699
 112558862.830 8  87708333.15246  21419221.523                    21419226.086
 111494157.054 8  86878638.101 7  21216631.820                    21216638.313
 106613183.801 8  83075283.207 8  20287795.203                    20287801.281
 11  8 13  2 31 30.0000000  0  8G29G30G25G26G10G02G12G05
 120470959.728 7  93873533.814 7  22924858.961                    22924866.586
 112781213.556 8  87881524.94345  21461550.242                    21461557.789
 113626044.264 8  88539867.518 7  21622319.086                    21622328.465
 127256495.735 6  99160954.08143  24216107.766                    24216116.586
 121068759.039 6  94339417.53244  23038604.367                    23038611.934
 112595581.279 8  87736944.95046  21426208.469                    21426212.867
 111545615.309 8  86918735.447 7  21226424.000                    21226430.301
 106623671.799 8  83083455.695 8  20289790.719                    20289797.473
 11  8 13  2 32  0.0000000  0  8G29G30G25G26G10G02G12G05
 120388236.551 7  93809074.292 7  22909117.117                    22909125.313
 112797139.221 8  87893934.59146  21464580.781                    21464588.504
 113612903.158 8  88529627.735 7  21619818.469                    21619827.906
 127160485.469 6  99086140.93443  24197837.742                    24197846.566
 121167398.110 6  94416279.12844  23057374.844                    23057381.914
 112632400.549 8  87765635.31946  21433215.125                    21433219.656
 111597559.228 8  86959211.224 7  21236308.469                    21236314.980
 106634714.686 8  83092060.563 8  20291891.914                    20291898.828
 11  8 13  2 32 30.0000000  0  8G29G30G25G26G10G02G12G05
 120305555.821 7  93744647.852 7  22893383.258                    22893390.965
 112813653.961 8  87906803.25145  21467723.508                    21467731.262
 113600343.400 8  88519840.943 7  21617428.273                    21617437.945
 127064449.364 6  99011307.71843  24179562.656                    24179570.926
 121266276.317 6  94493327.07444  23076190.383                    23076198.324
 112669320.450 8  87794404.10846  21440240.570                    21440245.258
 111649987.444 8  87000064.371 7  21246285.227                    21246292.148
 106646311.613 8  83101097.144 8  20294098.836                    20294105.508
 11  8 13  2 33  0.0000000  0  8G29G30G25G26G10G02G12G05
 120222919.201 7  93680255.756 7  22877657.305                    22877666.234
 112830756.578 8  87920130.01445  21470978.156                    21470985.141
 113588365.194 8  88510507.307 7  21615149.117                    21615158.195
 126968390.691 6  98936456.80143  24161282.992                    24161291.457
 121365390.946 6  94570559.23643  23095051.516                    23095059.184
 112706340.757 8  87823251.13346  21447285.438                    21447290.043
 111702897.820 8  87041293.229 7  21256354.008                    21256360.531
 106658461.824 8  83110564.849 8  20296411.047                    20296417.809
 11  8 13  2 33 30.0000000  0  8G29G30G25G26G10G02G12G05
 120140328.243 7  93615899.256 7  22861940.906                    22861949.277
 112848445.879 8  87933913.91845  21474344.078                    21474351.281
 113576968.524 8  88501626.811 7  21612980.172                    21612989.578
 126872312.450 7  98861590.69943  24143000.242                    24143008.496
 121464739.042 7  94647973.33844  23113956.977                    23113964.063
 112743460.742 8  87852175.82546  21454349.047                    21454353.926
 111756287.943 8  87082895.956 7  21266513.547                    21266520.047
 106671163.837 8  83120462.538 8  20298828.500                    20298835.023
 11  8 13  2 34  0.0000000  0  8G29G30G25G26G10G02G12G05
 120057784.646 7  93551579.636 7  22846234.039                    22846241.969
 112866720.498 8  87948153.90945  21477821.594                    21477828.949
 113566153.590 8  88493199.611 7  21610922.258                    21610931.332
 126776218.030 6  98786711.98343  24124713.133                    24124722.070
 121564317.658 6  94725567.01244  23132905.750                    23132913.875
 112780680.180 8  87881178.02146  21461431.227                    21461436.340
 111810155.550 8  87124870.772 7  21276764.078                    21276770.793
 106684416.658 8  83130789.444 8  20301349.813                    20301356.230
 11  8 13  2 34 30.0000000  0  8G29G30G25G26G10G02G12G05
 119975290.061 7  93487298.192 7  22830535.250                    22830543.207
 112885579.371 8  87962849.17045  21481410.023                    21481417.387
 113555920.596 8  88485225.880 7  21608974.625                    21608984.453
 126680110.827 6  98711823.26443  24106425.453                    24106433.484
 121664124.033 7  94803338.19244  23151897.711                    23151906.613
 112817998.985 8  87910257.63546  21468533.133                    21468537.805
 111864498.758 8  87167216.193 7  21287104.813                    21287111.582
 106698219.434 8  83141544.880 8  20303976.898                    20303983.117
 11  8 13  2 35  0.0000000  0  8G29G30G25G26G10G02G12G05
 119892846.292 7  93423056.369 7  22814846.828                    22814855.121
 112905021.052 8  87977998.57646  21485109.992                    21485117.453
 113546269.462 8  88477705.548 7  21607138.070                    21607147.348
 126583993.889 6  98636926.98243  24088134.883                    24088143.660
 121764155.283 7  94881284.60644  23170933.195                    23170940.926
 112855416.627 8  87939414.26546  21475653.086                    21475658.113
 111919315.417 8  87209930.536 7  21297536.523                    21297543.344
 106712570.734 8  83152727.741 8  20306707.539                    20306714.008
 11  8 13  2 35 30.0000000  0  8G29G30G25G26G10G02G12G05
 119810454.702 7  93358855.196 6  22799167.992                    22799176.352
 112925044.228 8  87993601.07945  21488920.094                    21488927.098
 113537200.238 8  88470638.654 7  21605412.320                    21605421.605
 126487870.574 6  98562025.74343  24069843.555                    24069851.914
 121864408.672 7  94959404.11544  23190011.148                    23190018.816
 112892932.563 8  87968647.48946  21482792.172                    21482797.172
 111974602.615 8  87253011.525 7  21308057.086                    21308063.871
 106727469.439 8  83164337.158 8  20309542.641                    20309549.203
 11  8 13  2 36  0.0000000  0  8G29G30G25G26G10G02G12G05
 119728117.282 7  93294696.254 7  22783499.758                    22783507.930
 112945647.641 8  88009655.69645  21492841.031                    21492847.852
 113528713.059 8  88464025.286 7  21603797.313                    21603806.703
 126391744.113 6  98487122.06343  24051550.531                    24051559.395
 121964881.302 7  95037694.49243  23209130.008                    23209138.012
 112930546.710 8  87997957.22746  21489949.945                    21489955.102
 112030358.529 8  87296457.716 7  21318667.055                    21318673.961
 106742914.303 8  83176372.148 8  20312481.828                    20312488.066
 11  8 13  2 36 30.0000000  0  8G29G30G25G26G10G02G12G05
 119645835.526 7  93230580.667 7  22767842.156                    22767850.215
 112966829.632 8  88026161.18745  21496871.859                    21496878.988
 113520807.576 8  88457865.209 7  21602292.617                    21602302.520
 126295617.769 6  98412218.46144  24033259.039                    24033267.281
 122065570.321 7  95116153.46044  23228291.281                    23228298.059
 112968258.296 8  88027342.88346  21497126.227                    21497131.406
 112086580.795 8  87340267.282 7  21329365.750                    21329372.801
 106758903.988 8  83188831.676 8  20315524.391                    20315531.066
 11  8 13  2 37  0.0000000  0  8G29G30G25G26G10G02G12G05
 119563611.093 7  93166509.785 6  22752195.336                    22752203.156
 112988589.078 8  88043116.64145  21501012.305                    21501019.859
 113513484.056 8  88452158.605 7  21600899.359                    21600908.855
 126199494.867 6  98337317.53743  24014967.086                    24014976.180
 122166473.179 6  95194779.02043  23247492.477                    23247499.770
 113006067.431 8  88056804.55246  21504321.273                    21504326.391
 112143267.556 8  87384438.820 7  21340153.320                    21340159.625
 106775437.608 8  83201715.055 8  20318670.391                    20318677.188
 11  8 13  2 37 30.0000000  0  8G29G30G25G26G10G02G12G05
 119481445.806 7  93102484.995 6  22736559.961                    22736567.359
 113010924.487 8  88060520.88445  21505262.797                    21505269.703
 113506742.323 8  88446905.333 7  21599616.922                    21599626.035
 126103378.780 6  98262421.96343  23996676.297                    23996685.586
 122267586.790 7  95273568.84543  23266733.648                    23266740.746
 113043973.767 8  88086341.97346  21511534.211                    21511539.750
 112200416.092 8  87428970.164 7  21351028.117                    21351034.508
 106792513.640 8  83215021.077 8  20321919.977                    20321926.984
 11  8 13  2 38  0.0000000  0  8G29G30G25G26G10G02G12G05
 119399341.232 7  93038507.503 7  22720935.523                    22720943.887
 113033834.272 8  88078372.69145  21509622.211                    21509629.465
 113500582.330 8  88442105.372 7  21598444.266                    21598453.668
 126007272.803 6  98187534.25144  23978388.500                    23978397.039
 122368908.324 7  95352520.69443  23286014.242                    23286021.539
 113081976.877 8  88115954.79546  21518766.359                    21518771.238
 112258024.153 7  87473859.584 7  21361990.430                    21361996.828
 106810130.893 8  83228748.846 8  20325272.422                    20325278.953
 11  8 13  2 38 30.0000000  0  8G29G30G25G26G10G02G12G05
 119317299.170 7  92974578.726 7  22705323.539                    22705331.293
 113057317.205 7  88096671.09645  21514090.836                    21514097.781
 113495003.948 8  88437758.616 7  21597382.734                    21597392.297
 125911180.297 6  98112657.06243  23960102.383                    23960110.770
 122470435.041 7  95431632.42443  23305334.258                    23305342.180
 113120076.454 8  88145642.78846  21526016.094                    21526021.504
 112316089.543 7  87519105.366 7  21373040.141                    21373046.457
 106828288.174 8  83242897.404 8  20328727.469                    20328734.516
 11  8 13  2 39  0.0000000  0  8G29G30G25G26G10G02G12G05
 119235321.268 7  92910699.958 7  22689723.680                    22689731.137
 113081371.636 8  88115414.83645  21518668.477                    21518675.707
 113490007.010 8  88433864.943 7  21596431.641                    21596440.996
 125815104.586 6  98037792.99543  23941819.570                    23941827.348
 122572164.040 7  95510901.76844  23324692.531                    23324700.820
 113158272.264 8  88175405.76346  21533285.016                    21533290.031
 112374609.985 7  87564705.742 7  21384176.242                    21384182.566
 106846983.904 8  83257465.533 8  20332285.469                    20332292.359
 11  8 13  2 39 30.0000000  0  8G29G30G25G26G10G02G12G05
 119153409.394 7  92846872.603 6  22674136.289                    22674143.902
 113105995.931 8  88134602.62045  21523353.953                    21523361.469
 113485591.248 8  88430424.127 7  21595590.977                    21595600.672
 125719049.005 6  97962944.57543  23923540.914                    23923549.180
 122674092.513 7  95590326.57344  23344089.094                    23344096.301
 113196564.091 8  88205243.56346  21540571.039                    21540576.785
 112433582.820 8  87610658.650 7  21395398.023                    21395404.504
 106866216.813 8  83272452.235 8  20335945.078                    20335951.883
 11  8 13  2 40  0.0000000  0  8G29G30G25G26G10G02G12G05
 119071565.293 7  92783098.084 7  22658561.445                    22658569.543
 113131188.586 7  88154233.29245  21528147.602                    21528155.449
 113481756.562 8  88427436.101 7  21594861.570                    21594870.848
 125623016.665 6  97888114.23143  23905266.273                    23905274.465
 122776217.773 7  95669904.69544  23363522.703                    23363530.512
 113234951.306 8  88235155.68546  21547876.086                    21547880.867
 112493005.906 8  87656962.391 7  21406705.633                    21406712.348
 106885985.417 8  83287856.371 8  20339707.039                    20339713.742
 11  8 13  2 40 30.0000000  0  8G29G30G25G26G10G02G12G05
 118989790.707 7  92719377.713 7  22643000.719                    22643008.328
 113156948.048 7  88174305.58945  21533049.844                    21533057.395
 113478502.684 8  88424900.647 7  21594242.547                    21594251.594
 125527011.303 6  97813304.99743  23886997.008                    23887004.965
 122878536.944 7  95749633.90044  23382993.578                    23383001.258
 113273433.832 8  88265142.06645  21555199.273                    21555204.012
 112552876.618 8  87703614.907 7  21418099.125                    21418105.051
 106906288.662 8  83303677.104 8  20343570.484                    20343577.133
 11  8 13  2 41  0.0000000  0  8G29G30G25G26G10G02G12G05
 118908087.473 7  92655712.937 7  22627452.516                    22627460.203
 113183272.984 7  88194818.56645  21538059.422                    21538066.941
 113475829.518 8  88422817.685 7  21593733.930                    21593742.684
 125431036.266 6  97738519.32843  23868733.445                    23868742.172
 122981047.394 7  95829512.15143  23402500.055                    23402508.250
 113312011.955 8  88295202.93846  21562540.445                    21562545.434
 112613192.993 8  87750614.682 7  21429576.891                    21429583.535
 106927125.198 8  83319913.396 8  20347535.672                    20347542.434
 11  8 13  2 41 30.0000000  0  8G29G30G25G26G10G02G12G05
 118826457.436 7  92592105.184 7  22611919.328                    22611926.699
 113210161.656 7  88215770.81545  21543175.672                    21543183.297
 113473736.768 8  88421187.015 7  21593335.492                    21593344.473
 125335094.944 6  97663759.89343  23850476.883                    23850485.465
 123083746.247 6  95909537.25443  23422043.625                    23422050.676
 113350684.965 8  88325337.75145  21569899.602                    21569904.742
 112673952.442 7  87797959.702 7  21441138.883                    21441145.273
 106948493.692 8  83336564.179 8  20351602.070                    20351608.703
 11  8 13  2 42  0.0000000  0  8G29G30G25G26G10G02G12G05
 118744902.263 7  92528555.773 7  22596399.313                    22596406.504
 113237612.390 7  88237161.01845  21548399.289                    21548407.004
 113472224.112 8  88420008.354 7  21593047.516                    21593056.934
 125239190.555 6  97589029.23143  23832226.617                    23832235.020
 123186630.917 6  95989707.10643  23441621.758                    23441629.426
 113389452.581 8  88355546.28446  21577276.977                    21577281.602
 112735152.495 7  87845648.032 7  21452784.719                    21452791.266
 106970392.501 8  83353628.210 8  20355768.922                    20355775.637
 11  8 13  2 42 30.0000000  0  8G29G30G25G26G10G02G12G05
 118663423.737 7  92465066.083 7  22580894.734                    22580902.203
 113265623.224 7  88258987.65245  21553730.039                    21553737.324
 113471290.997 8  88419281.286 7  21592870.000                    21592879.414
 125143326.316 6  97514329.87143  23813984.461                    23813992.695
 123289698.351 7  96070019.36943  23461234.906                    23461242.324
 113428314.384 8  88385828.20945  21584672.125                    21584677.016
 112796790.553 7  87893677.663 7  21464514.391                    21464520.801
 106992819.994 8  83371104.190 8  20360036.742                    20360043.762
 11  8 13  2 43  0.0000000  0  8G29G30G25G26G10G02G12G05
 118582023.410 7  92401637.338 7  22565404.648                    22565411.945
 113294192.551 7  88281249.47745  21559166.297                    21559173.938
 113470937.075 8  88419005.543 7  21592802.344                    21592812.160
 125047506.119 7  97439664.81443  23795749.953                    23795758.000
 123392945.960 7  96150471.99443  23480882.672                    23480889.754
 113467270.318 8  88416183.49446  21592085.383                    21592090.125
 112858864.115 7  87942046.647 7  21476326.586                    21476332.570
 107015774.822 8  83388991.092 8  20364404.664                    20364411.645
 11  8 13  2 43 30.0000000  0  8G29G30G25G26G10G02G12G05
 118500703.421 7  92338271.171 6  22549929.953                    22549937.191
 113323318.886 7  88303945.34945  21564708.992                    21564716.844
 113471162.188 8  88419180.974 7  21592845.055                    21592854.512
 124951733.024 7  97365036.44344  23777525.406                    23777533.406
 123496371.039 7  96231062.96243  23500563.258                    23500571.148
 113506320.174 8  88446611.96045  21599516.234                    21599521.051
 112921370.786 7  87990753.113 7  21488221.141                    21488227.805
 107039255.505 8  83407287.754 8  20368873.086                    20368879.641
 11  8 13  2 44  0.0000000  0  8G29G30G25G26G10G02G12G05
 118419465.657 7  92274969.061 7  22534471.328                    22534478.039
 113353000.253 7  88327073.70745  21570357.352                    21570364.555
 113471965.705 8  88419807.127 7  21592998.266                    21593007.781
 124856010.697 7  97290447.70344  23759309.906                    23759318.438
 123599970.530 7  96311789.85743  23520278.563                    23520285.012
 113545463.698 8  88477113.41545  21606965.008                    21606969.488
 112984308.256 7  88039795.274 7  21500197.648                    21500204.125
 107063260.536 8  83425992.985 8  20373441.125                    20373447.578
 11  8 13  2 44 30.0000000  0  8G29G30G25G26G10G02G12G05
 118338311.960 7  92211732.465 7  22519027.359                    22519035.094
 113383234.939 7  88350633.20945  21576110.523                    21576118.285
 113473347.256 8  88420883.684 7  21593261.016                    21593270.156
 124760342.203 7  97215900.81244  23741104.266                    23741112.414
 123703741.684 7  96392650.55543  23540024.570                    23540031.738
 113584700.595 8  88507687.62245  21614431.523                    21614436.391
 113047673.643 7  88089170.899 7  21512255.813                    21512262.090
 107087788.308 8  83445105.552 8  20378108.688                    20378114.852
 11  8 13  2 45  0.0000000  0  8G29G30G25G26G10G02G12G05
 118257243.846 7  92148562.555 7  22503600.875                    22503608.180
 113414021.326 7  88374622.62045  21581968.555                    21581976.289
 113475306.562 8  88422410.447 7  21593633.828                    21593642.871
 124664731.370 6  97141398.91343  23722910.492                    23722918.293
 123807682.096 6  96473643.11543  23559804.188                    23559811.512
 113624030.634 8  88538334.41345  21621915.648                    21621920.699
 113111465.310 7  88138878.678 7  21524395.094                    21524401.480
 107112837.407 8  83464624.340 8  20382875.180                    20382881.949
 11  8 13  2 45 30.0000000  0  9G29G30G25G26G10G15G02G12G05
 118176263.321 7  92085460.900 7  22488190.977                    22488198.344
 113445357.656 7  88399040.57445  21587932.125                    21587939.855
 113477843.178 8  88424387.048 7  21594116.523                    21594125.801
 124569181.776 7  97066944.78843  23704728.016                    23704736.367
 123911789.080 7  96554765.40743  23579614.922                    23579621.891
 129476187.02315                  24638474.141
 113663453.991 8  88569053.92145  21629417.711                    21629422.773
 113175680.059 7  88188916.150 7  21536614.570                    21536621.043
 107138406.668 8  83484548.461 8  20387741.008                    20387747.445
 11  8 13  2 46  0.0000000  0  9G29G30G25G26G10G15G02G12G05
 118095372.405 7  92022429.071 7  22472797.977                    22472805.453
 113477241.834 7  88423885.39845  21593999.563                    21594006.738
 113480956.347 8  88426812.919 7  21594708.781                    21594718.035
 124473696.462 6  96992540.64543  23686557.070                    23686566.289
 124016060.005 7  96636015.48343  23599457.492                    23599464.590
 129382313.009 6 100817319.56116  24620610.617                    24620618.430
 113702970.331 8  88599845.87545  21636937.414                    21636942.168
 113240315.389 8  88239281.347 7  21548914.195                    21548921.008
 107164493.943 8  83504876.218 8  20392705.836                    20392711.488
 11  8 13  2 46 30.0000000  0  9G29G30G25G26G10G15G02G12G05
 118014573.065 7  91959468.615 7  22457422.125                    22457428.980
 113509672.154 7  88449155.80345  21600170.711                    21600177.633
 113484645.643 8  88429687.717 7  21595410.898                    21595420.188
 124378279.365 6  96918189.73844  23668400.414                    23668408.605
 124120491.848 7  96717390.97243  23619329.750                    23619337.070
 129288311.959 6 100744072.158 6  24602722.719                    24602730.953
 113742579.194 8  88630709.95645  21644474.773                    21644479.676
 113305368.745 7  88289972.282 7  21561293.625                    21561299.977
 107191097.307 8  83525606.128 8  20397767.555                    20397774.129
 11  8 13  2 47  0.0000000  0  9G29G30G25G26G10G15G02G12G05
 117933867.068 7  91896580.893 7  22442064.547                    22442071.320
 113542646.881 7  88474850.39345  21606445.367                    21606452.328
 113488910.663 8  88433011.113 7  21596222.297                    21596231.656
 124282933.873 6  96843894.60144  23650256.336                    23650264.809
 124225081.990 7  96798889.78743  23639232.734                    23639239.426
 129194186.783 6 100670727.940 6  24584811.039                    24584819.043
 113782281.046 8  88661646.47145  21652029.742                    21652034.793
 113370837.721 7  88340987.070 7  21573751.680                    21573758.434
 107218216.322 8  83546737.859 8  20402928.180                    20402934.617
 11  8 13  2 47 30.0000000  0  9G29G30G25G26G10G15G02G12G05
 117853256.288 7  91833767.366 7  22426724.352                    22426732.230
 113576163.769 7  88500967.47345  21612823.828                    21612831.066
 113493750.564 8  88436782.498 7  21597143.773                    21597152.676
 124187662.919 6  96769657.50743  23632127.469                    23632135.359
 124329827.861 7  96880509.97143  23659165.359                    23659172.605
 129099939.590 6 100597288.685 6  24566876.406                    24566884.617
 113822075.202 8  88692654.92045  21659602.109                    21659606.820
 113436719.311 7  88392323.382 7  21586288.742                    21586295.363
 107245848.780 8  83568269.651 8  20408186.586                    20408192.633
 11  8 13  2 48  0.0000000  0  9G29G30G25G26G10G15G02G12G05
 117772742.343 7  91771029.311 7  22411403.570                    22411410.445
 113610220.832 7  88527505.46145  21619304.828                    21619312.066
 113499164.510 8  88441001.157 7  21598173.648                    21598182.672
 124092470.310 6  96695481.50643  23614012.023                    23614021.211
 124434726.218 7  96962248.97943  23679126.484                    23679133.766
 129005572.764 6 100523756.213 6  24548918.844                    24548926.730
 113861961.217 8  88723734.97145  21667192.570                    21667196.934
 113503011.052 7  88443979.299 7  21598903.508                    21598910.051
 107273992.473 8  83590199.825 8  20413542.031                    20413548.605
 11  8 13  2 48 30.0000000  0  9G29G30G25G26G10G15G02G12G05
 117692327.126 7  91708368.179 7  22396100.938                    22396107.891
 113644816.042 7  88554462.78745  21625887.594                    21625895.160
 113505151.927 8  88445666.717 7  21599313.180                    21599322.125
 123997359.548 7  96621369.27243  23595913.555                    23595922.332
 124539774.468 7  97044104.75343  23699116.711                    23699124.262
 128911088.994 7 100450132.599 6  24530939.156                    24530947.020
 113901939.165 8  88754886.63745  21674799.617                    21674804.254
 113569710.388 7  88495952.805 7  21611595.820                    21611602.590
 107302645.861 8  83612527.159 8  20418994.875                    20419001.176
 11  8 13  2 49  0.0000000  0  9G29G30G25G26G10G15G02G12G05
 117612012.802 7  91645785.674 7  22380816.734                    22380824.645
 113679947.647 7  88581838.08445  21632572.992                    21632580.637
 113511712.223 8  88450778.645 7  21600561.680                    21600570.551
 123902333.976 7  96547323.44744  23577830.750                    23577838.941
 124644970.249 6  97126075.46743  23719134.156                    23719142.246
 128816490.670 6 100376419.724 6  24512937.273                    24512945.277
 113942008.774 7  88786109.75145  21682424.734                    21682429.402
 113636814.680 7  88548241.870 7  21624365.641                    21624371.992
 107331807.494 8  83635250.527 8  20424544.242                    20424550.473
 11  8 13  2 49 30.0000000  0  9G29G30G25G26G10G15G02G12G05
 117531801.362 7  91583283.363 7  22365553.398                    22365561.273
 113715613.656 7  88609629.81345  21639359.805                    21639367.625
 113518844.794 8  88456336.510 7  21601918.828                    21601928.250
 123807397.355 7  96473346.95744  23559765.734                    23559772.637
 124750310.721 6  97208158.92443  23739180.289                    23739187.852
 128721780.349 7 100302619.555 6  24494914.023                    24494923.133
 113982170.142 7  88817404.33045  21690067.781                    21690072.160
 113704321.241 7  88600844.388 7  21637211.461                    21637218.375
 107361475.763 8  83658368.685 8  20430189.555                    20430196.035
 11  8 13  2 50  0.0000000  0  9G29G30G25G26G10G15G02G12G05
 117451694.541 7  91520862.530 7  22350309.773                    22350316.953
 113751811.951 7  88637836.28745  21646248.445                    21646255.594
 113526548.820 8  88462339.677 7  21603384.797                    21603393.809
 123712553.085 7  96399442.41543  23541716.484                    23541724.281
 124855793.286 6  97290353.09043  23759253.438                    23759260.887
 128626960.840 7 100228734.361 6  24476871.484                    24476878.961
 114022423.051 7  88848770.24545  21697726.953                    21697731.832
 113772227.520 7  88653758.380 7  21650133.781                    21650140.605
 107391648.944 8  83681880.271 8  20435931.055                    20435937.914
 11  8 13  2 50 30.0000000  0  9G29G30G25G26G10G15G02G12G05
 117371694.393 7  91458524.846 7  22335085.539                    22335093.031
 113788540.692 7  88666456.11545  21653237.656                    21653245.063
 113534823.741 8  88468787.686 7  21604959.305                    21604968.207
 123617804.774 7  96325612.65944  23523685.883                    23523694.656
 124961415.454 6  97372655.99143  23779352.375                    23779360.027
 128532034.519 6 100154765.835 5  24458806.453                    24458814.262
 114062767.351 7  88880207.38045  21705404.195                    21705409.082
 113840530.804 7  88706981.726 7  21663131.320                    21663137.883
 107422325.340 8  83705783.974 8  20441768.547                    20441775.141
 11  8 13  2 51  0.0000000  0  9G29G30G25G26G10G15G02G12G05
 117291802.612 7  91396271.576 7  22319883.094                    22319889.957
 113825797.542 7  88695487.44645  21660327.508                    21660334.582
 113543668.415 8  88475679.673 7  21606642.203                    21606651.969
 123523155.754 7  96251860.26944  23505674.797                    23505683.102
 125067174.217 6  97455065.41843  23799476.727                    23799484.852
 128437004.030 6 100080716.221 5  24440722.852                    24440730.750
 114103202.975 7  88911715.67545  21713099.188                    21713103.734
 113909228.647 7  88760512.503 7  21676204.273                    21676210.621
 107453502.605 8  83730077.964 8  20447701.633                    20447708.121
 11  8 13  2 51 30.0000000  0  9G29G30G25G26G10G15G02G12G05
 117212021.280 7  91334104.391 7  22304700.672                    22304708.355
 113863580.482 7  88724928.71745  21667517.070                    21667523.910
 113553082.170 8  88483015.088 7  21608433.516                    21608443.273
 123428609.610 7  96178187.99843  23487683.906                    23487691.223
 125173067.068 6  97537579.31743  23819628.461                    23819635.887
 128341871.781 6 100006587.271 5  24422619.711                    24422627.430
 114143729.618 8  88943294.89345  21720811.156                    21720815.895
 113978317.854 7  88814348.250 7  21689351.609                    21689358.059
 107485179.373 8  83754761.171 8  20453729.609                    20453735.414
 11  8 13  2 52  0.0000000  0  9G29G30G25G26G10G15G02G12G05
 117132352.549 7  91272024.931 7  22289540.391                    22289547.969
 113901887.655 7  88754778.48345  21674806.516                    21674814.184
 113563064.533 8  88490793.581 7  21610333.695                    21610342.719
 123334170.011 7  96104598.77744  23469712.352                    23469719.848
 125279091.514 6  97620195.77443  23839803.625                    23839810.785
 128246640.809 6  99932381.429 5  24404498.125                    24404505.898
 114184347.591 8  88974945.27745  21728540.273                    21728544.898
 114047796.259 7  88868487.288 7  21702572.594                    21702578.891
 107517354.257 8  83779832.534 8  20459852.273                    20459858.191
 11  8 13  2 52 30.0000000  0  9G29G30G25G26G10G15G02G12G05
 117052798.318 7  91210034.683 7  22274401.742                    22274408.883
 113940716.819 7  88785035.00045  21682195.633                    21682203.195
 113573614.371 8  88499014.250 7  21612341.305                    21612350.516
 123239840.608 7  96031095.40444  23451761.664                    23451769.992
 125385244.947 7  97702912.71943  23860003.688                    23860011.316
 128151313.488 6  99858100.519 5  24386357.500                    24386365.348
 114225056.436 8  89006666.46145  21736287.063                    21736291.363
 114117661.026 8  88922927.380 7  21715867.500                    21715873.980
 107550025.358 8  83805290.556 8  20466069.359                    20466075.496
 11  8 13  2 53  0.0000000  0  9G29G30G25G26G10G15G02G12G05
 116973360.839 7  91148135.427 7  22259285.500                    22259292.172
 113980066.018 7  88815696.73945  21689683.594                    21689691.008
 113584731.079 8  88507676.643 7  21614456.172                    21614465.301
 123145625.139 7  95957680.81944  23433833.039                    23433841.273
 125491524.930 6  97785728.24543  23880228.430                    23880236.160
 128055892.519 6  99783746.600 5  24368199.164                    24368207.754
 114265856.443 8  89038458.68945  21744050.844                    21744055.473
 114187909.428 8  88977666.414 7  21729235.344                    21729241.871
 107583190.783 8  83831133.764 8  20472380.281                    20472386.668
 11  8 13  2 53 30.0000000  0  9G29G30G25G26G10G15G02G12G05
 116894042.532 7  91086329.004 7  22244191.805                    22244198.520
 114019933.337 7  88846762.18745  21697269.883                    21697277.102
 113596413.840 8  88516780.121 7  21616679.617                    21616688.523
 123051527.207 7  95884357.83944  23415926.922                    23415934.582
 125597928.737 6  97868640.30443  23900476.359                    23900484.063
 127960380.779 6  99709321.964 6  24350024.500                    24350032.438
 114306747.577 8  89070321.92245  21751832.289                    21751837.184
 114258539.235 8  89032702.641 7  21742675.750                    21742682.453
 107616848.824 8  83857360.825 8  20478785.461                    20478791.930
 11  8 13  2 54  0.0000000  0  9G29G30G25G26G10G15G02G12G05
 116814844.013 7  91024615.929 7  22229120.578                    22229127.730
 114060315.698 8  88878228.98645  21704954.688                    21704961.664
 113608661.037 8  88526323.412 7  21619010.141                    21619019.727
 122957549.664 7  95811128.65044  23398043.586                    23398051.191
 125704453.486 6  97951646.59043  23920747.273                    23920754.590
 127864780.090 6  99634828.061 6  24331832.141                    24331840.055
 114347729.137 8  89102255.61145  21759630.758                    21759635.426
 114329546.746 8  89088033.182 7  21756188.203                    21756194.664
 107650996.634 8  83883969.537 8  20485283.563                    20485289.688
 11  8 13  2 54 30.0000000  0  9G29G30G25G26G10G15G02G12G05
 116735768.160 7  90962998.430 7  22214072.742                    22214080.352
 114101211.521 7  88910095.88245  21712736.164                    21712744.063
 113621472.283 8  88536306.235 7  21621447.938                    21621457.457
 122863696.578 7  95737996.44244  23380184.141                    23380191.594
 125811096.773 6  98034745.28243  23941041.172                    23941048.281
 127769093.617 6  99560267.297 6  24313623.828                    24313631.383
 114388801.570 8  89134260.10945  21767446.523                    21767451.258
 114400929.986 8  89143656.506 7  21769771.969                    21769778.230
 107685633.772 8  83910959.524 8  20491874.852                    20491880.875
 11  8 13  2 55  0.0000000  0  9G29G30G25G26G10G15G02G12G05
 116656816.592 7  90901477.794 7  22199048.891                    22199055.941
 114142618.279 7  88942360.91645  21720616.195                    21720623.117
 113634846.213 7  88546727.513 7  21623992.680                    21624001.906
 122769971.369 7  95664963.88544  23362348.852                    23362356.430
 125917855.761 6  98117934.10743  23961357.070                    23961364.020
 127673323.780 6  99485641.573 6  24295398.156                    24295407.297
 114429964.454 7  89166335.09445  21775279.516                    21775284.223
 114472685.601 7  89199569.999 7  21783426.570                    21783432.871
 107720757.441 8  83938328.637 8  20498558.375                    20498564.844
 11  8 13  2 55 30.0000000  0  9G29G30G25G26G10G15G02G12G05
 116577991.433 7  90840055.639 7  22184048.461                    22184056.184
 114184533.608 7  88975022.23145  21728592.336                    21728599.691
 113648781.810 8  88557586.432 7  21626644.953                    21626653.672
 122676377.510 7  95592033.69644  23344537.852                    23344546.563
 126024727.574 6  98201210.84443  23981693.781                    23981701.410
 127577473.225 6  99410952.945 6  24277159.234                    24277167.160
 114471217.608 7  89198480.41245  21783129.750                    21783134.254
 114544810.795 7  89255771.475 7  21797151.445                    21797157.945
 107756365.753 8  83966075.390 8  20505334.625                    20505340.707
 11  8 13  2 56  0.0000000  0  9G29G30G25G26G10G15G02G12G05
 116499294.633 7  90778733.520 7  22169073.156                    22169080.336
 114226955.313 7  89008078.12945  21736664.859                    21736671.898
 113663278.024 8  88568882.205 7  21629403.117                    21629412.426
 122582918.628 7  95519208.64644  23326753.430                    23326761.500
 126131710.063 6  98284573.76743  24002052.141                    24002059.449
 127481544.561 6  99336203.454 6  24258904.594                    24258912.168
 114512560.695 7  89230695.82745  21790996.875                    21791002.141
 114617302.840 7  89312258.806 7  21810946.422                    21810952.602
 107792456.823 8  83994198.322 8  20512202.422                    20512208.461
 11  8 13  2 56 30.0000000  0  9G29G30G25G26G10G15G02G12G05
 116420728.483 7  90717513.195 7  22154122.422                    22154129.723
 114269881.216 7  89041526.89745  21744833.641                    21744840.785
 113678333.916 8  88580614.096 7  21632268.555                    21632277.492
 122489598.304 7  95446491.57744  23308995.578                    23309002.898
 126238800.748 6  98368021.02143  24022430.500                    24022438.352
 127385540.566 7  99261395.240 6  24240635.305                    24240642.633
 114553994.515 7  89262981.93545  21798881.625                    21798886.723
 114690159.178 7  89369030.015 7  21824809.750                    21824816.426
 107829029.073 8  84022696.184 8  20519162.070                    20519168.188
 11  8 13  2 57  0.0000000  0  9G29G30G25G26G10G15G02G12G05
 116342294.953 7  90656396.216 7  22139196.977                    22139204.004
 114313308.898 7  89075366.66545  21753097.508                    21753104.691
 113693948.318 8  88592781.163 7  21635239.930                    21635248.785
 122396420.170 7  95373885.28944  23291263.898                    23291271.379
 126345997.031 6  98451550.58543  24042828.742                    24042836.602
 127289463.520 6  99186530.149 6  24222352.023                    24222360.109
 114595518.651 7  89295338.40945  21806783.367                    21806788.332
 114763376.635 7  89426082.597 7  21838742.961                    21838749.313
 107866080.267 8  84051567.258 8  20526212.367                    20526218.645
 11  8 13  2 57 30.0000000  0  9G29G30G25G26G10G15G02G12G05
 116263996.098 7  90595384.165 7  22124297.203                    22124304.754
 114357236.275 7  89109595.79445  21761456.719                    21761463.871
 113710120.400 8  88605382.811 7  21638317.047                    21638326.055
 122303387.851 7  95301392.57744  23273559.852                    23273568.832
 126453296.306 6  98535160.36243  24063248.195                    24063255.371
 127193316.607 7  99111610.609 6  24204056.242                    24204064.285
 114637133.051 7  89327765.21345  21814702.602                    21814707.406
 114836952.805 7  89483414.698 7  21852744.156                    21852750.031
 107903608.732 8  84080810.215 8  20533353.836                    20533360.320
 11  8 13  2 58  0.0000000  0  9G29G30G25G26G10G15G02G12G05
 116185833.644 7  90534478.396 7  22109423.594                    22109430.156
 114401660.539 7  89144212.12045  21769910.234                    21769917.391
 113726848.435 8  88618417.664 7  21641499.984                    21641509.453
 122210504.572 7  95229015.97244  23255884.844                    23255893.215
 126560695.522 6  98618848.09543  24083684.461                    24083692.805
 127097102.049 6  99036638.318 6  24185746.719                    24185754.730
 114678837.271 7  89360262.00845  21822638.484                    21822643.129
 114910884.179 7  89541023.588 7  21866812.641                    21866819.129
 107941611.612 8  84110422.862 8  20540585.477                    20540591.637
 11  8 13  2 58 30.0000000  0  9G29G30G25G26G10G15G02G12G05
 116107809.776 7  90473680.625 7  22094575.766                    22094583.215
 114446579.828 7  89179214.17145  21778458.383                    21778465.359
 113744131.896 8  88631885.321 7  21644789.273                    21644798.543
 122117774.633 7  95156758.82544  23238238.914                    23238247.262
 126668192.645 6  98702612.07343  24104141.266                    24104149.074
 127000823.310 6  98961616.034 6  24167425.531                    24167433.738
 114720632.295 7  89392829.55945  21830591.797                    21830596.980
 114985168.835 7  89598907.748 7  21880948.766                    21880955.445
 107980087.947 8  84140404.432 8  20547907.297                    20547913.766
 11  8 13  2 59  0.0000000  0  9G29G30G25G26G10G15G02G12G05
 116029926.929 7  90412992.740 7  22079755.648                    22079762.375
 114491991.662 7  89214600.03945  21787099.586                    21787106.738
 113761969.441 8  88645784.714 7  21648183.813                    21648193.055
 122025201.446 7  95084623.83144  23220623.656                    23220630.777
 126775785.262 6  98786450.46043  24124615.734                    24124623.148
 126904482.762 6  98886545.552 6  24149092.375                    24149100.551
 114762517.263 7  89425467.21245  21838562.617                    21838567.273
 115059804.072 7  89657065.093 7  21895151.125                    21895157.789
 108019035.713 7  84170753.353 8  20555319.078                    20555325.164
 11  8 13  2 59 30.0000000  0  9G29G30G25G26G10G15G02G12G05
 115952187.065 7  90352416.266 7  22064962.039                    22064969.227
 114537893.435 7  89250367.67145  21795834.875                    21795841.387
 113780359.596 8  88660114.721 7  21651683.352                    21651691.930
 121932788.464 7  95012613.69744  23203037.664                    23203045.660
 126883470.592 6  98870361.13743  24145107.625                    24145115.383
 126808082.805 6  98811428.805 6  24130747.570                    24130756.266
 114804492.185 7  89458174.93945  21846549.914                    21846554.730
 115134786.373 7  89715492.859 7  21909419.859                    21909426.027
 108058452.437 8  84201467.699 8  20562819.375                    20562826.121
 11  8 13  3  0  0.0000000  0  9G29G30G25G26G10G15G02G12G05
 115874592.251 7  90291952.838 7  22050195.766                    22050203.180
 114584282.938 7  89286515.34545  21804662.508                    21804669.266
 113799301.481 8  88674874.633 7  21655287.898                    21655296.641
 121840539.665 7  94940731.58144  23185483.469                    23185491.910
 126991246.564 6  98954342.41343  24165616.891                    24165624.488
 126711626.382 7  98736267.992 6  24112393.219                    24112401.387
 114846557.496 8  89490953.12445  21854554.773                    21854559.098
 115210112.735 7  89774188.727 7  21923753.688                    21923760.500
 108098336.640 8  84232546.304 8  20570409.242                    20570415.477
 11  8 13  3  0 30.0000000  0  9G29G30G25G26G10G15G02G12G05
 115797144.425 7  90231603.919 7  22035458.281                    22035465.160
 114631157.607 7  89323041.07945  21813582.180                    21813589.320
 113818793.560 8  88690063.281 7  21658997.094                    21659005.777
 121748458.389 7  94868979.97944  23167960.734                    23167968.613
 127099110.223 6  99038392.03043  24186142.477                    24186150.195
 126615116.237 6  98661065.325 6  24094028.695                    24094035.563
 114888713.107 8  89523801.64945  21862576.555                    21862581.418
 115285780.448 7  89833150.594 7  21938152.914                    21938159.742
 108138685.921 8  84263987.301 8  20578087.516                    20578094.020
 11  8 13  3  1  0.0000000  0  9G29G30G25G26G10G15G02G12G05
 115719845.877 7  90171371.343 7  22020748.391                    22020755.738
 114678514.999 7  89359942.95545  21822593.469                    21822600.762
 113838834.623 8  88705679.719 7  21662810.945                    21662819.969
 121656548.539 7  94797362.02144  23150470.758                    23150478.926
 127207059.139 6  99122508.07343  24206684.531                    24206692.063
 126518555.032 6  98585822.921 6  24075652.445                    24075660.477
 114930958.788 8  89556720.35045  21870615.891                    21870620.457
 115361786.873 7  89892376.366 7  21952616.570                    21952623.121
 108179498.286 8  84295789.145 8  20585853.758                    20585860.492
 11  8 13  3  1 30.0000000  0  9G29G30G25G26G10G15G02G12G05
 115642698.491 7  90111256.567 7  22006068.180                    22006074.625
 114726352.490 7  89397218.93945  21831697.188                    21831704.152
 113859423.236 8  88721722.799 7  21666728.336                    21666737.563
 121564813.289 7  94725880.13544  23133014.227                    23133022.242
 127315090.710 6  99206688.54543  24227241.797                    24227250.105
 126421945.518 6  98510542.855 6  24057268.758                    24057276.000
 114973294.459 7  89589709.15445  21878671.672                    21878676.867
 115438128.931 7  89951863.700 7  21967143.922                    21967150.520
 108220771.418 7  84327950.032 8  20593707.938                    20593714.348
 11  8 13  3  2  0.0000000  0  9G29G30G25G26G10G15G02G12G05
 115565704.444 7  90051261.244 7  21991416.531                    21991423.266
 114774667.801 8  89434867.24945  21840891.055                    21840898.375
 113880558.181 8  88738191.594 7  21670750.242                    21670759.555
 121473256.567 7  94654537.31944  23115591.234                    23115599.000
 127423202.736 6  99290931.67343  24247815.266                    24247822.184
 126325290.392 6  98435227.262 6  24038875.016                    24038883.070
 115015720.354 8  89622768.27545  21886745.234                    21886749.605
 115514803.852 8  90011610.390 7  21981734.820                    21981741.074
 108262503.292 8  84360468.388 8  20601649.258                    20601655.797
 11  8 13  3  2 30.0000000  0  9G29G30G25G26G10G15G02G12G05
 115488865.881 7  89991387.095 7  21976794.828                    21976801.879
 114823458.354 7  89472885.89445  21850175.281                    21850183.168
 113902238.152 8  88755085.099 7  21674875.742                    21674884.434
 121381881.936 7  94583336.39244  23098203.273                    23098210.844
 127531392.683 6  99375235.46743  24268402.797                    24268410.555
 126228592.604 6  98359878.370 6  24020475.227                    24020482.605
 115058236.513 8  89655897.75745  21894835.977                    21894841.027
 115591808.741 7  90071614.216 7  21996388.109                    21996394.730
 108304692.036 8  84393342.730 8  20609677.633                    20609683.820
 11  8 13  3  3  0.0000000  0  9G29G30G25G26G10G15G02G12G05
 115412184.919 7  89931635.750 7  21962202.813                    21962209.344
 114872721.712 7  89511272.93245  21859549.891                    21859557.445
 113924461.729 8  88772402.190 7  21679104.609                    21679113.633
 121290693.037 7  94512280.17944  23080850.414                    23080858.496
 127639658.024 6  99459598.07042  24289005.797                    24289013.352
 126131854.724 6  98284498.297 6  24002066.047                    24002073.641
 115100842.829 8  89689097.48045  21902943.773                    21902947.992
 115669140.903 7  90131873.041 7  22011104.242                    22011110.340
 108347335.441 8  84426571.372 8  20617792.227                    20617798.715
 11  8 13  3  3 30.0000000  0  9G29G30G25G26G10G15G02G12G05
 115335663.920 7  89872009.045 7  21947641.164                    21947647.871
 114922455.093 7  89550026.23545  21869014.086                    21869021.391
 113947227.514 8  88790141.779 7  21683436.828                    21683445.594
 121199693.441 7  94441371.45744  23063534.477                    23063541.363
 127747996.600 6  99544017.79043  24309620.977                    24309629.145
 126035079.749 6  98209089.308 6  23983650.078                    23983657.289
 115143539.519 7  89722367.62345  21911068.508                    21911073.395
 115746796.998 7  90192384.299 7  22025881.547                    22025887.828
 108390431.639 8  84460152.829 8  20625993.188                    20625999.305
 11  8 13  3  4  0.0000000  0  9G29G30G25G26G10G15G02G12G05
 115259304.945 7  89812508.589 7  21933110.766                    21933117.156
 114972656.466 7  89589144.19545  21878567.133                    21878574.098
 113970534.310 8  88808302.929 7  21687871.664                    21687880.801
 121108887.165 7  94370613.33644  23046254.297                    23046261.758
 127856405.842 6  99628492.60242  24330250.711                    24330258.352
 125938270.488 6  98133653.610 6  23965227.727                    23965234.941
 115186326.767 7  89755708.31745  21919210.484                    21919214.852
 115824774.360 7  90253145.878 7  22040720.461                    22040726.641
 108433978.660 8  84494085.577 8  20634279.484                    20634285.887
 11  8 13  3  4 30.0000000  0  9G29G30G25G26G10G15G02G12G05
 115183109.966 7  89753135.934 7  21918610.906                    21918618.137
 115023322.546 7  89628624.25945  21888208.211                    21888215.531
 113994380.157 8  88826884.121 7  21692409.211                    21692418.832
 121018277.338 7  94300008.32944  23029012.078                    23029019.281
 127964883.041 6  99713020.38542  24350893.234                    24350900.461
 125841429.506 6  98058193.185 6  23946799.961                    23946807.320
 115229204.192 8  89789119.28645  21927369.742                    21927374.293
 115903069.644 7  90314155.213 7  22055619.430                    22055626.043
 108477973.708 8  84528367.434 8  20642651.828                    20642658.031
 11  8 13  3  5  0.0000000  0 10G29G30G25G26G10G15G02G21G12G05
 115107081.272 8  89693892.863 7  21904143.250                    21904150.043
 115074451.399 7  89668464.93645  21897938.016                    21897944.859
 114018764.051 8  88845884.590 7  21697049.609                    21697059.074
 120927868.282 7  94229559.77244  23011807.258                    23011815.215
 128073426.204 6  99797599.51642  24371547.773                    24371556.051
 125744559.747 6  97982710.342 6  23928365.625                    23928373.820
 115272172.217 8  89822600.85345  21935546.320                    21935551.016
 132372949.12816                  25189726.813
 115981680.357 7  90375410.333 7  22070578.336                    22070584.578
 108522415.315 8  84562997.257 8  20651109.070                    20651115.000
 11  8 13  3  5 30.0000000  0 10G29G30G25G26G10G15G02G21G12G05
 115031221.168 8  89634781.129 7  21889707.938                    21889714.445
 115126040.311 7  89708664.09545  21907755.203                    21907762.156
 114043684.521 8  88865303.154 7  21701792.352                    21701801.176
 120837663.434 7  94159270.34044  22994641.539                    22994649.375
 128182032.675 6  99882227.93643  24392214.484                    24392223.074
 125647664.305 6  97907207.502 6  23909927.188                    23909935.406
 115315231.004 8  89856153.15845  21943740.203                    21943745.266
 132315419.243 5 103102912.93152  25178779.570                    25178786.328
 116060604.181 7  90436909.442 7  22085597.242                    22085603.004
 108567301.168 8  84597973.260 8  20659650.188                    20659656.066
 11  8 13  3  6  0.0000000  0 10G29G30G25G26G10G15G02G21G12G05
 114955531.872 7  89575802.508 7  21875304.078                    21875311.254
 115178086.697 7  89749219.72045  21917659.320                    21917665.930
 114069139.956 8  88885138.561 7  21706636.156                    21706645.402
 120747666.513 7  94089142.95044  22977516.508                    22977523.719
 128290700.154 5  99966903.84543  24412893.320                    24412902.066
 125550745.928 6  97831686.745 6  23891483.805                    23891492.250
 115358380.521 7  89889776.16445  21951951.195                    21951955.906
 132257902.638 5 103058094.78842  25167833.438                    25167841.398
 116139837.092 7  90498649.375 7  22100674.547                    22100681.008
 108612629.096 8  84633293.725 8  20668276.070                    20668281.832
 11  8 13  3  6 30.0000000  0 10G29G30G25G26G10G15G02G21G12G05
 114880015.642 7  89516958.740 7  21860934.070                    21860940.523
 115230588.076 7  89790129.90045  21927649.695                    21927656.746
 114095129.042 8  88905389.808 7  21711581.094                    21711590.629
 120657881.309 7  94019180.53544  22960430.352                    22960437.777
 128399426.390 6 100051625.56843  24433583.508                    24433592.352
 125453807.626 6  97756150.470 6  23873037.008                    23873045.410
 115401620.987 7  89923470.05145  21960179.609                    21960184.305
 132200397.986 5                  25156890.000
 116219377.009 7  90560628.546 7  22115811.016                    22115816.965
 108658397.409 7  84668957.356 7  20676985.672                    20676991.484
 11  8 13  3  7  0.0000000  0 10G29G30G25G26G10G15G02G21G12G05
 114804674.247 7  89458251.220 7  21846597.063                    21846603.551
 115283541.359 7  89831392.20245  21937726.695                    21937733.449
 114121649.844 8  88926055.389 7  21716628.375                    21716637.039
 120568311.442 7  93949385.94744  22943386.000                    22943393.230
 128508208.993 6 100136391.19243  24454285.188                    24454293.371
 125356851.660 6  97680600.450 6  23854587.109                    23854594.855
 115444952.182 7  89957234.61045  21968425.438                    21968429.629
 132142904.630 5 102968481.99352  25145949.656                    25145956.715
 116299220.501 7  90622844.272 7  22131003.742                    22131010.652
 108704603.363 8  84704961.992 8  20685778.055                    20685784.125
 11  8 13  3  7 30.0000000  0 10G29G30G25G26G10G15G02G21G12G05
 114729510.214 7  89399681.882 7  21832293.633                    21832300.590
 115336944.053 7  89873004.69245  21947888.469                    21947895.930
 114148700.893 8  88947134.135 7  21721776.258                    21721785.230
 120478960.401 7  93879761.85044  22926382.320                    22926389.766
 128617045.097 6 100221198.60643  24474995.375                    24475003.781
 125259881.039 6  97605039.008 6  23836134.773                    23836141.883
 115488374.314 7  89991070.03345  21976688.555                    21976693.137
 132085422.221 6 102923690.63742  25135010.992                    25135018.195
 116379364.700 7  90685294.320 7  22146255.219                    22146261.711
 108751244.766 8  84741305.957 7  20694653.789                    20694659.684
 11  8 13  3  8  0.0000000  0 10G29G30G25G26G10G15G02G21G12G05
 114654525.403 7  89341252.217 7  21818024.047                    21818031.375
 115390793.355 7  89914965.20945  21958136.125                    21958143.105
 114176280.419 8  88968624.688 7  21727024.188                    21727033.250
 120389831.718 7  93810310.98244  22909421.664                    22909429.297
 128725932.462 6 100306045.89543  24495716.414                    24495724.406
 125162898.605 6  97529468.265 6  23817679.641                    23817686.523
 115531887.333 7  90024976.29445  21984968.414                    21984973.461
 132027949.969 6 102878907.06642  25124074.602                    25124082.309
 116459806.413 7  90747976.191 7  22161562.633                    22161568.980
 108798319.307 8  84777987.426 8  20703611.430                    20703617.879
 11  8 13  3  8 30.0000000  0 10G29G30G25G26G10G15G02G21G12G05
 114579722.020 7  89282963.904 7  21803790.000                    21803797.094
 115445086.428 7  89957271.50945  21968467.336                    21968474.730
 114204386.645 8  88990525.648 7  21732372.203                    21732381.051
 120300928.953 7  93741036.18444  22892503.820                    22892511.699
 128834868.865 6 100390931.42643  24516446.125                    24516454.383
 125065907.233 6  97453890.714 6  23799222.328                    23799229.859
 115575491.073 7  90058953.23745  21993266.063                    21993271.027
 131970487.065 6 102834130.86842  25113139.938                    25113148.215
 116540542.361 7  90810887.332 7  22176926.234                    22176932.305
 108845824.375 8  84815004.371 8  20712651.477                    20712657.637
 11  8 13  3  9  0.0000000  0 10G29G30G25G26G10G15G02G21G12G05
 114505102.490 8  89224818.866 7  21789590.141                    21789597.484
 115499820.731 7  89999921.62045  21978882.984                    21978889.828
 114233018.133 8  89012835.905 7  21737821.375                    21737830.184
 120212255.980 7  93671940.43944  22875630.453                    22875638.238
 128943852.244 6 100475853.55943  24537184.266                    24537192.172
 124968909.488 6  97378308.067 6  23780764.328                    23780772.000
 115619185.903 7  90093001.15545  22001580.789                    22001585.715
 131913033.376 6 102789361.81042  25102206.773                    25102214.570
 116621570.226 7  90874025.953 7  22192345.125                    22192351.527
 108893758.489 8  84852355.637 8  20721772.875                    20721779.285
 11  8 13  3  9 30.0000000  0 10G29G30G25G26G10G15G02G21G12G05
 114430668.901 7  89166818.715 7  21775425.617                    21775432.664
 115554993.499 7  90042913.38945  21989381.586                    21989388.789
 114262173.164 8  89035554.113 7  21743368.914                    21743378.176
 120123816.538 7  93603026.64544  22858800.453                    22858808.398
 129052879.914 6 100560810.23743  24557932.094                    24557939.578
 124871908.654 6  97302723.075 6  23762305.625                    23762313.246
 115662971.974 7  90127120.18945  22009912.984                    22009918.195
 131855588.417 6 102744599.58643  25091275.359                    25091282.789
 116702886.660 7  90937389.399 7  22207818.570                    22207825.738
 108942119.561 8  84890039.603 8  20730975.805                    20730982.121
 11  8 13  3 10  0.0000000  0 10G29G30G25G26G10G15G02G21G12G05
 114356423.331 7  89108965.062 7  21761297.414                    21761303.766
 115610602.032 7  90086244.71445  21999963.539                    21999970.879
 114291850.040 8  89058678.947 7  21749015.984                    21749025.305
 120035614.137 7  93534297.54244  22842016.359                    22842023.875
 129161949.678 6 100645799.69642  24578687.367                    24578694.758
 124774907.450 7  97227137.799 6  23743846.953                    23743854.340
 115706849.333 7  90161310.33645  22018262.828                    22018266.949
 131798151.590 6 102699843.72643  25080345.164                    25080353.328
 116784488.700 7  91000975.423 7  22223347.188                    22223353.750
 108990904.901 8  84928054.169 7  20740259.328                    20740265.602
 11  8 13  3 10 30.0000000  0  9G29G30G25G26G15G02G21G12G05
 114282368.962 7  89051260.398 7  21747204.805                    21747211.879
 115666644.239 7  90129913.96445  22010628.125                    22010635.320
 114322047.696 8  89082209.594 7  21754763.016                    21754771.852
 119947653.445 7  93465756.79744  22825278.211                    22825285.301
 124677909.547 7  97151555.078 6  23725388.117                    23725396.070
 115750818.816 7  90195572.28045  22026629.875                    22026634.109
 131740722.611 6 102655093.91443  25069416.266                    25069424.898
 116866374.075 7  91064782.206 7  22238929.875                    22238936.016
 109040112.889 8  84966398.069 7  20749623.813                    20749629.641
 11  8 13  3 11  0.0000000  0  9G29G30G25G26G15G02G21G12G05
 114208507.266 7  88993705.880 7  21733150.164                    21733156.586
 115723116.829 7  90173918.58045  22021374.570                    22021381.855
 114352763.838 8  89106144.250 7  21760607.781                    21760616.887
 119859937.453 7  93397406.72044  22808586.086                    22808593.676
 124580917.049 7  97075976.525 6  23706931.594                    23706938.633
 115794880.203 8  90229905.83345  22035014.492                    22035019.277
 131683300.687 6 102610349.59743  25058490.844                    25058498.105
 116948539.179 7  91128806.964 7  22254565.219                    22254571.742
 109089740.807 8  85005069.191 8  20759067.156                    20759073.527
 11  8 13  3 11 30.0000000  0  9G29G30G25G26G15G02G21G12G05
 114134839.975 8  88936302.835 7  21719131.406                    21719138.410
 115780016.600 7  90218256.06545  22032202.258                    22032209.676
 114383996.280 8  89130481.218 7  21766551.039                    21766559.926
 119772469.228 7  93329249.64844  22791941.328                    22791949.359
 124483932.778 6  97000404.474 6  23688475.609                    23688483.168
 115839033.171 7  90264310.73545  22043416.195                    22043420.824
 131625884.803 6 102565610.04743  25047563.570                    25047571.996
 117030980.316 7  91193046.821 7  22270253.094                    22270259.598
 109139785.877 8  85044065.377 8  20768590.305                    20768596.750
 11  8 13  3 12  0.0000000  0  9G29G30G25G26G15G02G21G12G05
 114061370.030 7  88879053.575 7  21705150.203                    21705157.418
 115837341.029 7  90262924.45845  22043111.070                    22043118.215
 114415743.620 7  89155219.412 7  21772592.305                    21772601.305
 119685253.010 7  93261288.97344  22775345.203                    22775352.484
 124386959.666 6  96924841.096 6  23670022.406                    23670029.738
 115883278.067 7  90298787.28645  22051835.875                    22051840.582
 131568474.812 6 102520875.07143  25036639.352                    25036646.313
 117113695.281 7  91257500.061 7  22285993.344                    22285999.605
 109190246.471 8  85083385.331 8  20778192.953                    20778199.082
 11  8 13  3 12 30.0000000  0  9G29G30G25G26G15G02G21G12G05
 113988099.315 7  88821959.564 7  21691207.500                    21691214.449
 115895087.294 7  90307921.54445  22054099.867                    22054107.098
 114448003.820 8  89180357.239 7  21778731.320                    21778740.426
 119598292.144 7  93193527.27344  22758796.391                    22758804.406
 124290000.663 7  96849288.706 6  23651572.484                    23651579.211
 115927614.640 7  90333335.26745  22060272.805                    22060277.633
 131511070.175 6 102476144.28643  25025715.633                    25025722.238
 117196680.860 7  91322164.148 7  22301784.961                    22301791.270
 109241119.989 8  85123027.049 7  20787873.750                    20787879.883
 11  8 13  3 13  0.0000000  0  9G29G30G25G26G15G02G21G12G05
 113915029.889 8  88765022.403 7  21677302.813                    21677309.172
 115953252.555 7  90353245.12145  22065168.195                    22065175.324
 114480775.186 8  89205893.374 7  21784967.453                    21784976.199
 119511590.655 7  93125967.67844  22742297.664                    22742305.211
 124193058.696 6  96773749.593 6  23633124.141                    23633130.965
 115972043.180 7  90367954.92145  22068727.438                    22068731.766
 131453670.245 6 102431417.17643  25014792.133                    25014800.000
 117279933.987 7  91387036.700 7  22317627.578                    22317634.086
 109292404.068 8  85162988.671 7  20797632.664                    20797638.871
 11  8 13  3 13 30.0000000  0  9G29G30G25G26G15G02G21G12G05
 113842164.593 8  88708244.281 7  21663436.922                    21663443.449
 116011834.159 7  90398893.13845  22076316.039                    22076322.973
 114514056.020 8  89231826.498 7  21791300.484                    21791309.758
 119425152.154 7  93058613.01144  22725849.547                    22725856.578
 124096136.691 6  96698225.997 6  23614680.219                    23614687.828
 116016564.227 7  90402646.65245  22077199.484                    22077204.258
 131396274.449 6 102386693.30343  25003870.086                    25003878.301
 117363451.718 7  91452115.462 7  22333520.703                    22333527.023
 109344096.749 8  85203268.697 8  20807469.695                    20807475.738
 11  8 13  3 14  0.0000000  0  9G29G30G25G26G15G02G21G12G05
 113769505.300 8  88651626.683 7  21649610.484                    21649616.637
 116070829.097 7  90444863.21445  22087542.563                    22087549.816
 114547844.265 8  89258155.006 7  21797730.313                    21797739.563
 119338980.268 7  92991466.13944  22709451.234                    22709458.543
 123999237.539 7  96622720.232 6  23596241.359                    23596249.141
 116061177.887 7  90437410.56045  22085689.344                    22085694.156
 131338882.153 6 102341972.17743  24992948.320                    24992956.469
 117447230.886 7  91517397.932 7  22349463.234                    22349469.344
 109396195.543 8  85243865.171 8  20817383.477                    20817389.715
 11  8 13  3 14 30.0000000  0  9G29G30G25G26G15G02G21G12G05
 113697054.184 8  88595171.301 7  21635823.234                    21635830.027
 116130234.528 8  90491153.15245  22098846.977                    22098854.137
 114582138.009 8  89284877.396 7  21804256.055                    21804265.191
 119253078.980 7  92924530.12344  22693104.797                    22693111.980
 123902364.237 7  96547234.582 6  23577806.438                    23577814.641
 116105884.023 7  90472246.52345  22094196.227                    22094201.449
 131281493.180 5 102297253.61242  24982027.398                    24982035.703
 117531268.521 7  91582881.814 7  22365455.063                    22365461.430
 109448698.276 8  85284776.390 7  20827374.422                    20827380.469
 11  8 13  3 15  0.0000000  0  9G29G30G25G26G15G02G21G12G05
 113624814.095 8  88538880.346 7  21622076.492                    21622082.969
 116190047.841 7  90537760.93745  22110228.953                    22110236.020
 114616935.608 8  89311992.399 7  21810877.977                    21810887.133
 119167451.787 7  92857807.70244  22676810.156                    22676817.098
 123805519.830 7  96471771.467 6  23559377.992                    23559385.531
 116150683.034 7  90507154.84645  22102721.227                    22102726.379
 131224106.865 5 102252537.22743  24971106.805                    24971115.023
 117615562.020 7  91648565.069 7  22381495.625                    22381502.023
 109501602.665 8  85326000.604 7  20837441.922                    20837447.824
 11  8 13  3 15 30.0000000  0  9G29G30G25G26G15G02G21G12G05
 113552786.589 8  88482755.050 7  21608369.750                    21608376.691
 116250265.826 7  90584684.03045  22121688.266                    22121694.934
 114652234.844 8  89339498.310 7  21817595.188                    21817604.238
 119082102.330 7  92791301.66844  22660569.164                    22660576.109
 123708707.154 7  96396333.054 6  23540955.297                    23540962.527
 116195575.078 7  90542135.66945  22111263.898                    22111268.785
 131166722.592 6 102207822.39143  24960187.922                    24960195.422
 117700107.945 7  91714445.005 7  22397584.148                    22397590.371
 109554906.348 8  85367535.947 8  20847585.242                    20847591.520
 11  8 13  3 16  0.0000000  0  9G29G30G25G26G15G02G21G12G05
 113480974.717 8  88426797.786 7  21594704.586                    21594711.555
 116310885.747 7  90631920.31745  22133223.297                    22133230.840
 114688033.923 8  89367393.703 7  21824407.859                    21824416.590
 118997034.282 7  92725014.90544  22644380.805                    22644388.605
 123611929.201 7  96320921.688 6  23522538.898                    23522546.063
 116240560.406 7  90577189.17245  22119824.234                    22119829.273
 131109339.849 6 102163108.67743  24949267.250                    24949275.324
 117784903.136 7  91780519.189 7  22413720.477                    22413726.727
 109608606.818 8  85409380.473 7  20857804.203                    20857810.883
 11  8 13  3 16 30.0000000  0  9G29G30G25G26G15G02G21G12G05
 113409380.437 8  88371010.068 7  21581080.570                    21581087.219
 116371904.792 7  90679467.60445  22144834.836                    22144842.473
 114724330.840 8  89395677.012 7  21831314.703                    21831323.402
 118912251.255 7  92658950.23644  22628246.789                    22628254.633
 123515189.113 7  96245539.822 6  23504129.641                    23504136.895
 116285639.046 7  90612315.39745  22128402.516                    22128407.168
 131051958.105 6 102118395.82942  24938348.070                    24938356.348
 117869944.775 7  91846785.411 7  22429903.180                    22429909.359
 109662701.972 8  85451532.542 7  20868098.227                    20868104.227
 11  8 13  3 17  0.0000000  0  9G29G30G25G26G15G02G21G12G05
 113338005.614 8  88315393.355 7  21567498.328                    21567505.113
 116433319.756 7  90727323.41645  22156521.719                    22156529.141
 114761123.391 8  89424346.525 7  21838315.875                    21838324.703
 118827757.001 7  92593110.60444  22612168.047                    22612175.969
 123418489.265 7  96170189.322 6  23485728.422                    23485735.762
 116330811.147 7  90647514.43845  22136998.328                    22137003.551
 130994576.561 6 102073683.09943  24927428.664                    24927435.887
 117955229.378 7  91913240.943 7  22446131.898                    22446138.270
 109717188.790 8  85493989.814 8  20878466.469                    20878473.215
 11  8 13  3 17 30.0000000  0  9G29G30G25G26G15G02G21G12G05
 113266853.084 8  88259949.862 7  21553958.508                    21553965.371
 116495128.054 7  90775485.72645  22168283.805                    22168290.711
 114798409.869 8  89453400.923 7  21845411.148                    21845420.500
 118743555.186 7  92527498.84644  22596145.234                    22596152.820
 123321833.465 7  96094873.109 6  23467335.297                    23467342.492
 116376077.330 7  90682786.79945  22145612.297                    22145617.523
 130937194.846 6 102028970.24143  24916509.000                    24916516.734
 118040754.543 7  91979883.937 7  22462407.125                    22462413.211
 109772066.006 8  85536751.275 7  20888909.344                    20888915.668
 11  8 13  3 18  0.0000000  0  9G29G30G25G26G15G02G21G12G05
 113195925.026 8  88204681.276 7  21540461.242                    21540467.996
 116557326.748 7  90823952.22645  22180119.711                    22180126.844
 114836188.258 8  89482838.633 7  21852600.016                    21852609.461
 118659649.821 7  92462118.05144  22580178.250                    22580185.863
 123225223.978 6  96019593.001 6  23448951.313                    23448958.004
 116421437.439 7  90718132.35745  22154244.102                    22154248.539
 130879812.776 6 101984257.09143  24905588.938                    24905597.020
 118126517.068 7  92046711.885 7  22478726.602                    22478733.727
 109827330.987 8  85579814.900 7  20899426.148                    20899432.266
 11  8 13  3 18 30.0000000  0  9G29G30G25G26G15G02G21G12G05
 113125223.602 8  88149589.267 7  21527007.297                    21527014.016
 116619912.672 7  90872720.46745  22192029.852                    22192036.617
 114874456.274 8  89512657.872 7  21859882.477                    21859891.457
 118576044.199 7  92396970.84245  22564268.930                    22564276.379
 123128664.106 7  95944351.554 6  23430577.125                    23430584.109
 116466891.537 7  90753551.12745  22162893.500                    22162898.281
 130822429.473 6 101939542.97943  24894669.422                    24894677.328
 118212513.658 7  92113722.208 7  22495091.695                    22495097.871
 109882980.949 8  85623178.503 7  20910015.531                    20910021.660
 11  8 13  3 19  0.0000000  0  9G29G30G25G26G15G02G21G12G05
 113054750.981 8  88094675.569 7  21513596.734                    21513603.801
 116682882.878 7  90921788.16345  22204012.781                    22204019.527
 114913211.953 8  89542857.090 7  21867257.547                    21867266.313
 118492742.020 7  92332060.05944  22548417.156                    22548425.063
 123032157.003 6  95869151.224 6  23412211.922                    23412219.129
 116512440.102 7  90789043.53045  22171561.008                    22171566.258
 130765044.406 6 101894827.43043  24883750.250                    24883756.633
 118298741.352 7  92180912.609 7  22511500.266                    22511506.422
 109939013.777 8  85666840.447 7  20920678.281                    20920684.402
 11  8 13  3 19 30.0000000  0  9G29G30G25G26G15G02G21G12G05
 112984509.456 8  88039941.935 7  21500229.820                    21500237.168
 116746234.314 7  90971152.90645  22216067.750                    22216074.539
 114952452.918 8  89573434.453 7  21874725.039                    21874733.809
 118409746.748 7  92267388.40245  22532624.211                    22532630.988
 122935705.276 6  95793994.041 6  23393857.641                    23393864.762
 116558083.269 7  90824609.64345  22180246.930                    22180252.105
 130707656.956 6 101850110.05543  24872829.359                    24872836.422
 118385196.882 7  92248280.566 7  22527951.836                    22527958.520
 109995426.661 8  85710798.536 7  20931413.586                    20931419.480
 11  8 13  3 20  0.0000000  0  9G29G30G25G26G15G02G21G12G05
 112914502.039 8  87985390.734 7  21486908.492                    21486914.977
 116809964.484 7  91020812.78345  22228194.906                    22228202.281
 114992177.635 8  89604388.781 7  21882284.242                    21882293.676
 118327062.632 7  92202959.20144  22516889.492                    22516896.805
 122839312.260 6  95718882.637 6  23375514.258                    23375521.816
 116603821.079 7  90860249.50345  22188950.336                    22188954.816
 130650267.023 6 101805390.73543  24861908.016                    24861915.547
 118471877.569 7  92315823.971 7  22544446.836                    22544453.648
 110052217.932 7  85755051.477 7  20942220.508                    20942226.707
 11  8 13  3 20 30.0000000  0  9G29G30G25G26G15G02G21G12G05
 112844730.213 8  87931023.104 7  21473631.469                    21473637.875
 116874069.820 7  91070764.99345  22240394.070                    22240401.246
 115032383.374 8  89635717.937 7  21889935.070                    21889944.340
 118244692.749 7  92138774.89044  22501215.508                    22501222.547
 122742980.587 7  95643819.005 6  23357182.773                    23357190.480
 116649653.847 7  90895963.34045  22197671.953                    22197676.957
 130592873.696 6 101760668.79543  24850986.070                    24850993.414
 118558779.845 7  92383540.044 7  22560983.711                    22560990.465
 110109384.432 8  85799596.799 7  20953098.984                    20953105.160
 11  8 13  3 21  0.0000000  0  9G29G30G25G26G15G02G21G12G05
 112775196.853 8  87876841.282 7  21460399.320                    21460405.855
 116938547.763 7  91121007.54045  22252663.500                    22252670.773
 115073068.464 8  89667420.590 7  21897676.844                    21897685.883
 118162641.205 7  92074838.63544  22485600.938                    22485608.434
 122646713.721 7  95568805.891 6  23338864.250                    23338871.555
 116695582.047 7  90931751.54145  22206411.898                    22206416.465
 130535476.520 6 101715943.78242  24840063.703                    24840070.563
 118645901.118 7  92451426.728 7  22577562.266                    22577568.883
 110166924.513 8  85844433.218 7  20964048.211                    20964054.699
 11  8 13  3 21 30.0000000  0  9G29G30G25G26G15G02G21G12G05
 112705903.604 8  87822846.566 7  21447213.047                    21447219.734
 117003394.834 7  91171537.72145  22265003.625                    22265010.973
 115114230.256 8  89699494.709 7  21905510.352                    21905519.086
 118080911.110 7  92011152.84945  22470048.641                    22470055.617
 122550514.247 7  95493845.260 6  23320557.922                    23320564.977
 116741605.732 7  90967614.15145  22215170.242                    22215174.922
 130478074.888 6 101671215.34843  24829141.344                    24829147.480
 118733238.065 7  92519481.473 7  22594182.492                    22594188.473
 110224835.306 8  85889558.503 7  20975068.477                    20975074.578
 11  8 13  3 22  0.0000000  0  9G29G30G25G26G15G02G21G12G05
 112636853.202 8  87769041.083 7  21434073.484                    21434080.262
 117068608.396 7  91222353.49345  22277413.633                    22277420.324
 115155866.843 8  89731938.798 7  21913433.164                    21913442.195
 117999506.570 7  91947720.74645  22454557.781                    22454565.078
 122454385.376 7  95418939.631 6  23302265.586                    23302272.582
 116787725.159 7  91003551.36445  22223946.109                    22223951.262
 130420668.461 6 101626483.10643  24818217.070                    24818223.223
 118820787.798 7  92587702.051 7  22610842.602                    22610848.254
 110283114.587 8  85934970.924 7  20986158.336                    20986164.941
